GFSGL_prec_cloud_003.txt.gz
Cloud_Cover
69 0 0 0 11 27 60 26 15 16 5 5 5 5 4 37 5 0 2 5 5 5 1 4 0 2 0 1 11 1 0 23 93 1 0 0 0 0 0 0 0 0 0
71 59 5 17 5 5 5 100 100 100 63 5 6 50 26 97 3 0 5 6 49 6 1 5 0 0 0 0 9 3 7 6 36 2 0 0 0 0 0 0 0 0 0
1 31 0 36 2 4 3 69 100 89 35 12 83 27 58 27 5 4 100 6 89 13 4 5 0 0 0 2 3 5 7 4 22 51 23 25 26 0 0 0 0 0 0
0 0 0 0 2 22 77 100 88 19 83 99 93 14 30 15 5 66 82 98 99 64 5 2 0 0 0 2 8 15 20 17 18 29 65 52 7 0 0 0 0 0 0
0 0 0 0 67 98 100 100 30 6 16 100 54 41 79 92 99 97 97 98 13 10 0 5 0 0 0 0 3 1 10 19 34 44 39 7 12 0 0 0 12 85 58
4 4 1 100 100 100 100 99 94 78 83 88 99 100 100 100 100 100 94 96 5 5 5 4 5 0 0 0 0 5 4 5 16 34 24 55 5 0 3 42 25 76 98
0 55 90 100 100 100 61 98 88 23 83 100 49 93 98 100 100 100 96 77 44 25 4 91 5 1 1 0 0 0 0 0 2 14 27 2 5 4 10 99 47 100 100
3 3 100 100 100 100 83 76 10 48 100 100 92 6 100 100 100 88 31 50 64 24 86 5 5 4 5 5 4 4 5 0 0 0 9 0 3 24 79 100 100 100 100
1 1 77 100 100 100 100 32 100 99 100 100 42 100 100 100 100 99 46 90 43 99 71 5 3 0 5 5 5 2 0 0 0 29 57 16 75 70 72 100 100 100 100
0 0 16 100 100 100 84 99 100 100 100 100 100 100 100 100 100 100 100 44 100 100 12 6 0 1 5 5 4 1 75 5 24 66 100 69 77 81 100 100 100 100 100
0 26 56 37 98 72 90 100 100 100 100 100 100 98 100 99 99 99 100 54 94 100 80 15 0 5 5 5 59 0 5 10 25 60 100 100 100 99 99 100 100 100 100
0 4 18 100 100 100 100 100 100 100 100 100 100 100 100 100 96 100 100 100 100 100 6 0 0 4 5 5 5 2 25 3 41 93 100 100 100 100 100 91 100 100 100
11 62 90 92 100 100 100 100 100 100 100 100 100 100 100 100 100 100 100 100 84 8 3 0 5 5 16 5 15 67 5 12 38 100 100 100 99 100 100 100 100 100 100
100 100 100 100 100 100 100 100 100 100 100 100 100 100 100 100 100 100 73 90 10 6 3 13 13 47 7 21 77 92 42 10 92 100 100 100 100 100 100 100 100 100 100
100 100 100 100 100 100 98 100 100 100 92 100 100 100 90 31 100 75 92 8 7 6 26 9 85 72 95 90 12 3 2 11 100 100 100 100 100 100 100 100 100 100 100
100 100 98 100 100 100 100 100 100 100 100 100 100 100 92 100 100 100 12 61 16 8 86 99 99 34 30 3 2 29 4 41 100 100 100 100 100 100 100 100 100 100 100
53 5 88 100 100 49 99 100 100 100 100 100 100 100 100 100 100 100 34 68 49 5 68 96 6 3 5 5 5 5 5 55 100 100 100 100 100 100 100 100 100 100 100
98 100 93 7 19 33 36 45 99 100 100 100 100 100 63 3 3 5 1 1 6 4 49 5 4 0 0 4 5 5 12 43 100 100 100 100 100 100 100 100 100 100 100
100 96 100 92 100 63 30 52 81 69 66 54 5 52 61 12 79 8 78 5 3 5 25 5 5 5 5 5 5 5 5 34 100 100 100 100 100 100 100 100 100 100 100
18 99 100 100 77 26 32 75 52 27 25 29 40 29 47 99 99 88 29 5 5 0 1 0 0 0 0 1 5 2 5 11 100 100 100 100 100 100 100 100 100 100 100
100 100 25 9 28 29 30 45 53 52 82 19 100 51 87 100 100 97 85 64 5 5 4 0 0 2 5 2 0 5 1 5 57 100 100 100 100 100 100 100 100 100 100
96 41 20 9 14 4 87 100 98 32 98 100 100 66 94 97 100 86 84 47 8 5 3 0 0 0 0 1 0 0 0 0 5 100 100 100 100 100 100 100 100 100 100
100 62 72 61 77 54 15 60 17 5 74 93 100 74 100 100 100 10 4 3 0 0 0 0 0 0 0 0 0 0 0 0 4 61 100 100 100 100 100 97 100 100 100
98 100 100 85 99 100 83 25 100 100 100 100 44 84 100 95 13 5 0 0 0 0 0 0 0 0 0 0 0 0 0 1 3 3 100 100 100 100 100 99 68 100 100
100 100 100 100 100 98 12 7 8 72 31 2 4 1 2 4 4 5 5 0 0 0 0 0 0 0 0 0 0 0 0 5 0 0 4 82 100 100 100 100 100 85 68
100 100 100 96 56 0 0 0 0 0 0 0 0 3 0 0 5 5 5 0 0 0 0 0 0 0 0 0 0 0 1 3 0 0 0 5 7 87 100 100 98 79 78

GFSGL_prec_cloud_006.txt.gz
Cloud_Cover
5 5 36 100 31 61 15 12 5 1 3 16 71 70 49 19 71 81 37 38 5 10 40 51 7 6 4 0 6 4 0 10 11 0 0 0 0 0 0 0 0 0 0
7 16 100 1 100 4 95 22 5 6 73 90 96 100 100 90 37 100 91 44 46 90 100 97 7 7 5 0 10 13 0 8 6 0 0 0 0 0 0 0 0 0 0
1 91 100 100 100 94 1 10 100 75 100 100 73 60 46 33 4 5 40 49 45 46 91 100 37 100 5 5 98 7 0 0 37 38 6 0 1 0 0 0 0 0 0
0 0 55 100 100 97 30 88 100 100 100 100 100 12 14 30 12 20 100 74 87 83 40 54 6 44 5 5 12 3 5 13 32 65 31 1 23 0 0 0 0 0 0
0 0 4 1 10 9 100 100 100 100 100 100 100 100 100 100 59 23 28 54 85 55 28 100 5 3 5 5 6 5 0 16 25 43 23 4 5 0 0 0 0 0 0
0 0 0 5 99 43 100 100 100 100 100 100 100 98 100 100 100 82 94 26 100 100 100 62 11 57 5 43 3 52 3 7 4 45 22 28 1 0 0 2 4 2 43
0 0 0 57 16 52 100 100 100 100 100 100 100 100 100 100 85 95 100 100 19 56 25 58 75 8 82 50 25 5 5 5 32 56 100 56 38 0 24 91 65 64 98
1 2 3 14 13 21 100 100 100 100 100 100 100 100 100 99 100 100 100 87 100 74 55 100 51 100 100 29 91 4 5 5 5 0 0 0 6 83 100 100 100 100 74
26 51 4 2 0 66 100 100 100 100 100 100 100 100 100 100 100 100 100 100 100 98 100 100 100 100 100 100 22 5 5 5 5 0 0 2 9 90 57 100 99 84 100
26 61 25 0 2 2 98 100 100 100 100 100 100 100 100 100 100 100 100 99 100 100 89 100 100 100 81 46 5 5 5 2 0 0 0 9 45 32 22 67 99 100 100
13 98 85 14 12 100 99 100 100 100 100 100 100 100 100 100 100 100 100 100 100 100 100 100 100 100 49 5 85 5 5 3 0 10 10 1 33 87 86 47 100 99 100
90 31 58 74 89 100 100 100 100 100 100 100 100 100 100 100 100 100 100 100 100 100 100 100 100 46 5 5 53 6 5 5 5 5 5 10 96 100 99 100 91 100 100
24 24 93 100 76 100 100 100 100 100 89 100 100 100 100 69 99 85 74 100 79 100 100 100 92 32 14 15 31 5 4 5 6 5 5 99 100 100 100 100 100 100 100
5 62 100 100 100 97 100 100 100 100 100 100 100 100 100 97 87 98 100 100 100 92 50 52 40 61 5 8 50 91 23 0 0 0 11 100 97 99 100 100 100 100 100
42 29 100 100 100 100 100 100 100 100 100 100 100 92 76 30 65 87 56 63 67 100 56 36 56 7 4 64 94 14 0 0 5 1 25 100 98 100 100 100 100 100 100
4 36 100 100 100 100 100 100 100 100 94 100 99 77 35 64 44 90 78 61 99 94 78 82 6 11 63 11 4 0 5 4 11 5 73 100 100 100 100 100 100 100 100
99 35 5 15 38 100 100 100 29 31 99 100 90 91 99 100 42 99 100 100 100 33 35 0 3 5 5 5 4 5 2 0 4 5 100 100 100 100 100 100 100 100 100
6 5 5 49 44 66 100 95 100 100 90 26 77 65 11 43 39 5 6 82 40 13 5 11 47 7 5 5 2 3 0 0 2 19 100 100 100 100 100 100 100 100 100
11 2 3 5 33 62 100 46 54 60 67 43 46 55 83 39 67 5 5 5 34 90 95 81 12 3 0 0 0 0 0 0 0 36 97 100 100 100 100 100 100 100 100
93 92 79 83 100 100 100 100 100 86 40 5 5 12 5 7 5 5 5 5 5 5 5 5 4 4 0 0 0 0 0 0 0 6 69 100 100 100 100 100 100 100 100
100 100 100 100 100 100 100 99 95 23 5 5 5 5 11 29 68 13 84 5 11 8 5 5 5 5 0 0 0 0 5 0 0 5 6 100 100 100 100 100 100 100 100
93 100 100 100 86 90 51 53 56 22 50 41 4 47 7 8 5 5 68 50 5 5 5 3 2 0 0 0 0 0 0 0 0 0 4 84 100 100 100 100 100 100 100
67 63 55 49 42 22 7 10 7 5 9 10 3 16 87 92 41 5 4 4 0 0 0 0 0 0 0 0 0 0 0 0 0 0 0 8 100 100 95 71 82 100 100
82 98 84 100 11 8 18 91 9 48 8 9 98 94 100 84 100 20 5 4 0 0 0 0 0 0 0 0 0 0 0 0 0 0 0 0 41 100 96 43 5 10 100
80 100 100 100 94 78 20 9 23 5 5 65 97 28 5 2 4 3 5 5 0 0 0 0 0 0 0 0 0 0 0 1 1 0 0 0 0 96 100 94 6 37 100
99 97 99 79 83 58 25 20 5 0 0 0 0 0 0 0 0 0 5 5 4 0 0 0 0 0 0 0 0 0 0 3 1 0 0 0 0 1 66 100 99 11 31

GFSGL_prec_cloud_009.txt.gz
Cloud_Cover
0 0 5 4 41 98 7 17 81 70 74 13 9 10 5 61 5 5 5 5 5 7 26 5 96 96 100 90 99 36 13 28 19 100 44 7 0 0 0 0 0 0 0
0 0 3 2 26 89 98 5 100 31 100 100 100 100 100 6 5 5 3 5 5 6 18 39 92 65 100 7 85 32 8 10 66 70 67 3 0 0 6 0 0 0 0
0 0 0 5 94 18 94 13 55 100 100 100 100 100 100 46 93 66 62 5 21 20 5 95 94 47 96 5 26 44 86 10 94 95 5 3 0 0 0 0 0 0 0
0 0 0 0 52 90 12 74 100 100 100 100 100 100 100 100 100 72 99 62 28 30 5 100 92 65 26 65 100 100 100 53 22 5 7 0 2 0 7 19 0 1 0
4 5 5 0 0 2 23 19 100 100 100 100 100 100 100 100 100 97 100 100 100 21 6 96 44 26 74 22 100 100 100 32 5 71 8 3 0 1 2 1 12 0 0
1 4 0 0 0 0 16 6 100 100 100 100 100 100 100 100 100 100 100 98 32 7 40 5 5 2 75 100 100 100 37 97 100 50 4 3 12 9 10 39 0 0 0
0 4 0 2 17 13 18 6 100 100 100 100 100 100 100 100 100 100 100 96 100 51 36 27 5 62 100 100 100 94 100 100 50 5 52 15 37 9 22 2 4 75 100
0 0 4 39 54 53 36 13 85 100 100 100 100 100 100 100 98 100 100 100 71 100 99 45 85 100 100 100 98 100 100 100 13 5 11 6 1 0 4 74 81 100 100
4 1 66 46 62 79 85 66 99 100 100 100 100 100 100 100 98 100 100 91 100 94 100 100 100 100 100 100 100 100 43 47 2 5 5 0 0 0 6 99 98 98 57
5 5 25 56 66 100 100 100 97 83 100 100 100 100 100 100 100 100 100 100 100 100 100 100 99 100 100 100 99 70 6 84 5 5 4 0 2 2 0 73 100 100 90
55 25 63 100 57 87 100 100 100 100 100 97 100 100 100 100 100 100 100 100 90 99 100 100 56 30 91 100 73 79 70 14 5 4 0 2 5 2 23 26 78 94 87
100 69 100 100 100 78 89 100 97 100 100 100 100 100 100 100 100 100 100 100 81 28 87 100 100 100 31 76 45 8 5 5 4 0 0 0 5 5 6 100 100 100 48
46 100 100 100 100 100 100 83 85 100 100 100 100 100 100 100 100 100 100 100 100 100 100 63 7 34 45 100 20 4 5 5 2 1 0 0 0 2 22 100 100 64 80
99 100 100 100 96 72 43 12 69 99 100 100 100 100 100 100 100 99 99 100 97 75 51 5 8 100 60 8 6 20 34 6 0 0 0 5 0 44 90 100 100 100 100
51 80 67 11 16 26 43 25 84 100 100 100 100 100 100 100 100 100 100 72 9 32 5 5 4 5 58 20 15 61 5 5 5 0 5 5 3 81 93 100 100 100 100
76 56 27 64 60 83 56 45 92 100 100 100 100 100 26 53 55 61 29 52 100 81 25 4 2 0 2 21 5 5 5 2 0 0 0 2 18 100 95 100 100 100 93
39 24 0 1 6 73 7 2 5 33 51 47 42 5 5 62 11 5 5 10 18 76 0 0 1 5 0 5 5 5 0 0 0 0 0 1 5 100 100 100 96 96 90
4 58 20 18 13 29 16 4 2 4 12 15 85 7 24 8 80 100 96 5 7 28 2 5 5 5 5 11 5 2 0 0 0 0 0 0 5 100 100 100 100 100 99
100 36 26 96 71 21 38 96 100 99 44 100 50 60 49 100 54 23 5 3 5 5 5 5 5 5 5 3 5 5 5 0 0 0 0 0 4 100 100 100 100 100 100
99 37 54 93 90 99 95 52 9 71 89 100 100 41 7 5 0 4 3 3 5 5 5 5 5 5 5 5 5 0 0 0 0 2 0 0 0 100 100 100 100 100 100
88 64 45 99 99 23 98 93 31 5 30 70 11 2 5 5 4 3 0 5 5 5 2 5 5 5 3 0 0 0 0 0 0 0 0 0 0 93 98 100 100 100 100
100 100 100 99 100 100 79 59 90 28 55 55 0 11 14 17 22 4 4 5 5 3 0 1 0 0 0 0 0 0 0 0 0 0 0 0 0 29 98 100 100 100 100
34 66 82 90 98 98 99 60 85 41 71 72 75 100 92 14 7 39 6 5 5 0 0 0 0 0 0 0 0 0 0 0 0 0 0 0 0 1 99 88 100 96 100
3 19 5 20 30 52 8 53 89 100 100 98 98 65 4 11 71 99 6 5 0 0 0 0 0 0 0 0 0 0 0 0 0 0 0 0 0 0 50 75 90 100 100
5 5 5 4 2 5 88 100 89 100 100 98 4 4 91 94 46 0 0 0 0 0 0 0 0 0 0 0 0 0 0 0 1 43 0 0 0 0 0 95 22 52 96
3 0 3 4 5 5 5 66 26 84 71 14 4 0 0 0 0 0 0 0 5 5 1 0 0 0 0 0 0 0 0 0 0 3 1 0 0 0 0 2 48 6 92

GFSGL_prec_cloud_012.txt.gz
Cloud_Cover
0 0 0 0 0 3 4 67 60 69 32 9 100 63 47 13 4 22 51 25 8 5 5 19 59 59 100 92 30 27 22 8 76 22 100 100 100 12 22 34 15 0 0
0 0 0 0 0 0 5 99 96 92 97 89 100 100 100 100 100 100 100 91 5 56 87 34 75 29 100 100 72 99 1 6 100 96 100 100 99 5 96 97 19 15 2
0 0 0 0 0 0 25 5 46 71 51 53 100 100 100 98 100 100 100 100 100 98 61 100 100 92 100 79 99 6 12 22 66 90 100 100 97 100 100 100 8 1 5
0 0 0 1 0 2 4 10 30 95 88 52 100 100 100 100 100 100 100 100 100 100 100 100 100 100 92 34 99 7 13 13 79 100 100 100 97 100 100 100 98 11 1
0 0 0 3 19 9 0 22 8 16 45 100 100 100 100 100 100 100 100 100 100 86 100 100 100 75 5 70 88 54 100 100 100 100 94 21 100 100 77 23 35 22 0
0 0 0 11 69 33 24 72 9 23 5 100 100 100 100 100 100 100 100 100 100 100 100 100 100 18 59 36 84 22 100 99 80 34 98 100 100 90 37 77 16 5 0
0 0 0 6 84 71 46 93 100 27 12 81 100 100 100 100 100 100 100 100 100 100 100 100 100 100 64 19 7 33 6 30 100 100 100 100 1 3 12 15 8 0 0
0 0 0 2 38 100 48 100 100 99 56 26 43 100 100 100 100 100 100 100 100 100 100 100 100 100 100 100 98 68 100 96 83 100 30 14 5 0 2 0 1 23 78
0 0 4 7 88 93 95 83 92 100 86 73 72 70 99 100 100 100 100 100 100 100 100 100 100 100 100 100 80 89 100 100 58 5 0 0 5 5 0 25 1 100 97
0 0 31 20 19 100 98 100 100 100 86 100 100 35 29 100 100 100 100 100 100 100 100 100 100 100 100 100 100 99 6 5 16 0 0 9 1 0 1 40 58 73 91
0 0 0 9 63 100 100 100 100 100 100 100 90 57 62 99 100 100 100 100 100 100 100 100 100 100 100 100 80 10 34 14 0 5 0 1 0 0 5 66 32 0 15
3 0 4 80 99 100 100 100 100 100 100 100 70 81 39 65 100 100 100 100 100 100 100 100 100 100 92 24 39 5 2 48 34 7 43 0 0 0 0 0 0 28 100
0 10 98 100 100 100 100 100 100 100 100 69 96 29 73 100 14 100 100 100 100 100 100 100 71 12 5 60 5 2 5 74 33 11 2 0 0 0 3 0 4 99 100
64 94 100 100 100 100 100 100 100 100 100 100 95 92 24 99 99 100 91 85 94 36 38 1 2 10 2 15 5 16 6 3 2 0 3 2 0 0 2 4 5 89 100
100 100 100 100 100 100 100 100 100 94 100 100 64 97 100 100 100 78 17 29 78 100 23 5 3 15 28 61 56 34 5 0 0 1 1 0 0 0 2 5 45 100 100
78 30 14 7 81 86 60 56 88 42 87 100 100 100 100 100 93 100 88 96 73 10 8 21 34 11 6 8 47 69 8 0 0 0 0 0 0 0 0 5 89 100 100
94 5 0 0 17 12 12 14 18 34 14 20 73 58 100 100 100 72 84 85 99 62 8 11 3 0 11 19 6 4 0 4 0 0 0 0 0 0 0 13 100 100 100
10 14 0 6 10 5 7 34 14 5 11 100 79 62 32 5 5 5 24 31 10 28 0 3 5 5 5 5 5 0 0 0 0 0 0 0 0 0 0 50 100 100 100
4 0 0 0 5 7 16 69 19 21 37 4 3 14 20 16 23 5 6 45 0 0 0 5 5 5 5 5 4 0 1 3 0 0 0 0 0 0 0 83 100 100 100
0 20 1 5 11 16 82 100 98 12 8 17 59 58 94 5 5 4 1 3 0 0 0 5 3 0 3 5 5 4 1 0 0 0 0 0 0 0 0 76 100 100 100
0 3 5 7 99 100 100 29 5 5 5 50 25 88 90 5 91 96 6 4 18 97 12 0 0 0 0 0 0 0 0 0 0 0 0 0 0 0 0 10 100 99 69
5 5 10 21 5 67 81 6 28 76 52 21 63 26 7 5 86 89 84 100 72 5 4 0 0 0 0 0 0 0 0 0 0 0 0 0 0 0 0 1 100 100 56
71 19 26 6 87 45 4 13 16 37 74 88 98 98 100 98 68 83 64 23 0 1 0 0 0 0 0 0 0 0 0 0 0 0 0 0 0 0 0 0 58 64 66
99 100 55 78 9 5 26 60 47 14 84 100 100 100 98 100 100 98 56 73 5 0 0 0 0 0 0 0 0 0 0 0 0 0 0 0 0 0 0 0 5 6 100
51 61 43 62 44 12 71 11 92 100 100 100 100 78 78 73 72 34 82 82 14 0 0 0 0 0 0 0 0 0 0 0 0 43 0 0 0 0 0 0 0 5 7
22 9 5 5 5 4 2 3 6 17 20 36 100 100 100 99 100 100 100 45 1 11 3 1 0 0 0 0 0 0 0 0 0 0 1 0 0 0 0 0 0 5 2

GFSGL_prec_cloud_015.txt.gz
Cloud_Cover
0 0 0 0 0 0 0 0 0 3 66 4 2 38 66 71 100 95 30 12 50 63 33 5 92 100 100 100 100 100 100 100 24 11 42 52 11 20 93 100 80 100 40
0 0 0 0 0 0 0 0 0 5 4 5 7 4 66 100 100 100 100 99 100 96 98 100 100 100 100 100 100 99 100 100 100 52 11 8 69 89 95 100 95 39 100
0 0 0 0 0 0 0 0 0 1 6 75 13 79 4 100 100 100 100 100 100 100 100 100 100 100 99 100 100 100 100 100 100 92 96 5 7 39 68 28 71 100 100
0 0 0 0 0 0 0 0 3 5 4 2 31 62 6 100 100 100 100 100 100 100 100 100 100 100 100 100 100 100 100 57 94 47 100 83 6 25 100 100 100 100 100
0 0 0 0 0 0 0 0 5 14 26 5 8 5 5 100 100 100 100 100 100 100 100 100 100 100 100 100 100 100 100 100 100 100 100 41 11 100 100 100 20 63 10
0 0 0 0 0 0 0 0 1 5 18 5 5 24 100 99 100 100 100 100 100 100 100 100 100 100 100 100 100 100 100 100 100 100 100 100 100 100 2 15 43 1 0
0 0 0 0 0 0 0 4 5 80 55 97 69 5 5 8 100 100 100 100 100 100 100 100 100 100 100 100 100 100 100 100 100 100 100 100 100 7 1 2 0 0 0
0 0 0 0 0 3 5 5 25 87 98 100 86 0 4 0 15 94 100 69 100 100 100 100 100 100 100 100 100 100 100 100 100 100 91 6 5 0 2 2 0 0 0
0 0 0 0 2 5 47 61 77 99 100 100 100 37 18 8 91 100 57 76 100 98 100 100 100 100 100 100 100 100 100 100 100 100 100 14 0 4 0 5 3 2 12
0 0 0 5 58 97 54 100 100 100 100 100 100 100 94 100 89 56 7 17 99 61 100 100 100 100 100 100 100 100 100 100 100 100 78 11 3 42 100 96 21 38 36
0 0 7 100 21 5 60 100 100 100 100 98 100 100 79 62 42 5 6 47 87 95 100 83 71 100 99 100 100 100 100 99 87 7 4 5 97 100 67 76 75 13 3
0 43 79 6 40 99 100 100 100 100 100 100 100 100 59 31 37 28 96 76 79 42 63 51 55 13 61 5 45 36 7 5 93 13 7 95 100 7 0 1 0 0 0
58 98 100 97 100 100 100 92 91 100 100 100 100 96 19 18 33 53 100 100 68 15 100 33 19 17 42 65 10 8 30 0 0 46 96 6 0 0 0 4 2 0 0
10 100 100 100 100 100 100 100 100 100 100 100 100 65 83 93 56 95 38 24 89 60 88 4 74 92 71 13 1 2 3 8 93 55 0 0 0 3 5 5 0 0 0
100 100 100 100 100 99 84 99 93 84 98 99 85 43 81 14 18 44 57 86 41 40 40 46 41 3 0 10 57 100 100 74 100 22 0 0 0 4 1 0 0 0 5
94 99 75 100 100 80 98 72 100 77 99 99 80 0 16 37 69 98 100 100 81 14 10 47 26 88 100 95 100 100 100 100 60 20 1 0 5 1 0 0 0 0 5
100 100 96 63 71 64 94 62 77 58 5 0 0 5 5 36 28 4 4 6 6 42 76 44 1 46 100 100 100 100 72 28 0 0 0 1 0 0 0 0 0 0 8
56 69 67 52 71 88 77 30 0 0 0 4 34 63 30 1 0 4 11 76 86 96 78 1 5 57 97 78 15 9 5 3 1 3 1 0 0 0 0 0 0 0 3
100 79 85 51 23 50 6 45 0 0 8 5 2 8 16 2 5 5 40 28 3 70 81 82 3 4 12 19 5 3 5 5 4 2 0 0 0 0 0 0 0 0 3
16 29 29 1 0 0 0 0 0 4 22 68 5 0 2 0 0 1 0 1 28 65 18 11 36 20 5 2 0 0 0 0 0 0 0 0 0 0 0 0 0 0 5
88 93 49 0 0 3 2 0 6 65 100 92 58 17 34 0 1 79 100 68 18 15 35 20 5 0 0 0 0 0 0 0 0 0 0 0 0 0 0 0 0 0 12
5 5 5 26 82 39 33 31 55 75 32 81 100 12 1 0 20 100 100 100 72 31 50 55 3 0 1 0 0 0 0 0 0 0 0 0 0 0 0 0 0 0 66
4 34 80 84 100 58 12 54 91 82 75 71 24 2 81 34 14 92 100 100 100 81 41 0 0 0 0 0 0 0 0 0 0 0 0 0 0 0 0 0 0 0 56
99 87 100 100 100 100 100 88 16 76 26 18 75 97 37 100 95 100 100 100 100 75 87 24 0 0 0 0 0 0 0 0 0 0 0 0 0 0 0 0 0 0 9
100 100 98 100 99 32 66 30 100 96 33 95 99 100 100 100 100 100 100 100 100 100 50 18 1 3 0 0 0 0 0 0 0 43 0 0 0 0 0 0 0 0 3
100 91 63 90 76 64 44 68 86 100 94 40 75 86 100 100 100 100 61 98 100 89 54 53 33 4 1 0 0 0 0 0 0 0 0 0 0 0 0 0 0 0 0

GFSGL_prec_cloud_018.txt.gz
Cloud_Cover
0 0 0 0 0 0 0 0 0 0 0 0 0 0 0 0 5 5 68 96 100 99 100 100 100 75 56 93 87 100 100 100 100 100 100 100 42 78 47 47 24 39 72
0 0 0 0 0 0 0 0 0 0 0 0 0 0 0 4 5 5 77 99 43 100 89 65 92 100 100 100 100 100 100 100 100 100 100 99 94 30 18 5 5 95 32
0 0 0 0 0 0 0 0 0 0 0 0 0 0 8 72 71 5 50 100 100 100 97 100 100 100 100 100 100 100 100 100 100 100 100 100 100 89 17 89 88 99 100
0 0 0 0 0 0 0 0 0 0 3 3 4 5 5 26 26 5 4 93 100 100 100 100 100 100 100 100 100 100 100 100 100 100 100 97 100 51 99 100 97 100 100
0 0 0 0 0 0 0 0 0 0 0 2 4 3 5 5 5 5 1 5 59 98 100 92 84 92 100 100 100 100 100 100 100 100 100 100 100 100 100 100 98 100 100
0 0 0 0 0 0 0 0 0 0 0 1 5 28 60 5 17 6 0 0 4 86 100 100 100 97 100 100 100 100 100 100 100 100 100 100 100 100 100 100 100 100 100
0 0 0 0 0 0 0 0 0 0 0 32 60 84 88 58 12 5 3 0 0 47 94 100 100 100 100 100 100 100 100 100 100 100 100 100 100 100 100 100 100 100 99
0 0 0 0 0 0 0 0 0 0 1 32 84 94 100 100 50 53 4 0 11 99 100 100 100 38 100 100 100 100 100 100 100 100 100 100 100 100 100 100 100 96 2
0 0 0 0 1 0 0 0 3 0 11 90 94 100 100 100 100 90 50 8 100 100 100 97 100 100 100 100 100 100 100 99 90 5 27 91 100 78 100 100 100 100 4
5 5 5 5 5 2 0 2 5 23 63 100 100 100 100 100 100 100 100 68 100 100 99 35 90 100 100 100 100 100 84 96 81 50 86 86 5 3 0 29 95 1 4
5 5 5 5 0 0 0 18 77 100 100 100 100 100 100 100 96 83 99 78 30 24 26 70 15 100 64 62 58 70 39 10 5 5 6 3 3 0 81 100 85 10 0
5 5 5 5 5 7 83 100 100 100 100 100 100 100 100 96 44 89 93 85 7 15 96 81 5 22 18 36 88 100 83 71 59 1 0 0 0 98 35 2 0 0 0
0 5 5 5 17 100 76 100 100 100 100 100 100 100 100 15 69 47 84 62 58 86 79 43 46 50 40 71 56 99 62 5 0 0 0 29 59 0 0 0 0 0 0
5 5 5 100 100 100 87 100 100 100 100 100 68 9 5 27 13 50 81 86 82 43 7 22 13 53 5 6 93 65 82 13 47 23 0 0 0 0 0 0 0 0 0
100 91 98 100 98 99 99 100 100 100 100 60 22 62 43 62 2 0 0 3 13 30 96 96 100 96 5 29 100 10 8 28 100 100 64 2 5 1 0 0 0 0 0
100 94 72 99 100 100 100 100 83 98 58 41 33 21 16 19 5 6 0 2 10 51 10 4 1 5 22 77 21 99 95 96 100 100 44 18 0 0 0 0 0 0 0
100 100 96 100 100 28 100 100 48 27 20 10 26 17 0 3 3 0 0 0 0 0 0 0 5 0 6 100 100 100 100 100 81 8 4 0 0 0 0 0 0 0 0
100 100 53 100 16 74 93 95 57 5 5 8 69 6 24 0 0 0 0 0 0 4 0 0 0 29 39 0 3 47 5 2 2 3 0 0 0 0 0 0 0 0 0
22 62 53 100 100 100 77 94 88 27 99 100 42 0 9 0 0 0 5 0 0 0 49 100 97 0 4 5 5 3 0 0 0 0 0 0 0 0 0 0 0 0 0
98 99 99 100 100 100 72 87 30 82 69 76 37 3 0 0 0 0 0 0 0 0 31 8 0 1 4 2 0 0 0 0 0 0 0 0 0 0 0 0 0 0 0
100 100 100 100 100 100 100 100 100 64 0 1 8 1 5 46 5 1 0 0 2 1 99 0 0 0 0 0 0 0 0 0 0 0 0 0 0 0 0 0 0 0 0
100 100 100 100 100 91 99 12 69 86 60 99 100 100 36 8 1 5 0 59 100 100 63 0 0 0 0 0 0 0 0 0 0 0 0 0 0 0 0 0 0 0 0
100 100 100 100 100 100 100 100 100 100 100 100 100 100 20 1 6 82 100 100 100 100 100 76 0 0 0 0 0 0 0 0 0 0 0 0 0 0 0 0 0 0 0
100 100 100 100 100 100 100 100 31 100 100 100 82 8 3 40 96 14 99 100 100 100 100 99 16 0 0 0 0 0 0 0 0 0 0 0 0 0 0 0 0 0 0
91 98 100 100 99 100 100 100 100 100 99 100 12 3 12 24 78 82 100 34 87 100 55 94 18 0 0 0 0 0 0 0 0 0 0 0 0 0 0 0 0 0 0
100 100 98 90 100 100 100 100 100 69 36 100 76 8 15 54 6 72 64 63 100 42 67 82 52 28 0 0 0 0 0 0 0 0 0 0 0 0 0 0 0 0 0

GFSGL_prec_cloud_021.txt.gz
Cloud_Cover
0 0 0 0 0 0 0 0 0 0 0 0 0 0 0 0 4 0 0 0 0 14 38 5 48 44 65 5 80 92 100 100 100 100 96 100 100 100 100 100 100 98 12
0 0 0 0 0 0 0 0 0 0 0 0 0 0 0 0 0 12 65 5 0 17 21 5 28 61 93 72 95 100 100 97 100 100 100 100 100 100 100 100 100 100 100
0 0 0 0 0 0 0 0 0 0 0 0 0 0 5 5 5 31 99 5 5 4 0 5 49 93 100 100 100 75 99 79 90 95 100 100 100 100 100 100 100 100 100
0 0 0 0 0 0 0 0 0 0 0 0 0 0 5 4 32 62 74 100 6 0 0 5 43 100 100 40 99 100 100 75 58 45 100 100 100 96 100 100 100 100 100
0 0 0 0 0 0 0 0 0 0 0 0 0 0 3 5 5 75 97 56 90 0 0 0 36 100 100 100 100 100 100 100 100 100 100 100 100 100 100 100 100 100 100
0 0 0 0 0 0 0 0 0 0 0 5 5 0 5 5 8 18 69 80 99 4 0 0 21 98 100 100 100 100 100 100 100 100 100 100 100 100 100 99 84 99 100
0 0 0 0 0 0 0 0 0 0 0 5 5 5 5 69 79 88 94 69 39 0 0 4 90 100 100 100 87 45 100 100 100 100 88 87 80 99 100 100 100 52 99
0 0 0 0 0 0 0 0 0 5 5 5 5 9 35 34 70 90 100 99 100 39 43 85 100 100 100 100 100 100 100 100 100 98 87 91 64 19 5 15 5 5 20
5 5 0 0 1 3 5 5 5 5 5 5 0 21 89 100 100 100 100 100 100 100 100 95 54 100 100 70 76 100 100 100 95 71 12 5 5 5 5 1 0 0 0
5 5 5 5 5 5 5 5 5 2 5 0 23 53 100 100 100 100 100 100 100 100 100 20 100 96 99 10 47 91 90 96 15 17 50 81 45 6 5 2 0 0 0
0 0 4 5 5 5 5 3 0 12 43 8 100 100 100 100 100 100 100 100 100 96 38 100 82 5 71 66 44 30 6 21 76 96 100 100 100 100 72 11 0 2 6
5 5 5 5 5 5 1 1 8 83 41 100 100 100 100 100 100 100 100 47 100 100 92 7 16 32 63 17 53 88 87 63 16 91 100 100 100 100 96 40 0 1 1
5 2 5 4 8 5 20 73 80 86 100 100 100 100 100 100 100 69 14 83 80 100 51 48 98 45 83 36 97 100 90 100 46 100 100 54 9 27 99 42 8 5 4
2 13 9 36 56 66 56 51 65 72 61 58 98 100 100 73 33 39 22 12 93 100 92 72 88 56 60 74 84 88 43 2 3 3 64 35 0 3 0 2 2 0 0
100 57 92 100 100 100 100 78 36 97 100 90 100 61 29 91 26 15 14 68 29 88 57 9 47 7 37 25 1 0 34 86 99 11 53 26 5 3 0 0 0 0 0
100 100 100 100 100 100 68 97 100 75 72 88 87 70 68 45 28 44 39 92 34 12 1 1 0 0 0 0 0 0 62 16 66 41 66 0 0 0 0 0 0 0 0
49 44 100 100 100 100 100 100 91 80 53 100 100 84 26 26 62 23 5 0 0 0 1 2 32 4 0 10 8 0 72 96 7 56 1 5 1 0 0 0 0 0 0
83 100 100 100 100 100 98 86 78 100 89 100 98 53 100 49 60 89 100 13 5 32 65 100 86 0 0 0 0 0 0 0 0 28 9 2 0 0 0 0 0 0 0
100 100 100 100 74 98 79 41 73 96 99 100 100 100 100 99 100 93 5 41 100 100 100 100 41 0 0 0 0 0 0 0 0 0 0 0 0 0 0 0 0 0 0
53 18 7 71 100 100 100 95 52 99 100 100 100 100 100 100 56 88 100 87 100 86 82 4 8 20 0 1 0 0 0 0 0 0 0 0 0 0 0 0 0 0 0
97 100 98 73 100 100 100 100 100 100 100 100 100 100 100 100 100 100 100 100 100 80 42 2 0 0 0 0 0 0 0 0 0 0 0 0 0 0 0 0 0 0 0
100 100 100 91 100 100 100 100 100 100 100 100 100 46 25 49 90 100 100 100 100 100 98 2 0 0 0 0 0 0 0 0 0 0 0 0 0 0 0 0 0 0 0
100 100 100 100 100 100 100 100 100 100 100 94 100 100 91 95 100 100 100 100 83 90 100 68 80 4 0 0 0 0 0 0 0 0 0 0 0 0 0 0 0 0 0
100 100 100 100 100 100 100 100 85 100 100 100 100 100 98 85 100 100 45 75 92 91 100 100 76 26 0 0 0 0 0 0 0 0 0 0 0 0 0 0 0 0 0
100 100 100 100 99 98 100 100 100 99 100 100 86 89 89 100 100 100 66 4 86 30 82 100 88 3 0 0 0 0 0 0 0 0 0 0 0 0 0 0 0 0 0
100 89 100 100 100 100 100 100 89 74 100 100 100 100 100 97 36 5 21 5 4 4 70 22 0 0 0 0 0 0 0 0 0 0 0 0 0 0 0 0 0 0 0

GFSGL_prec_cloud_024.txt.gz
Cloud_Cover
0 0 0 0 0 0 0 0 0 0 0 0 0 0 0 0 0 0 0 1 2 2 5 0 2 10 94 86 48 78 53 57 40 100 36 9 5 97 97 99 76 100 62
0 0 0 0 0 0 0 0 0 0 0 0 0 0 0 4 1 5 5 5 5 5 3 2 4 5 53 94 6 100 5 57 100 100 100 40 75 58 14 97 100 100 100
0 0 0 0 0 0 0 0 0 0 0 0 0 0 0 5 5 5 8 5 5 5 5 4 0 5 5 9 81 40 100 100 100 100 100 25 70 100 98 100 100 99 100
0 0 0 0 0 0 0 0 0 0 0 0 0 0 0 5 5 5 5 2 5 5 4 5 1 0 5 87 10 66 100 100 100 88 100 100 100 96 100 100 100 100 100
0 0 0 0 0 0 0 0 0 0 0 0 1 5 5 8 5 5 1 5 5 5 5 0 0 0 16 98 29 49 95 100 100 100 100 100 100 100 83 97 75 100 100
0 0 0 0 0 0 0 0 0 0 0 0 1 5 5 5 5 5 5 5 5 21 6 5 5 8 69 98 5 34 99 49 88 100 100 100 100 100 57 27 5 90 99
0 0 0 0 0 0 0 0 1 0 0 0 3 5 5 5 5 5 5 6 34 66 94 88 71 10 63 54 74 65 26 64 98 100 100 100 100 72 77 96 42 5 5
0 0 0 0 0 0 0 0 3 32 5 2 1 0 0 0 5 5 11 86 95 99 100 100 100 69 91 23 98 100 21 80 100 100 100 92 92 64 12 5 74 17 40
3 0 0 0 0 0 0 0 1 26 49 19 0 0 0 4 25 98 100 100 100 100 100 100 100 100 67 40 100 46 51 99 31 42 81 90 85 70 42 75 100 96 100
41 0 0 0 4 3 0 0 0 0 2 4 53 27 5 68 100 100 100 100 100 100 94 72 93 92 32 90 88 8 7 19 6 18 6 72 83 94 98 10 52 100 89
98 38 5 4 14 100 80 6 0 0 10 32 83 88 100 100 100 100 100 100 100 92 100 47 0 5 64 97 40 7 98 62 68 90 100 100 100 100 100 2 2 2 2
14 94 44 9 2 14 100 70 26 1 58 100 100 100 100 100 100 100 100 100 100 92 2 35 49 90 35 2 95 45 55 20 94 98 100 98 41 8 0 0 0 14 93
98 100 100 46 36 4 35 9 54 70 100 100 100 100 100 100 100 100 100 100 37 5 72 100 83 88 100 56 51 50 62 42 39 30 4 0 0 0 5 1 0 0 0
26 48 100 100 99 7 6 33 58 100 100 100 100 100 100 100 100 98 96 37 14 18 80 96 89 98 24 13 5 24 31 5 5 0 0 0 0 3 0 0 0 0 0
8 39 75 100 100 100 100 100 100 100 100 100 100 100 100 100 100 86 31 41 37 24 70 97 100 78 4 5 100 20 9 50 5 0 0 0 0 0 0 0 0 0 0
100 100 100 100 100 100 100 100 100 100 100 100 100 100 100 100 100 100 100 100 100 87 100 100 100 100 93 6 7 5 5 5 1 0 0 0 0 0 0 0 0 0 0
100 100 100 100 100 100 100 100 100 100 100 100 100 100 100 100 100 100 100 97 71 100 100 100 100 100 43 8 10 10 5 0 0 0 0 0 0 0 0 0 0 0 0
100 100 99 100 100 100 100 100 100 100 100 100 100 100 100 100 76 100 100 100 100 100 98 41 79 7 68 98 100 12 0 0 0 0 0 0 0 0 0 0 0 0 0
100 100 100 99 61 100 100 33 100 100 100 100 100 100 100 79 90 84 100 100 100 100 55 30 97 100 99 100 12 6 0 0 0 0 0 0 0 0 0 0 0 0 0
100 100 100 65 58 18 34 5 99 100 99 98 88 100 36 22 32 92 99 100 100 100 18 97 100 100 97 100 75 33 0 0 0 0 0 0 0 0 0 0 0 0 0
92 11 14 5 5 37 95 100 100 100 100 100 63 92 72 95 100 99 100 100 99 23 100 100 97 50 46 100 8 0 0 0 0 0 0 0 0 0 0 0 0 0 0
4 5 4 5 5 6 100 100 100 100 100 100 100 100 76 90 98 96 100 100 96 89 100 100 100 100 100 48 0 0 0 0 0 0 0 0 0 0 0 0 0 0 0
60 55 85 83 51 56 100 100 100 100 100 100 100 100 69 98 96 99 100 100 100 100 100 100 85 28 4 0 0 0 0 0 0 0 0 0 0 0 0 0 0 0 0
100 91 60 41 96 48 99 100 100 100 100 100 100 85 86 96 100 100 100 100 100 100 100 99 98 73 17 3 4 0 0 0 0 0 0 0 0 0 0 0 0 0 0
100 92 92 100 100 100 99 88 100 100 100 100 100 99 100 100 100 84 98 97 89 97 100 100 64 36 18 5 4 0 0 0 0 0 0 0 0 0 0 0 0 0 0
100 100 100 100 100 100 100 100 100 100 100 100 100 75 98 100 100 100 100 83 56 100 100 78 100 58 2 4 0 3 0 0 0 0 0 0 0 0 0 0 0 0 0

GFSGL_prec_cloud_027.txt.gz
Cloud_Cover
0 0 0 0 0 0 0 0 0 0 0 0 0 0 0 0 0 0 2 5 5 5 2 0 0 3 0 5 22 3 2 5 5 54 15 61 100 11 11 100 100 78 14
0 0 0 0 0 0 0 0 0 0 0 0 0 0 0 0 0 0 0 0 4 5 5 2 0 5 5 4 36 44 2 5 56 100 98 100 14 94 7 23 100 100 100
0 0 0 0 0 0 0 0 0 0 0 0 0 0 0 0 0 0 4 15 8 5 5 5 4 5 5 5 3 33 0 5 32 91 100 100 100 100 86 66 87 69 100
0 0 0 0 0 0 0 0 0 0 0 0 0 0 0 0 0 4 0 27 0 0 5 6 13 11 12 5 5 4 0 2 30 88 90 100 100 100 100 100 100 100 97
0 0 0 0 0 0 0 0 0 0 0 0 0 0 0 0 0 0 0 2 4 4 5 98 100 100 100 26 6 4 21 5 19 36 26 78 84 100 100 100 99 100 99
4 0 0 0 0 0 0 0 0 0 0 0 0 0 0 0 0 0 0 5 5 5 28 100 100 85 68 14 0 59 20 12 6 56 56 17 100 100 100 100 94 66 70
5 0 0 0 0 0 0 0 0 0 0 0 0 0 0 0 0 0 2 5 5 75 100 100 99 100 100 79 34 73 6 17 23 5 5 78 70 100 96 84 66 5 6
36 31 4 1 0 0 0 0 0 0 0 0 4 0 0 0 1 5 4 5 78 91 100 100 100 100 100 88 62 80 15 0 100 5 46 34 30 26 42 15 8 11 77
100 95 5 1 0 0 0 0 0 48 30 19 52 6 0 0 7 5 5 7 100 100 100 100 100 100 100 55 92 100 8 3 35 5 5 5 25 28 6 18 34 44 86
1 67 99 96 16 5 0 0 0 35 41 75 74 12 4 0 45 31 87 71 100 100 100 100 100 100 100 100 100 100 33 75 100 5 14 5 8 56 72 46 99 52 0
44 62 88 43 7 24 0 0 18 48 79 100 100 90 38 3 44 30 98 100 100 100 100 100 100 100 100 100 56 30 89 78 95 20 22 41 14 5 12 0 0 0 0
6 49 66 100 82 100 25 3 30 99 98 100 100 100 100 52 74 83 100 100 100 100 100 100 100 100 100 38 20 58 99 5 5 20 74 49 5 1 0 0 0 0 1
54 98 100 100 100 100 100 94 99 100 100 100 100 100 100 100 98 100 100 100 100 100 100 100 100 100 100 87 40 95 95 34 57 55 35 5 2 0 0 0 2 0 0
91 75 18 76 91 97 99 100 100 100 100 100 100 100 100 100 100 100 100 100 100 100 100 100 100 100 100 100 74 68 58 25 10 5 5 5 0 0 0 0 0 0 0
4 3 90 100 100 100 100 100 98 83 100 100 100 100 100 100 100 100 100 100 100 100 100 100 100 100 97 100 98 68 25 14 6 35 0 3 0 0 0 0 0 0 0
12 63 100 100 100 100 100 100 100 100 100 100 100 100 100 100 100 100 100 100 100 100 100 100 100 100 100 82 25 5 5 3 5 3 0 0 0 0 0 0 0 0 0
100 100 100 100 100 100 100 100 100 100 100 100 100 100 100 100 100 100 100 100 100 100 100 100 100 94 100 100 21 3 2 2 45 0 0 0 0 0 0 0 0 0 0
100 100 100 100 100 100 100 100 100 100 100 100 100 100 100 100 100 100 100 100 100 100 100 100 100 98 100 100 10 10 8 17 30 1 0 0 0 0 0 0 0 0 0
100 100 100 100 100 100 100 100 100 100 100 100 100 100 100 100 100 100 100 100 100 100 100 100 100 38 100 94 5 5 37 43 4 5 0 0 0 0 0 0 0 0 0
100 100 100 100 100 100 100 100 100 99 100 100 100 100 100 100 100 100 100 100 100 100 100 100 87 100 100 7 11 5 32 3 2 1 0 0 0 0 0 0 0 0 0
100 100 100 100 100 100 100 100 100 100 100 100 100 100 100 100 100 100 100 100 100 100 100 99 98 5 1 0 7 1 0 3 4 2 0 0 0 0 0 0 0 0 0
100 100 100 100 100 100 100 100 100 100 100 100 100 100 100 91 100 100 100 100 100 90 2 3 3 0 14 60 30 98 1 0 0 2 0 0 0 0 0 0 0 0 0
100 100 100 100 100 100 100 97 100 100 99 100 100 100 96 57 47 63 56 14 3 0 3 0 0 0 5 31 29 2 5 4 3 0 0 0 0 0 0 0 0 0 0
100 100 100 100 100 100 99 100 100 94 12 64 100 66 98 75 73 54 80 20 43 3 4 4 35 100 100 99 15 5 5 5 3 0 0 0 0 0 0 0 0 0 0
100 99 100 100 100 100 100 100 99 100 100 100 100 100 100 100 100 73 92 72 24 5 5 23 82 100 100 5 7 5 6 5 1 2 2 1 0 0 0 0 0 0 0
98 100 100 100 100 100 100 100 100 100 100 99 100 100 100 100 93 94 68 36 5 42 31 56 91 84 100 100 97 89 19 0 0 5 7 7 5 0 0 0 0 0 0

GFSGL_prec_cloud_030.txt.gz
Cloud_Cover
0 0 0 0 0 0 0 0 0 0 0 0 0 0 0 0 0 0 0 0 0 0 0 1 1 5 5 5 5 26 5 6 57 54 95 33 35 97 32 99 91 7 5
0 0 0 0 0 0 0 0 0 0 0 0 0 0 0 0 0 0 0 0 0 0 0 5 5 5 5 7 5 5 20 5 18 8 5 53 25 94 99 70 7 5 5
0 0 0 0 0 0 0 0 0 0 0 0 0 0 0 0 0 0 0 0 0 0 0 1 5 41 22 16 29 98 16 7 37 12 5 5 50 5 8 58 100 6 71
0 0 0 0 0 0 0 0 0 0 0 0 0 0 0 0 0 0 0 0 0 0 2 5 17 71 100 79 100 88 99 19 94 8 10 5 27 54 29 59 100 78 78
5 0 0 0 0 0 0 0 0 0 0 0 0 0 0 0 0 0 0 0 0 4 5 5 5 95 100 100 100 100 100 14 98 10 5 5 8 59 50 35 96 100 89
5 0 0 0 0 0 0 0 0 0 0 0 0 0 0 0 0 0 0 0 1 49 6 5 5 84 100 100 100 100 98 100 99 53 5 5 9 91 29 76 100 80 5
91 23 38 6 0 0 0 0 0 0 0 0 0 0 0 0 0 0 0 5 5 14 5 5 5 85 100 100 100 100 100 100 99 100 39 64 68 37 16 5 5 5 5
100 100 97 50 26 3 0 0 0 0 0 0 0 0 0 0 0 0 0 5 5 7 5 5 69 100 100 95 100 100 100 100 100 79 65 15 43 8 7 5 5 11 19
99 90 100 100 84 4 0 1 0 0 0 0 0 0 0 0 3 0 1 4 5 1 10 99 100 100 100 100 100 100 100 100 100 91 82 100 24 5 5 14 43 61 11
0 64 98 100 79 11 59 69 95 0 5 0 11 92 81 20 46 3 2 1 38 25 28 100 100 100 100 100 76 100 100 100 100 97 99 52 72 10 19 5 5 0 0
5 13 66 100 40 100 76 99 100 51 100 81 52 79 100 81 78 53 4 11 66 100 100 100 100 100 100 97 100 100 100 83 97 19 99 97 88 5 11 5 5 0 0
75 58 100 100 67 83 10 64 89 99 100 100 95 94 96 85 100 100 100 100 100 100 100 100 100 100 100 100 98 100 88 16 9 100 100 96 5 20 5 0 4 0 0
82 91 61 100 19 100 63 100 82 100 97 88 74 100 100 100 100 100 100 100 100 100 100 100 100 100 100 100 100 100 99 42 75 99 98 91 87 6 5 5 3 0 0
68 100 60 47 46 3 16 78 100 91 100 100 100 100 100 100 100 100 100 100 100 100 100 100 100 100 100 99 93 100 100 98 92 99 100 100 100 10 6 5 0 0 0
1 2 4 0 0 0 53 86 100 100 100 100 100 100 100 100 100 100 100 100 100 100 100 100 100 100 100 90 82 100 100 100 100 100 99 91 98 100 80 4 0 0 0
98 45 11 10 72 100 100 100 100 100 100 100 100 100 100 100 100 100 100 100 100 100 100 100 100 100 100 100 100 100 90 100 98 100 68 100 100 96 82 0 0 0 0
46 100 100 100 100 100 100 100 100 100 100 100 100 100 100 100 100 100 100 100 100 100 100 100 100 100 100 100 100 100 100 100 100 100 100 100 100 100 87 0 0 0 0
4 100 100 100 100 100 100 100 100 100 100 100 100 100 100 100 100 100 100 100 100 100 100 100 100 100 100 98 100 100 100 100 100 100 100 100 100 99 2 0 0 0 0
50 100 100 100 100 100 100 100 100 100 100 100 100 100 100 100 100 100 100 100 100 100 100 100 100 100 100 100 100 100 100 100 100 100 100 98 53 4 0 0 0 0 0
57 100 100 100 100 100 100 100 100 100 100 100 100 100 100 100 100 100 100 100 100 100 100 100 100 100 100 100 100 100 95 80 39 11 3 4 0 0 0 0 0 0 0
74 100 100 100 100 100 100 100 100 100 100 100 100 100 100 100 100 100 100 100 100 100 100 100 100 100 100 100 100 99 10 1 4 5 2 0 0 0 0 0 0 0 0
45 100 100 100 100 100 100 100 100 100 100 100 100 100 100 100 100 100 100 100 100 100 100 100 100 100 100 100 86 9 5 0 2 3 3 0 0 0 0 0 0 0 0
13 98 100 100 100 100 100 100 100 100 100 100 100 100 100 100 100 100 100 100 100 100 100 100 100 100 90 65 1 0 3 3 0 2 4 0 0 0 0 0 0 0 0
95 98 100 100 100 100 95 100 100 100 100 100 100 100 100 100 100 100 100 100 100 100 100 100 100 100 100 7 6 0 0 2 2 4 0 3 1 0 0 0 0 0 0
78 100 100 100 100 100 100 100 100 100 100 100 100 100 100 100 100 100 100 100 100 100 100 100 100 100 72 40 78 2 5 5 5 5 5 5 0 0 0 0 0 0 0
90 100 99 100 94 100 100 100 100 100 100 100 100 100 100 100 100 100 100 99 100 100 100 100 96 100 100 100 21 5 5 67 100 32 4 1 1 0 0 0 0 0 0

GFSGL_prec_cloud_033.txt.gz
Cloud_Cover
0 0 0 0 0 0 0 0 0 0 0 0 0 0 0 0 0 0 0 0 0 0 0 0 3 2 5 5 4 0 1 5 100 92 5 23 14 6 10 5 5 5 37
5 5 4 0 0 0 0 0 0 0 0 0 0 0 0 0 0 0 0 0 0 0 0 0 0 5 5 5 5 5 5 61 57 6 51 100 60 6 98 68 5 5 12
43 6 0 0 0 0 0 0 0 0 0 0 0 0 0 0 0 0 0 0 0 0 0 0 5 50 5 35 62 82 38 19 7 94 5 100 100 64 100 27 5 5 5
0 1 2 0 0 0 0 0 0 0 0 0 0 0 0 0 0 0 0 0 0 0 0 5 5 9 5 85 45 75 99 70 100 31 5 100 54 5 32 5 5 5 13
0 0 0 0 0 0 0 0 0 0 0 0 0 0 0 0 0 0 0 0 0 3 4 9 6 13 35 5 68 100 100 100 96 5 96 5 5 4 3 5 5 5 6
0 1 10 0 0 0 0 0 0 0 0 0 0 0 0 0 0 0 0 0 3 3 0 5 39 6 8 0 5 97 100 6 0 4 68 6 5 3 0 5 5 6 96
20 5 47 100 81 13 0 0 0 0 0 0 0 0 0 0 0 0 0 0 4 0 0 0 5 8 4 5 16 6 34 4 4 4 92 13 6 3 5 22 100 100 52
93 30 33 100 94 8 24 28 2 0 0 0 0 0 0 0 0 0 0 0 0 0 1 42 4 0 28 11 98 76 5 5 5 22 57 46 8 5 7 100 100 100 93
1 1 18 70 59 67 47 48 5 5 32 51 4 0 0 5 0 0 0 0 0 6 92 37 1 61 40 18 98 92 14 66 78 92 96 71 98 30 100 96 97 100 100
0 0 0 6 6 5 67 66 97 49 100 100 37 27 6 9 16 78 94 80 3 99 19 25 78 100 100 99 100 100 100 100 100 100 92 100 100 100 100 100 100 100 100
0 0 0 0 3 12 84 90 100 93 96 66 100 52 24 87 44 99 38 67 97 72 83 95 100 100 100 100 100 100 100 100 100 100 10 100 100 100 100 100 100 100 100
0 0 0 0 0 5 26 25 100 97 97 47 29 28 64 95 73 83 91 97 75 98 100 100 100 100 100 100 100 100 100 100 100 100 75 100 100 100 100 100 100 100 64
0 0 0 0 0 0 5 79 87 100 55 40 59 99 9 85 100 100 100 88 77 100 100 100 100 100 100 100 100 100 100 100 100 100 100 100 100 100 100 100 99 100 2
0 0 0 5 5 5 7 43 100 100 100 90 32 25 85 100 100 100 100 100 100 100 100 100 100 100 100 100 100 100 100 100 100 100 100 100 100 100 100 100 100 76 0
0 0 5 22 15 5 5 50 100 99 33 27 100 88 100 100 100 100 100 100 100 100 100 100 100 100 100 100 100 100 100 100 100 100 100 100 100 100 100 100 100 58 0
0 0 1 2 6 0 6 67 96 90 98 100 100 100 100 100 100 100 100 100 100 100 100 100 100 100 100 100 100 100 100 100 100 100 100 100 100 100 100 100 99 5 0
0 91 98 25 0 59 100 100 100 96 100 100 100 100 100 100 100 100 100 100 100 100 100 100 100 100 100 100 100 100 100 100 100 100 100 100 100 100 100 100 56 5 0
3 99 96 98 100 99 100 100 100 100 100 100 100 100 100 100 100 100 100 100 100 100 100 100 100 100 100 100 100 100 100 100 100 100 100 100 100 100 100 100 6 9 0
2 71 100 100 100 100 100 100 100 100 100 100 100 100 100 100 100 100 100 100 100 100 100 100 100 100 100 100 100 100 100 100 100 100 100 100 100 100 94 63 27 36 2
99 88 100 100 100 96 57 95 100 100 100 100 100 100 100 100 100 100 100 100 100 100 100 100 100 100 100 100 100 100 100 100 100 100 100 100 100 100 100 36 92 11 0
100 37 90 80 66 18 32 80 99 72 80 100 100 100 100 100 100 100 100 100 100 100 100 83 100 100 100 100 100 100 100 100 100 100 100 100 100 91 43 7 90 0 0
100 100 81 56 61 34 22 46 68 95 100 100 100 100 100 100 100 100 100 100 100 100 97 94 79 100 100 100 100 100 100 100 100 100 100 52 68 62 30 5 28 0 0
35 98 83 95 94 57 76 61 73 96 100 100 100 100 100 100 100 100 100 100 100 100 100 72 10 99 90 100 100 73 91 100 99 97 60 31 62 44 38 18 4 0 0
18 32 32 87 97 84 84 99 100 100 100 100 100 100 100 100 100 100 100 100 100 100 100 100 100 98 100 94 100 100 99 90 86 58 8 5 84 100 24 1 5 5 0
6 22 56 28 23 61 48 13 55 98 100 100 100 100 100 100 100 100 100 100 100 100 100 100 100 100 100 100 93 53 15 13 73 35 100 55 98 78 45 5 5 5 1
79 84 46 40 50 80 46 64 100 95 100 100 100 100 100 100 100 100 99 97 79 100 100 100 100 100 100 100 99 42 20 28 29 55 100 96 10 40 67 90 52 5 0

GFSGL_prec_cloud_039.txt.gz
Cloud_Cover
5 4 0 0 0 0 0 0 0 0 0 0 0 0 0 0 0 0 0 0 0 0 0 0 0 0 5 5 4 0 3 5 0 5 0 1 5 3 3 19 95 100 97
5 5 0 0 0 0 0 0 0 0 0 0 0 0 0 0 0 0 0 0 0 0 0 0 0 0 2 5 0 0 3 5 0 0 0 19 5 5 9 5 88 100 100
0 3 3 0 0 0 0 0 0 0 0 0 0 0 0 0 0 0 0 0 0 0 0 0 0 0 0 0 0 1 5 0 0 1 5 2 1 8 7 9 80 100 100
0 0 0 0 0 0 0 0 0 0 0 0 0 0 0 0 0 0 0 0 0 0 0 0 0 0 0 0 0 4 2 0 0 3 5 9 5 7 40 71 93 100 100
0 0 0 4 0 0 0 0 0 0 0 0 0 0 0 0 0 0 0 0 0 0 0 0 0 0 4 5 15 8 5 5 5 5 40 58 6 17 75 90 100 100 100
0 0 0 5 0 2 0 5 2 5 4 0 0 0 0 0 0 0 0 1 3 51 47 2 25 63 5 28 49 30 5 5 9 100 100 100 60 88 6 33 30 65 100
1 0 0 4 5 5 5 4 5 5 5 0 0 0 0 2 32 33 28 3 17 11 68 80 57 88 58 3 0 60 100 86 87 100 100 70 86 49 60 100 100 80 100
0 0 0 0 3 5 8 1 5 5 5 0 0 0 0 0 0 2 0 0 0 21 73 5 2 1 65 91 12 98 100 100 99 100 100 100 91 92 100 100 100 100 100
0 0 0 0 1 2 7 4 5 5 5 0 0 0 0 0 4 0 0 2 51 84 94 62 0 4 57 100 100 100 100 100 100 100 100 100 100 100 100 100 100 100 100
4 0 0 0 0 0 0 0 0 2 5 5 5 0 0 0 0 0 0 5 59 49 62 100 59 0 50 100 100 100 100 100 100 100 100 100 100 100 100 100 100 100 100
0 0 0 0 0 0 0 0 0 0 0 0 0 0 0 0 1 1 13 19 96 88 99 100 60 6 47 100 100 100 100 100 100 100 100 100 100 100 100 100 100 100 100
0 0 0 0 0 0 0 0 0 0 0 0 0 0 0 0 4 35 21 11 47 95 31 5 5 40 93 98 100 100 100 89 100 100 100 100 100 100 100 100 100 100 100
0 0 0 0 0 0 0 0 0 2 0 0 0 0 0 4 36 38 13 14 95 98 72 30 2 46 100 92 100 100 100 100 100 100 100 100 100 100 100 100 100 100 100
0 0 0 0 0 0 0 0 0 0 5 1 0 0 0 2 2 34 31 7 56 31 41 9 7 100 100 100 100 100 100 100 100 100 100 100 100 100 100 100 100 100 100
0 0 0 0 0 2 0 3 15 4 18 7 13 10 6 23 14 18 0 2 0 0 23 79 100 100 100 100 100 100 100 100 100 100 100 100 100 100 100 100 100 100 100
0 0 0 0 0 0 5 5 75 54 99 100 100 54 0 66 75 91 100 89 90 92 99 86 100 100 100 100 100 100 100 100 100 100 100 100 100 100 100 100 100 100 100
0 0 0 1 0 0 0 0 0 36 100 100 100 100 100 97 100 100 100 100 100 97 100 100 100 100 100 100 100 100 100 100 100 100 100 100 100 100 100 100 100 100 100
0 45 1 0 0 0 0 0 0 0 55 77 75 72 86 95 100 100 100 100 100 100 91 100 100 100 100 100 100 100 100 100 100 100 100 100 100 100 100 100 100 100 100
0 0 0 0 0 0 0 0 0 17 12 0 2 34 76 100 100 100 100 100 100 100 100 100 100 100 100 100 100 100 100 100 100 100 100 100 100 100 100 100 100 100 100
1 24 1 1 0 5 10 1 12 24 19 0 0 0 55 52 26 100 100 100 100 100 100 100 100 100 100 100 100 100 100 100 100 100 100 100 100 100 100 100 100 100 100
0 0 2 14 0 6 0 18 5 24 24 28 8 17 100 38 89 100 97 91 79 99 100 100 100 100 100 100 100 100 100 100 100 100 100 100 100 100 100 100 100 100 100
8 12 13 9 4 12 9 29 49 23 48 64 66 50 100 33 49 45 53 58 30 2 72 100 100 100 100 100 100 100 100 100 100 100 100 100 100 100 100 100 100 100 100
14 38 3 1 36 92 94 99 100 99 100 90 66 76 27 66 23 38 61 52 93 96 9 100 100 100 100 100 100 100 100 100 100 100 100 100 100 100 100 100 100 100 100
100 100 84 84 100 98 90 77 47 64 74 100 100 100 100 100 54 36 49 70 51 31 98 100 100 100 100 100 100 100 100 100 100 100 100 100 100 100 100 65 72 96 100
97 97 100 100 99 84 31 40 100 97 53 99 80 100 100 66 34 8 8 96 60 90 56 100 100 100 100 100 100 100 100 100 100 100 100 100 100 100 88 100 100 100 100
100 100 100 100 100 100 100 100 85 100 89 73 100 98 87 99 96 100 100 62 26 31 16 21 17 60 100 100 100 100 100 100 100 100 100 100 100 100 100 100 100 100 100

GFSGL_prec_cloud_042.txt.gz
Cloud_Cover
0 0 0 0 0 0 0 0 0 0 0 0 0 0 0 0 0 0 0 0 0 0 0 0 0 0 0 0 0 0 0 0 5 5 5 0 5 5 5 0 3 1 0
0 0 0 1 0 0 0 0 0 0 0 0 0 0 0 0 0 0 0 0 0 0 0 0 0 0 0 0 0 0 0 2 74 1 5 1 0 5 5 4 4 1 0
0 0 0 5 6 1 0 0 0 0 0 0 0 0 0 0 0 0 0 0 0 0 0 0 0 0 0 0 1 1 4 54 17 0 2 8 4 5 5 5 5 0 4
0 0 2 5 39 6 0 0 0 0 0 0 0 0 0 0 0 0 0 0 0 0 0 2 15 10 5 5 68 5 4 0 0 100 77 80 62 17 15 4 5 2 0
0 0 0 0 2 2 0 0 0 0 0 0 0 0 0 0 0 0 0 0 14 5 5 5 30 0 5 22 1 0 0 0 54 100 12 92 94 78 70 39 7 3 5
0 0 0 0 0 0 0 5 0 2 0 0 0 0 0 0 0 0 0 4 5 0 0 0 0 0 0 0 0 2 39 38 100 100 100 100 100 95 100 29 29 17 35
0 0 0 0 4 2 4 0 0 0 3 2 4 0 0 0 0 0 0 0 0 0 0 0 0 2 5 0 0 0 3 100 100 100 100 97 100 100 90 21 89 100 34
0 0 0 0 0 0 0 2 4 3 2 2 5 4 0 0 0 0 0 0 0 0 0 1 5 33 82 7 3 6 88 100 100 100 100 100 100 100 100 100 100 100 92
0 0 0 0 0 0 0 2 5 1 1 0 4 5 0 0 0 0 0 0 0 0 0 5 99 51 6 7 9 70 100 100 100 100 100 100 96 100 100 100 100 100 100
0 0 0 5 5 5 0 0 0 0 0 0 0 0 0 0 4 4 17 10 0 0 47 44 68 99 32 5 5 98 100 100 100 100 100 100 100 100 100 100 100 100 100
5 3 1 5 5 5 5 4 4 0 0 4 2 6 0 0 0 1 50 4 5 5 5 5 22 73 53 34 23 89 100 100 100 100 100 100 99 100 100 100 100 100 100
0 2 11 3 2 0 0 0 0 0 3 0 1 2 1 2 19 18 18 55 27 67 5 5 5 2 25 66 12 47 100 100 100 100 100 100 100 100 100 100 100 100 100
0 0 0 0 0 0 0 0 0 0 4 6 2 19 22 19 32 41 32 10 21 99 99 59 0 32 45 42 5 30 100 100 100 100 100 100 100 100 100 100 100 100 100
0 0 0 0 0 0 0 0 0 0 0 0 18 9 0 1 0 0 0 6 55 28 52 29 52 65 3 11 12 84 100 100 100 100 100 100 100 100 100 100 100 100 100
0 0 0 0 0 0 0 6 0 0 13 4 0 0 5 13 14 36 35 80 39 5 32 0 30 65 84 11 18 13 85 100 100 100 100 100 100 100 100 100 100 100 100
0 0 0 0 0 0 5 0 77 83 99 100 100 89 99 79 100 100 67 84 66 44 6 0 22 89 98 80 81 76 97 99 100 100 100 100 100 100 100 100 100 100 100
0 0 0 0 0 0 2 0 0 87 100 100 100 100 99 97 100 100 100 100 100 83 24 0 18 86 100 100 96 100 100 100 100 100 100 100 100 100 100 100 100 100 100
0 3 0 0 0 1 17 58 99 65 16 2 75 69 97 100 100 100 100 100 83 95 72 100 99 100 100 100 100 100 100 97 100 100 100 100 100 100 100 100 100 100 100
0 0 0 0 0 0 0 0 0 0 0 0 0 33 54 100 100 100 100 100 100 100 100 100 100 100 100 100 100 100 100 100 100 100 100 100 100 100 100 100 100 100 100
0 0 1 0 0 0 0 0 0 0 0 0 0 0 0 23 5 90 31 54 96 98 100 100 100 100 100 92 91 100 100 100 100 100 100 100 100 100 100 100 100 100 100
0 0 0 0 0 0 0 0 0 0 10 1 2 17 100 10 1 21 27 44 21 16 11 12 29 10 64 41 75 100 94 100 100 100 100 100 100 100 100 100 100 100 100
0 7 26 12 10 0 23 78 95 97 74 35 87 72 95 57 26 17 11 24 1 3 26 27 43 35 47 50 62 100 100 100 100 100 100 100 100 100 100 100 100 100 100
100 100 88 98 3 27 5 0 0 4 42 92 98 92 100 51 45 69 76 50 6 19 12 34 40 55 26 46 36 98 99 100 100 100 100 100 100 100 100 100 100 100 100
100 79 60 77 100 100 78 70 9 31 79 77 96 100 99 77 67 18 19 20 12 98 28 46 41 77 35 16 56 84 100 100 100 100 100 100 100 100 100 100 100 100 100
83 60 6 88 89 10 8 43 42 99 100 100 100 100 96 100 98 100 32 13 24 14 9 38 26 40 25 5 26 100 100 100 100 100 100 100 100 100 100 100 100 100 100
96 79 73 45 52 38 34 62 82 67 76 89 100 98 99 99 77 83 70 67 68 96 51 22 7 5 5 22 76 100 100 91 98 12 26 100 100 100 100 100 100 100 100

GFSGL_prec_cloud_045.txt.gz
Cloud_Cover
0 0 0 0 0 0 0 0 0 0 0 0 0 0 0 0 0 0 0 0 0 0 0 0 0 0 0 0 0 0 0 0 5 5 7 0 2 4 56 41 96 100 100
0 0 0 0 0 0 0 0 0 0 0 0 0 0 0 0 0 0 0 0 0 0 0 0 0 0 0 0 2 0 5 5 0 0 0 0 4 41 62 81 32 17 96
0 0 0 0 0 5 4 0 0 0 0 0 0 0 0 0 0 0 0 0 0 0 0 0 0 0 0 1 0 0 0 0 0 0 100 99 34 5 12 8 5 44 89
0 0 0 0 0 4 10 6 0 0 0 0 0 0 0 0 0 0 0 0 0 0 0 0 0 0 0 0 0 0 0 0 0 18 100 100 100 29 5 32 12 50 39
0 0 0 0 0 0 4 16 56 41 5 0 0 0 0 0 0 0 0 0 0 0 0 0 0 0 0 0 0 3 0 0 0 99 100 100 93 100 92 81 100 89 85
0 0 0 0 0 0 3 5 5 5 0 0 0 0 0 0 0 0 0 0 0 0 0 0 0 0 0 0 5 5 5 2 38 100 74 100 96 100 100 100 100 100 100
0 0 0 1 0 0 0 0 0 0 0 0 0 0 1 0 0 0 0 0 0 0 0 0 0 1 2 4 3 32 48 5 100 100 100 100 100 100 95 100 100 100 98
0 0 5 5 4 1 0 0 0 1 0 0 0 2 4 2 0 0 0 0 0 0 0 0 1 0 30 40 38 49 5 3 100 100 100 100 100 100 100 100 95 100 50
0 0 0 0 3 2 0 0 0 0 5 5 2 0 0 2 0 0 0 0 0 2 4 0 2 30 79 83 42 6 78 50 100 100 100 94 16 100 100 100 100 100 100
4 0 0 0 0 0 0 2 2 1 0 3 5 13 2 0 2 5 42 5 5 79 97 31 2 5 5 100 96 55 3 100 100 100 100 100 97 25 42 95 99 100 100
0 0 0 3 0 1 2 5 5 21 10 85 94 9 0 0 6 33 6 0 0 0 0 0 4 4 5 20 96 82 5 79 81 100 100 100 96 10 66 64 100 100 100
58 21 5 5 5 5 5 5 7 78 100 21 5 2 0 0 35 45 38 55 35 42 6 6 18 6 33 29 25 2 5 38 66 85 100 100 100 100 100 100 100 86 95
2 5 5 5 5 5 6 53 18 29 5 0 12 21 30 23 2 69 68 53 92 93 89 93 99 100 100 100 93 21 33 83 58 100 100 100 95 100 100 100 100 53 94
0 0 0 0 0 0 0 0 0 0 0 23 37 13 3 3 12 10 15 59 67 36 28 15 34 39 7 33 100 100 100 100 100 100 100 100 100 100 100 100 100 99 100
0 0 0 0 3 0 8 42 2 0 12 0 16 4 30 5 22 60 44 22 1 23 92 69 48 57 29 47 66 90 99 100 99 100 100 100 100 100 100 100 100 100 100
0 0 0 0 0 0 0 51 85 61 91 77 54 86 95 89 100 100 100 100 97 97 58 19 29 31 64 78 96 95 92 100 100 97 100 100 100 100 100 100 100 100 100
0 0 0 0 0 0 0 0 36 49 95 100 85 100 100 100 100 100 100 100 100 92 14 14 16 14 35 64 74 98 100 100 100 100 99 100 100 100 100 100 100 100 100
14 9 12 0 0 0 1 0 4 12 15 34 100 100 100 100 100 100 100 90 55 79 50 34 50 93 100 100 100 99 100 99 100 100 100 100 100 98 100 100 100 100 100
99 100 83 6 0 0 3 9 27 86 76 16 39 60 100 100 100 100 100 66 97 97 100 100 100 100 79 90 44 41 48 73 91 100 100 100 100 100 100 100 100 100 100
15 100 92 1 3 16 43 94 88 68 76 43 42 20 0 24 0 1 10 11 9 1 0 2 3 10 30 25 34 38 67 90 76 97 68 98 100 100 100 100 100 100 100
0 4 25 79 45 13 23 34 42 25 30 15 0 16 99 0 0 0 0 0 0 0 2 1 6 22 18 33 77 98 100 100 91 100 100 100 100 100 100 100 100 100 100
0 0 0 0 4 2 0 0 0 1 0 0 0 13 100 49 2 0 2 0 0 9 0 1 9 8 23 37 74 97 98 98 67 96 100 97 81 55 100 100 100 100 100
57 12 81 73 0 0 2 0 0 0 0 9 82 100 91 84 98 50 6 0 0 2 34 0 2 26 47 17 25 22 34 37 53 82 86 100 88 100 100 100 100 100 100
100 100 89 100 90 12 1 3 27 18 8 76 100 99 95 100 84 28 84 39 45 2 0 6 4 25 18 7 2 0 0 0 2 6 4 4 2 77 100 100 100 100 100
95 98 100 100 100 31 34 15 45 98 100 100 100 100 100 99 100 85 70 1 0 0 8 70 29 7 5 5 20 16 5 29 11 65 100 100 100 100 76 100 100 100 100
100 99 93 100 100 74 49 43 70 100 100 100 100 100 100 100 85 67 63 34 10 9 14 46 95 22 4 8 18 88 93 44 100 100 100 100 100 100 100 100 100 100 98

GFSGL_prec_cloud_048.txt.gz
Cloud_Cover
0 0 0 0 0 0 0 0 0 0 0 0 0 0 0 0 0 0 0 0 0 0 0 0 0 0 0 0 0 2 0 3 0 0 0 0 0 0 0 5 5 20 5
0 0 0 0 0 0 0 0 0 0 0 0 0 0 0 0 0 0 0 0 0 0 0 0 0 0 0 0 0 0 0 0 0 0 0 1 5 96 96 86 98 21 5
0 0 0 0 0 0 0 0 0 0 0 0 0 0 0 0 0 0 0 0 0 0 0 0 0 0 0 0 0 0 0 0 2 40 0 16 98 52 9 5 28 33 39
0 0 0 0 0 0 0 0 0 1 0 0 0 0 0 0 0 0 0 0 0 0 0 0 0 0 0 0 0 4 9 5 47 19 39 100 100 100 80 21 5 5 8
0 0 0 0 0 0 0 0 0 5 5 18 4 0 4 5 2 0 0 0 0 0 0 0 0 0 0 0 0 0 2 5 12 100 100 100 100 80 46 9 26 100 100
0 0 0 0 0 0 0 0 0 1 5 5 5 5 5 0 0 0 0 0 0 0 0 0 0 0 0 0 0 0 0 0 0 86 100 100 66 100 100 31 7 84 100
0 0 0 0 0 0 0 0 0 0 0 0 1 0 0 0 0 0 0 0 0 0 0 0 0 0 0 1 2 88 6 5 5 16 100 99 84 100 100 28 35 52 98
5 5 0 0 0 3 0 0 0 0 0 0 0 0 0 5 0 0 0 0 0 0 0 0 0 0 4 88 84 15 57 12 10 8 81 100 95 97 100 64 98 91 100
0 5 30 5 8 59 5 0 0 0 0 5 5 1 0 5 5 0 0 0 0 0 0 1 3 5 53 5 5 5 5 23 98 5 33 97 100 100 82 14 98 22 100
0 3 5 86 84 96 85 5 0 0 0 0 0 0 0 0 3 4 12 5 5 18 38 4 30 5 4 8 16 62 6 52 81 65 5 16 90 96 98 42 19 57 84
0 0 9 5 100 100 35 5 2 4 4 2 3 2 0 5 5 25 14 4 4 0 0 0 5 30 41 60 94 61 1 44 19 39 49 17 8 54 96 100 100 62 100
58 67 96 100 95 4 2 1 3 3 4 100 92 11 6 5 17 60 34 47 4 70 51 23 8 1 0 42 81 83 100 100 100 100 100 100 100 100 100 100 100 100 100
38 13 90 66 6 5 5 5 5 5 5 5 10 84 14 5 1 71 66 34 43 96 99 95 98 44 95 100 100 100 100 100 100 100 100 100 100 100 100 100 100 100 100
18 5 6 5 5 18 5 5 5 5 18 5 22 6 5 5 0 2 47 100 94 100 35 29 17 93 96 97 46 45 77 100 100 99 100 100 100 100 100 100 100 100 100
0 2 3 5 4 14 80 56 19 28 23 5 5 0 1 1 5 79 86 70 65 53 41 75 100 73 71 68 70 78 76 78 96 34 89 100 100 100 100 100 100 100 100
0 0 2 6 8 50 82 100 98 64 60 97 97 58 44 83 100 100 100 100 100 100 99 85 94 51 48 37 51 90 99 100 100 100 94 100 100 100 100 100 100 100 100
0 0 0 14 20 46 14 25 75 25 52 79 64 61 76 72 92 100 100 100 100 100 32 45 28 29 28 48 68 87 100 100 100 100 100 100 100 100 100 100 100 100 100
0 1 0 2 0 19 17 0 8 0 0 4 42 91 100 100 100 100 100 99 58 88 71 56 88 96 95 84 57 32 90 78 99 100 100 100 100 100 100 80 100 100 100
0 0 0 0 2 14 34 30 3 67 58 100 76 82 100 100 100 100 100 36 94 87 87 30 5 2 6 14 21 30 45 62 72 100 100 99 76 50 98 68 100 100 100
5 5 0 0 19 82 52 82 98 100 100 100 100 90 92 90 54 12 54 85 34 25 86 4 0 2 3 2 22 36 75 100 100 100 100 99 29 24 66 99 100 100 100
0 4 0 0 77 99 94 100 100 100 100 100 100 100 100 70 81 59 85 100 99 24 1 0 0 8 22 36 50 45 77 50 35 15 10 33 50 76 90 73 100 100 100
5 5 8 7 0 2 0 2 90 100 100 100 100 100 100 73 72 96 77 17 2 0 7 0 4 21 30 48 62 98 61 66 52 68 64 90 92 100 100 100 97 100 100
0 0 21 91 46 5 5 5 15 29 38 35 36 36 65 32 37 65 73 69 47 46 55 72 22 23 21 27 29 43 52 44 52 93 100 100 66 100 100 79 78 99 56
10 80 30 90 97 25 25 48 62 47 41 54 74 76 74 28 40 96 57 0 2 92 41 99 96 100 88 26 19 13 7 6 18 25 52 80 23 52 99 69 6 14 0
44 36 31 81 92 100 80 71 60 80 99 96 100 100 100 98 71 82 59 37 16 0 0 44 62 77 98 100 69 19 8 10 16 44 23 28 21 99 100 95 60 78 100
100 100 100 97 100 100 100 100 100 100 96 100 100 100 100 100 100 100 100 76 57 36 22 28 12 2 4 5 6 30 56 32 52 99 73 64 74 98 82 100 100 71 77

GFSGL_prec_cloud_051.txt.gz
Cloud_Cover
0 0 0 0 0 0 0 0 0 0 0 0 0 0 0 0 0 0 0 0 0 0 0 0 0 0 0 0 0 0 0 0 5 5 5 0 0 100 100 97 80 95 34
0 0 0 0 0 0 0 0 0 0 0 0 0 0 0 0 0 0 0 0 0 3 0 5 0 0 0 0 0 0 0 4 3 4 51 29 42 100 100 98 84 100 89
0 0 0 0 0 0 0 0 0 0 0 0 0 0 0 0 0 0 0 0 0 0 0 0 0 0 0 1 1 0 0 0 0 3 5 13 41 8 21 6 6 14 96
0 0 0 0 0 0 0 0 0 0 0 0 0 0 0 0 0 2 5 3 0 0 0 0 0 0 0 0 0 0 0 0 0 0 0 98 100 5 62 17 48 22 100
0 0 0 0 0 0 0 0 0 0 0 0 0 5 5 5 20 71 4 0 0 0 0 0 0 0 0 0 0 0 0 1 1 0 0 7 68 100 25 35 20 53 97
0 0 0 0 0 0 0 0 0 0 0 0 0 0 5 86 65 5 0 0 0 0 0 0 0 0 0 0 0 0 3 5 4 0 4 5 76 90 100 36 5 45 92
0 0 0 0 0 0 0 2 3 0 0 0 0 0 0 3 1 0 0 0 0 0 0 0 0 0 0 0 0 5 5 5 5 4 5 4 0 0 25 99 67 5 49
0 0 0 0 0 0 0 0 15 16 0 0 0 0 0 0 0 0 0 0 0 0 0 0 0 0 1 1 5 5 5 58 85 13 3 9 6 8 0 24 10 85 63
0 2 0 0 0 4 5 3 2 2 24 2 0 2 0 2 0 0 3 0 0 4 0 0 0 5 5 5 5 5 5 80 100 78 26 45 97 100 100 100 89 96 100
1 4 40 95 27 8 89 16 5 1 0 0 4 2 0 0 0 0 14 0 0 3 0 0 0 4 5 6 40 42 19 23 49 20 20 6 94 100 100 100 100 100 100
0 0 82 61 92 54 56 97 5 5 0 4 5 5 4 5 4 19 9 0 0 1 0 4 4 0 10 33 51 60 45 20 38 88 98 97 99 92 89 100 100 100 100
7 1 3 70 22 24 80 6 3 5 5 5 5 0 4 8 33 70 32 63 0 5 0 0 0 0 14 77 75 92 100 100 100 100 99 100 100 100 100 81 85 72 98
6 5 2 87 100 100 100 86 88 98 77 3 21 97 16 90 90 84 66 34 40 12 4 5 97 97 52 46 28 79 94 100 100 100 100 100 100 92 100 100 100 100 100
4 5 12 71 59 98 90 18 30 8 72 7 5 5 5 6 6 12 77 86 81 98 100 100 95 94 99 83 82 88 95 100 100 100 72 45 64 100 100 100 100 100 100
5 5 5 8 59 84 100 84 100 100 100 100 84 59 70 78 14 55 43 28 58 100 100 100 100 100 100 100 100 100 94 99 98 56 99 100 100 100 100 100 100 100 100
0 0 5 4 9 93 100 100 100 100 100 100 100 63 89 79 100 100 100 100 100 100 100 100 99 100 100 87 70 53 58 96 100 99 100 100 100 100 100 100 45 99 100
0 0 0 18 5 100 99 100 100 61 100 100 100 100 100 100 100 100 100 100 100 100 100 95 42 28 20 27 37 48 87 100 100 85 78 96 100 100 49 64 62 82 88
0 42 3 0 0 38 44 38 30 19 15 8 92 100 94 96 100 100 100 100 98 100 80 74 96 42 38 54 94 77 63 37 23 40 87 55 100 79 84 96 60 100 34
0 0 0 0 4 33 62 41 21 18 27 70 84 98 100 100 100 100 100 100 100 100 96 85 21 26 20 38 19 16 81 80 86 100 100 100 97 54 17 23 37 98 75
0 12 0 0 1 22 82 100 46 74 68 88 100 100 95 100 90 100 100 100 100 42 10 3 0 5 28 100 100 65 86 100 100 100 100 84 87 31 74 34 63 88 76
13 0 0 0 0 3 30 85 94 74 55 100 100 96 100 100 100 100 100 96 3 5 6 8 40 66 94 100 53 100 100 100 32 53 30 20 34 68 90 99 100 100 100
12 6 3 1 1 6 20 45 82 99 100 100 100 98 100 100 97 100 74 58 68 57 95 100 100 100 100 83 100 53 87 98 84 29 31 46 42 100 100 100 100 100 100
0 0 6 15 11 30 31 26 28 83 100 100 99 95 67 100 100 100 90 100 100 80 100 100 100 100 100 99 70 82 100 91 67 96 99 100 100 100 100 100 100 95 91
4 0 0 0 9 34 54 82 97 99 100 100 100 55 60 72 77 100 89 80 82 68 90 100 96 82 99 100 76 41 7 4 18 47 92 100 100 100 100 100 100 100 97
46 48 64 78 89 98 100 100 100 100 100 100 89 65 72 100 100 93 74 55 44 45 47 19 28 80 96 94 67 2 0 0 0 46 46 30 92 53 56 87 25 5 24
100 100 100 100 100 100 100 100 100 100 100 100 100 100 100 100 100 100 100 100 100 100 100 100 99 83 69 42 36 10 9 21 40 69 66 37 41 55 31 13 6 28 68

GFSGL_prec_cloud_054.txt.gz
Cloud_Cover
0 0 0 0 0 0 0 0 0 0 0 0 0 0 0 0 0 0 0 0 0 0 0 0 0 0 0 0 0 0 0 0 0 0 0 4 5 5 48 12 66 90 100
0 0 0 0 0 0 0 0 0 0 0 0 0 0 0 0 0 0 0 0 0 5 0 0 0 0 0 0 0 0 0 0 0 0 0 1 5 5 5 6 18 23 69
1 0 0 0 0 0 0 0 0 0 0 0 0 0 2 0 0 0 1 3 5 0 0 0 0 0 0 0 0 0 0 0 0 0 0 0 0 3 16 9 95 76 60
1 0 0 0 0 0 0 0 0 0 0 0 0 0 0 0 0 41 20 5 5 0 0 0 0 0 0 0 0 0 0 0 0 0 0 0 5 2 32 16 76 100 100
0 0 0 0 0 0 0 0 0 0 0 0 0 0 3 5 45 16 5 15 5 0 0 0 0 0 0 0 0 0 0 1 3 5 5 5 5 65 40 5 5 30 97
0 0 0 0 0 0 0 0 0 0 0 0 1 5 5 5 5 0 5 14 4 0 0 0 0 0 2 0 0 0 0 0 0 0 0 2 83 100 100 8 94 100 100
0 0 0 0 0 0 0 0 0 0 0 0 0 2 5 0 0 0 2 0 0 0 0 0 0 0 1 0 15 12 7 0 4 5 2 4 15 100 100 100 100 100 100
0 0 0 0 0 0 0 0 0 0 0 0 0 5 5 0 0 0 0 0 0 0 0 0 0 0 0 1 4 5 5 3 6 4 3 3 5 5 24 100 100 100 100
0 0 0 0 0 0 0 0 0 15 15 0 2 5 0 0 0 0 4 0 0 0 0 0 0 4 3 1 0 0 0 1 86 32 5 0 0 2 7 84 100 100 100
0 0 0 0 0 0 0 0 0 1 10 21 17 4 1 0 3 0 20 0 0 0 0 0 2 5 5 0 0 0 28 22 15 12 7 6 14 2 20 98 100 100 100
0 0 0 0 1 5 5 5 5 5 6 32 37 23 12 0 4 4 8 0 0 0 2 1 5 33 15 31 28 7 30 4 7 47 49 78 100 100 97 100 100 100 100
45 0 3 58 5 12 90 86 49 27 7 16 16 21 19 9 50 61 24 60 5 0 1 5 5 66 34 41 52 66 99 100 100 100 100 100 100 100 100 100 100 100 100
5 95 1 3 5 5 17 100 58 96 5 24 42 36 32 23 5 84 78 35 46 22 3 5 5 55 59 67 93 59 100 100 100 100 100 99 100 100 100 100 100 100 100
11 72 44 0 5 64 8 90 21 4 4 5 11 7 73 87 64 5 74 100 97 76 41 11 30 78 100 100 72 69 76 97 100 100 100 100 100 100 100 100 92 90 99
53 96 98 40 14 7 82 19 75 56 90 25 25 16 8 43 80 44 60 60 73 69 69 99 100 100 100 100 100 100 100 100 100 100 100 100 100 100 100 65 80 26 28
28 14 10 7 33 80 100 100 100 99 100 100 100 66 56 82 100 100 100 100 100 100 100 100 100 100 100 100 100 100 100 95 100 100 100 100 100 100 100 93 97 34 76
2 12 7 19 0 100 100 100 100 82 100 100 100 100 100 100 100 100 100 100 100 100 100 100 100 100 84 63 53 65 97 100 82 100 98 100 100 98 97 31 59 63 31
0 87 1 5 4 13 99 97 98 99 61 60 100 100 100 100 100 100 100 94 98 100 99 100 100 100 100 100 47 33 27 10 14 100 100 98 99 100 62 36 37 49 57
0 0 0 0 0 32 55 82 47 22 2 5 99 100 100 100 100 100 100 97 100 100 100 100 100 100 53 27 24 13 14 51 100 93 99 48 90 95 31 0 13 100 100
2 19 34 0 1 0 55 100 100 63 23 11 8 31 77 99 88 100 88 100 100 100 100 100 79 10 0 8 27 42 80 100 100 100 100 98 56 97 28 70 29 92 59
9 0 7 0 0 0 22 100 100 100 96 84 62 65 99 68 98 99 100 100 100 100 100 63 26 29 44 57 85 100 100 100 100 100 100 49 42 53 93 91 90 44 100
99 21 0 3 0 0 6 67 100 100 91 86 80 100 100 66 48 80 100 100 100 100 100 100 78 100 100 100 100 100 100 100 100 96 69 73 73 86 87 97 100 100 97
100 36 0 0 0 51 34 46 98 100 71 41 66 85 100 100 59 67 96 90 65 100 96 100 100 100 100 100 100 100 100 100 100 100 100 100 100 90 92 61 100 100 99
99 46 2 1 16 27 50 76 94 98 100 100 100 90 100 100 84 54 24 60 100 100 100 100 100 100 100 100 100 100 84 23 2 2 39 99 100 100 100 97 100 100 100
100 99 98 96 91 100 100 100 100 100 100 100 100 100 100 93 72 73 96 100 100 84 74 78 100 97 78 24 2 23 15 0 0 2 0 20 64 89 92 99 100 99 94
100 100 100 100 100 100 100 100 100 100 100 100 100 100 100 100 100 100 100 100 100 100 100 100 94 81 87 89 93 94 81 17 11 60 50 68 92 82 76 50 37 60 47

GFSGL_prec_cloud_057.txt.gz
Cloud_Cover
0 0 0 0 0 0 0 0 0 0 0 0 0 0 0 0 0 0 0 0 0 0 1 0 0 0 0 0 0 0 0 0 0 0 0 0 0 0 0 3 31 24 84
4 0 0 0 0 0 0 0 0 0 0 0 0 0 0 0 0 5 0 0 0 1 2 0 0 0 0 0 0 0 0 0 0 0 0 2 0 0 0 5 5 45 59
35 14 0 0 0 0 0 0 0 0 0 0 0 0 0 0 2 5 1 0 5 3 5 0 0 0 0 0 0 0 0 0 0 0 0 0 5 5 5 5 53 37 67
100 97 50 0 0 0 0 0 0 0 0 0 0 0 4 5 5 5 5 5 3 0 5 4 0 0 0 0 0 0 0 0 0 0 3 5 58 100 48 35 11 13 99
9 27 14 5 0 0 0 0 0 0 0 0 0 0 3 5 5 5 28 5 0 4 5 5 0 0 0 0 0 0 0 0 0 0 4 2 30 88 39 100 40 5 100
0 0 0 1 5 0 0 0 0 0 0 0 0 0 5 5 5 5 18 5 0 0 0 0 0 0 7 1 2 0 0 0 0 0 0 1 2 2 42 65 51 77 8
0 0 0 0 0 0 0 0 0 0 0 0 0 0 3 1 4 5 7 5 0 0 0 0 0 0 0 0 15 27 22 3 0 0 0 4 0 0 5 16 34 22 33
0 0 0 0 0 0 0 0 0 0 0 0 0 0 0 3 4 5 5 5 0 0 0 0 0 0 0 0 2 5 5 0 1 2 0 0 1 0 5 44 44 71 90
0 0 0 0 0 0 0 0 0 0 0 0 0 0 0 0 2 5 9 3 0 0 0 0 0 0 0 4 2 5 5 5 0 0 0 4 5 5 26 77 100 100 100
0 0 0 0 0 0 0 0 0 0 0 0 0 0 0 0 4 0 35 0 0 0 0 0 0 1 0 0 3 5 5 5 31 23 58 75 62 8 38 30 57 100 100
0 0 0 0 0 0 0 0 0 0 0 12 4 0 0 0 0 35 12 2 0 0 0 0 0 0 21 34 48 7 20 16 47 74 73 95 98 98 83 74 100 89 100
0 0 0 0 0 0 0 0 0 0 1 1 10 14 6 17 47 70 32 74 4 0 4 2 3 3 33 44 52 35 81 92 53 84 100 100 100 96 100 100 100 100 100
0 0 0 0 0 0 0 0 2 12 5 19 8 5 5 5 7 80 88 29 37 9 8 4 8 45 82 69 93 24 79 84 96 100 100 100 100 98 99 100 100 100 98
5 0 0 0 0 4 1 5 5 5 50 6 5 5 5 5 5 5 6 57 77 48 6 25 40 80 97 100 78 42 97 100 100 100 100 87 100 100 100 100 100 33 70
0 4 53 5 1 4 16 6 6 5 16 5 65 11 5 5 5 5 14 5 6 18 31 74 100 100 100 100 100 100 100 100 100 100 100 100 99 94 100 99 67 62 100
27 39 58 99 99 10 0 7 91 89 100 100 100 60 5 79 95 100 100 100 100 100 80 100 100 100 100 100 100 100 100 100 100 100 89 82 100 100 100 84 28 46 100
5 88 86 100 100 100 100 4 0 36 100 100 100 100 100 97 100 100 100 100 100 100 100 100 100 100 100 100 100 100 100 100 100 99 100 86 80 80 94 8 28 75 100
92 100 100 100 100 100 100 68 38 4 3 4 81 96 100 100 100 100 100 100 100 100 100 100 100 100 100 100 100 100 100 79 60 47 57 42 24 26 40 50 64 76 100
76 100 100 100 100 100 100 18 5 20 26 27 29 77 100 100 100 100 100 100 100 100 100 100 100 100 100 100 100 85 23 20 30 0 0 3 49 100 73 50 54 50 71
2 7 78 10 16 29 23 39 88 89 63 42 4 4 93 100 100 99 83 94 100 100 98 91 100 100 100 100 19 1 16 20 37 95 79 65 91 96 69 72 69 100 78
6 44 5 5 10 4 4 1 45 86 72 37 52 20 99 15 44 80 92 34 72 88 67 74 69 67 58 68 80 59 30 21 34 49 100 94 92 100 100 99 97 100 96
31 96 99 95 27 5 5 1 0 23 53 27 23 96 100 100 70 12 75 98 99 100 100 89 87 94 99 94 88 91 94 74 63 96 100 100 100 100 96 96 94 81 99
100 100 100 94 5 20 6 0 0 2 36 37 2 64 81 100 100 99 98 97 93 100 100 100 82 70 78 87 95 100 100 100 100 100 100 100 100 100 100 100 97 84 59
99 100 89 88 68 5 5 40 47 80 79 84 52 37 39 41 51 100 100 98 84 87 77 93 100 99 98 84 100 100 100 91 18 17 47 97 100 100 100 100 92 100 76
98 96 100 100 100 100 100 100 100 100 100 100 98 69 60 56 57 77 100 100 100 100 100 100 100 100 100 100 28 3 53 32 31 44 2 0 63 99 100 98 90 98 100
100 100 100 100 100 100 100 100 100 100 100 100 100 100 98 100 82 99 100 100 100 100 100 100 100 100 78 29 4 67 86 65 47 60 98 89 53 81 64 81 98 78 78

GFSGL_prec_cloud_060.txt.gz
Cloud_Cover
0 0 0 0 0 0 0 0 0 0 0 0 0 0 0 0 0 0 0 2 14 21 11 4 0 0 0 0 0 0 0 0 0 0 0 3 3 2 1 14 99 100 89
0 0 0 0 0 0 0 0 0 0 0 0 0 0 0 0 0 0 0 0 0 3 5 0 0 0 0 0 0 0 0 0 0 0 0 4 9 5 5 10 100 100 100
0 5 4 0 0 0 0 0 0 0 0 0 0 0 0 0 0 0 0 0 0 5 0 0 0 0 0 0 0 0 0 0 0 0 0 0 71 5 98 67 94 100 100
5 4 0 0 0 0 0 0 0 0 0 0 0 0 0 0 0 0 0 0 0 4 3 0 0 0 0 0 0 0 0 0 0 0 1 5 2 7 32 100 93 99 41
0 0 0 4 0 0 0 0 0 0 0 0 0 0 0 0 0 0 0 0 0 0 3 0 0 0 0 0 0 0 0 0 0 0 0 2 4 0 0 19 100 100 100
0 0 5 48 5 5 0 0 0 0 0 0 0 0 0 0 0 0 0 0 0 0 0 0 0 0 0 1 0 5 5 0 0 0 0 0 4 0 0 0 3 80 100
0 0 0 0 5 5 5 5 5 0 0 0 0 0 0 0 0 0 5 4 0 0 0 4 0 0 0 0 9 25 6 5 10 0 5 0 0 0 0 0 0 0 61
0 0 0 0 0 0 0 0 0 2 0 0 0 0 0 0 0 0 2 4 0 0 0 5 0 0 0 0 0 0 3 5 5 5 0 3 6 0 29 39 33 41 24
0 0 0 0 0 0 0 0 0 0 0 0 0 0 0 0 0 0 4 2 0 0 0 0 0 0 0 1 0 0 1 5 5 5 5 4 4 5 34 76 73 98 79
4 0 0 0 0 0 0 0 0 0 0 0 0 0 0 0 0 0 43 0 0 0 0 0 0 0 0 0 0 0 3 5 5 60 68 56 87 97 94 15 57 100 100
5 4 0 0 0 0 0 0 0 0 0 0 0 0 0 0 0 2 47 0 0 0 0 0 0 0 0 0 47 0 3 18 13 76 91 78 84 81 76 99 48 48 100
5 4 0 0 0 0 0 0 0 0 0 0 0 0 0 0 11 48 22 72 1 0 5 0 0 0 2 5 44 0 5 53 42 88 90 94 82 31 79 59 63 54 100
5 7 0 0 0 0 0 0 0 0 0 0 0 0 0 0 0 56 63 27 43 12 0 5 32 7 28 66 95 20 72 37 87 80 98 98 55 92 93 100 100 100 100
12 26 0 0 0 0 0 1 0 0 0 0 0 1 0 0 0 5 5 22 67 44 5 8 4 51 95 95 96 61 31 89 93 99 100 99 100 100 100 100 99 100 58
71 20 7 0 0 14 4 5 0 0 18 5 5 5 5 5 4 5 5 30 5 2 0 5 5 21 45 87 90 68 99 100 100 94 100 100 100 100 100 98 68 29 0
39 19 0 0 16 7 12 11 79 65 100 100 100 55 12 56 74 43 68 97 100 98 18 0 8 93 100 100 100 100 100 100 100 100 100 100 99 100 99 82 4 0 0
83 73 70 50 34 33 16 58 12 33 100 100 100 100 100 97 100 100 100 100 100 83 14 17 31 42 63 100 100 100 100 100 100 100 100 100 100 100 41 0 0 0 5
100 97 60 30 3 45 6 6 31 34 100 100 100 77 97 100 100 100 100 86 33 97 96 77 88 100 100 100 100 100 98 97 99 100 96 88 35 0 0 0 0 0 5
100 100 100 84 8 21 81 98 100 100 100 100 100 97 82 100 100 100 100 42 91 74 60 90 95 100 100 100 99 92 100 100 100 79 35 2 0 0 0 0 2 28 43
100 100 100 100 100 100 100 100 100 100 100 100 100 100 100 98 78 100 100 100 99 100 80 72 61 44 100 33 85 100 99 77 6 0 0 0 0 0 0 0 1 36 59
100 100 17 97 99 100 100 100 100 100 100 100 100 100 100 100 69 93 100 100 100 100 97 100 97 36 7 56 39 20 0 1 0 0 1 0 0 0 17 21 66 100 100
100 99 56 3 4 100 100 100 100 100 100 100 100 100 84 11 49 11 24 46 34 44 76 71 28 51 63 70 76 27 12 3 4 27 59 84 52 59 100 71 100 100 100
24 99 70 5 5 7 71 99 5 5 15 46 39 37 61 80 30 13 43 10 12 13 9 24 20 26 19 14 9 15 31 99 100 99 100 100 99 100 100 100 100 100 100
100 100 100 84 79 96 79 91 19 26 94 100 100 71 84 98 90 62 25 19 13 10 24 64 73 33 4 8 17 51 60 95 91 59 87 100 100 100 100 100 94 100 100
100 100 100 100 97 78 66 23 80 97 95 98 97 100 100 100 100 90 72 45 35 32 41 44 64 78 100 100 99 74 96 94 93 85 24 34 95 100 100 92 94 100 66
100 100 100 100 100 100 100 100 100 100 100 100 100 100 100 100 100 100 100 100 100 100 100 100 100 100 100 100 99 100 11 31 96 100 94 81 86 100 100 99 83 94 98

GFSGL_prec_cloud_063.txt.gz
Cloud_Cover
0 0 0 0 0 0 0 0 0 0 0 0 0 0 0 0 0 0 0 45 0 0 0 21 0 0 0 0 0 0 0 0 0 0 0 1 35 41 5 55 100 100 63
0 0 0 0 0 0 0 0 0 0 0 0 0 0 0 0 0 0 0 0 7 0 0 0 0 0 0 0 0 0 0 0 0 0 0 0 5 71 45 5 64 100 100
0 0 0 0 0 0 0 0 0 0 0 0 0 0 0 0 0 0 0 0 0 0 0 0 0 0 0 0 0 0 0 0 0 0 0 0 0 0 19 78 87 100 100
0 0 0 0 0 0 0 0 0 0 0 0 0 0 0 0 0 0 0 0 0 0 0 0 0 0 0 0 0 0 0 0 0 0 0 0 0 0 0 1 22 23 100
0 0 3 4 1 0 0 0 0 0 0 0 0 0 0 0 0 0 0 0 0 0 0 0 0 0 0 0 0 0 0 0 0 0 1 0 1 0 0 1 3 0 11
0 0 3 72 78 5 0 0 0 0 0 0 0 0 0 0 0 0 0 0 0 0 0 0 0 0 0 0 0 0 0 0 0 0 5 5 5 3 0 0 0 2 5
0 0 0 0 0 0 20 4 0 0 0 0 0 0 0 0 0 0 0 0 0 0 0 0 0 0 0 1 0 1 0 0 0 0 5 5 5 5 3 0 0 0 0
0 0 0 0 0 15 91 100 28 3 5 1 0 0 0 0 0 0 0 0 0 0 0 0 0 1 0 0 0 0 0 0 1 1 5 15 36 6 5 5 5 14 25
0 0 0 0 0 0 0 0 2 1 0 0 0 0 0 0 0 0 0 0 0 0 0 0 0 0 2 3 0 0 0 0 0 0 5 43 71 5 7 82 84 62 52
0 0 0 0 0 0 0 0 0 0 0 0 0 0 0 0 0 0 3 0 0 0 0 0 0 0 0 0 0 0 0 0 0 0 5 31 85 96 64 85 13 64 21
26 5 4 0 0 0 0 0 0 0 0 0 0 0 0 0 0 0 0 0 0 0 0 0 0 0 0 1 5 5 0 10 0 0 12 78 98 90 93 99 15 15 20
5 5 5 4 0 0 0 0 0 0 0 0 0 0 0 0 1 24 0 8 0 0 0 0 0 0 1 5 14 5 5 47 5 41 73 88 82 36 98 100 48 71 65
5 7 5 4 0 0 0 0 0 0 0 0 0 0 0 0 0 4 8 1 10 10 3 2 12 2 0 65 44 5 73 7 14 44 52 44 94 28 60 100 100 100 97
83 67 6 5 0 0 1 9 0 0 0 0 0 0 0 0 0 0 0 3 59 42 0 3 1 12 95 68 60 40 8 25 38 32 34 41 88 45 100 100 89 100 76
5 60 5 35 22 0 0 0 0 0 2 0 0 0 0 0 0 0 0 0 0 0 0 0 0 0 3 5 26 68 97 89 95 98 46 58 83 100 100 78 84 96 52
96 90 72 6 41 4 0 0 85 54 99 100 93 54 23 73 95 52 100 100 98 14 2 0 0 0 0 5 8 39 100 70 50 62 91 100 100 100 99 69 100 50 5
100 100 100 60 13 0 4 0 0 36 100 100 100 100 100 97 100 100 100 100 100 100 76 2 0 0 5 5 6 63 100 100 100 100 100 100 100 100 100 50 72 1 0
100 100 100 98 94 81 84 27 52 62 3 0 73 62 97 100 100 100 100 100 100 100 99 100 64 6 41 48 65 76 70 94 100 94 100 100 100 75 87 41 12 0 3
100 100 100 100 100 100 100 100 84 62 37 88 74 88 100 100 100 100 100 30 28 88 53 53 88 89 98 87 55 8 73 68 99 100 100 96 69 99 65 6 1 46 8
100 100 100 93 93 100 100 100 98 33 99 100 80 98 100 100 100 100 100 99 29 51 100 100 100 100 100 57 12 100 88 50 100 100 85 68 72 36 0 4 5 8 21
100 100 100 100 100 100 100 100 100 96 70 100 58 100 100 100 100 91 100 99 91 45 44 100 90 94 61 95 94 84 76 78 100 100 100 96 57 7 12 20 13 28 63
100 100 100 100 100 100 100 100 100 100 100 100 60 97 100 100 38 100 100 94 100 100 84 52 96 100 99 4 2 13 24 52 72 64 44 22 1 2 11 16 17 70 100
100 100 100 100 100 100 100 100 100 100 100 100 100 73 99 77 30 97 100 100 100 97 99 99 100 100 86 5 0 0 0 2 12 5 54 91 77 80 99 100 100 100 100
100 100 100 100 100 100 100 100 100 100 100 100 100 100 40 32 97 100 98 100 100 100 100 91 75 88 8 16 3 0 0 0 0 4 0 51 99 100 100 100 100 99 100
100 100 100 100 100 100 100 92 79 100 100 92 40 100 100 100 100 100 100 100 100 100 99 100 100 100 99 100 88 39 23 0 26 51 95 86 31 53 78 100 41 4 100
100 100 100 100 100 100 100 100 100 100 100 91 43 31 25 58 83 66 94 100 100 100 100 100 99 80 26 12 0 1 25 94 38 89 90 63 65 66 99 48 44 66 73

GFSGL_prec_cloud_066.txt.gz
Cloud_Cover
0 0 0 0 0 0 0 0 0 1 2 0 2 0 0 0 0 0 0 89 26 1 0 0 0 0 0 47 79 1 0 0 0 0 0 0 1 5 96 73 76 5 37
0 0 0 0 0 0 0 0 0 0 0 0 0 0 0 0 0 0 0 0 5 0 0 0 0 0 0 0 0 0 0 0 0 0 0 0 0 0 1 22 80 7 87
0 0 0 0 0 0 0 0 0 0 0 0 0 0 0 0 0 0 0 0 0 0 0 0 0 0 0 0 0 0 0 0 0 0 0 0 0 0 0 0 0 0 3
0 0 0 0 0 0 0 0 0 0 0 0 0 0 0 0 0 0 0 0 0 0 0 0 0 0 0 0 0 0 0 0 0 0 0 0 0 4 2 0 0 0 4
0 0 0 0 0 0 0 0 0 0 0 0 0 0 0 0 0 0 0 0 0 0 0 0 0 0 0 0 0 0 0 0 0 0 0 0 5 5 5 39 16 4 0
0 0 0 0 0 0 3 5 0 0 0 0 0 0 0 0 0 0 0 0 0 0 0 0 0 0 0 0 0 0 0 0 0 0 0 0 5 5 5 16 47 64 5
0 0 0 0 0 0 5 14 5 4 0 0 0 0 0 0 0 0 0 0 0 0 0 0 0 0 0 0 0 0 0 0 0 0 0 0 4 5 5 19 40 32 5
0 0 0 0 0 1 4 20 0 0 0 1 0 0 2 0 0 0 0 0 0 0 0 0 0 0 0 0 0 0 0 0 2 0 0 0 0 2 5 5 28 5 56
0 0 0 0 0 0 0 0 3 5 62 31 5 28 15 4 3 0 0 0 0 0 0 0 0 0 0 0 0 0 0 0 3 3 0 2 4 0 4 5 6 87 18
0 0 0 0 0 0 0 0 0 5 4 0 0 2 0 0 0 0 0 0 0 0 0 0 0 0 0 0 0 0 0 0 2 3 0 3 5 5 3 5 5 90 100
7 0 0 0 0 0 0 0 0 0 0 0 0 0 0 0 0 0 0 0 0 0 0 0 0 0 0 0 0 0 0 2 5 5 5 5 5 5 1 5 5 11 89
5 4 0 0 2 5 0 0 0 0 0 0 0 0 0 0 0 29 0 0 0 0 0 0 0 0 0 0 0 0 0 21 4 5 20 5 5 5 5 6 70 100 100
5 15 0 0 5 5 5 3 0 0 0 0 0 0 0 0 0 2 0 0 0 0 0 0 12 0 0 63 0 0 56 7 1 5 25 54 5 47 46 12 99 100 100
4 68 5 5 5 5 4 4 0 0 0 0 2 0 0 0 0 0 1 2 47 21 0 1 1 6 74 20 27 28 0 0 2 43 23 28 40 29 5 13 100 100 100
5 99 5 5 0 5 4 0 0 0 0 0 0 0 0 0 0 0 0 0 0 0 0 0 8 24 80 17 5 5 4 41 35 76 29 93 39 5 43 100 100 100 100
13 100 96 30 4 2 1 22 93 65 69 13 14 0 23 78 99 100 95 0 0 37 2 31 98 100 56 57 66 6 6 46 10 37 79 51 28 39 90 100 100 100 100
85 42 82 98 5 5 1 0 87 71 100 100 100 100 73 97 100 100 100 100 99 98 100 100 100 100 93 100 97 9 2 5 19 97 97 34 97 100 26 99 100 87 45
92 93 59 77 74 81 10 5 42 1 0 0 94 68 100 100 100 100 100 100 100 99 100 100 100 100 68 95 100 100 100 86 5 5 24 24 11 70 93 64 73 11 40
100 87 98 91 90 100 73 17 100 22 0 9 79 93 100 100 100 100 100 100 80 90 93 100 100 100 87 46 98 96 100 100 53 5 6 10 72 42 63 66 100 47 0
100 100 100 100 100 74 97 100 100 75 42 100 100 100 100 100 46 8 74 100 100 100 99 100 100 93 100 100 100 16 26 72 20 82 43 8 99 100 83 84 13 0 0
100 100 100 99 100 100 100 100 100 100 99 100 100 100 94 5 0 2 13 81 100 100 100 98 100 24 6 93 100 88 100 78 99 46 6 72 80 6 0 0 0 1 0
100 100 100 100 100 100 100 100 100 100 100 100 100 100 100 92 71 90 6 98 100 100 100 100 100 100 74 100 75 100 100 100 100 100 100 100 38 11 2 0 0 0 1
100 90 98 100 99 100 100 100 100 100 100 100 73 98 35 66 100 100 95 100 100 100 100 100 100 100 100 100 100 100 60 23 96 100 100 100 100 12 5 3 0 0 14
100 100 100 100 100 100 100 100 100 100 48 97 100 100 100 100 100 100 100 100 100 100 100 100 100 100 100 100 100 100 100 100 100 100 100 30 94 100 85 99 99 92 98
100 100 100 100 100 100 100 100 100 100 100 100 100 100 100 100 100 100 100 100 100 100 100 100 100 100 100 100 100 100 97 99 82 68 94 56 83 97 55 85 85 77 55
100 100 100 100 100 100 100 100 100 100 100 100 100 100 100 100 100 63 97 100 100 100 100 100 100 100 54 28 14 5 5 7 5 12 57 72 98 100 100 100 100 74 21

GFSGL_prec_cloud_069.txt.gz
Cloud_Cover
0 0 0 0 0 0 0 0 0 0 0 5 5 0 0 0 0 0 0 0 0 0 0 0 0 0 0 0 0 0 0 0 0 0 0 0 0 0 1 0 3 23 81
0 0 0 0 0 0 0 0 0 0 0 0 0 0 0 0 0 0 0 0 0 0 0 0 0 0 0 0 0 0 0 0 0 0 0 0 0 0 0 0 0 0 0
0 0 0 0 0 0 0 0 0 0 0 0 0 0 0 0 0 0 0 0 0 0 0 0 0 0 0 0 0 0 0 0 0 0 0 0 0 0 0 0 0 0 0
0 0 0 0 0 0 0 0 0 0 0 0 0 0 0 0 0 0 0 0 0 0 0 0 0 0 0 0 0 0 0 0 0 0 0 0 1 3 1 0 0 4 2
0 0 0 0 0 0 0 0 0 0 0 0 0 0 0 0 0 0 0 0 0 0 0 0 0 0 0 0 0 0 0 0 0 0 0 0 0 0 4 5 5 7 6
0 0 0 0 0 0 0 0 0 0 0 0 0 0 0 0 0 0 0 0 0 0 0 0 0 0 0 0 0 0 0 0 0 0 0 0 0 0 0 0 5 35 100
38 2 0 0 0 0 0 0 0 0 0 1 1 1 0 0 0 0 0 0 0 0 0 0 0 0 0 0 0 0 0 0 0 0 0 0 0 0 0 0 0 5 41
100 100 66 3 0 0 0 0 0 1 5 0 4 0 0 0 0 0 5 2 0 0 0 0 0 0 0 0 0 0 0 0 0 0 3 2 5 4 0 0 5 5 7
100 100 81 100 0 0 0 0 0 0 5 5 0 0 0 0 4 5 5 2 0 0 0 0 0 0 0 0 0 0 0 0 0 0 0 3 9 7 64 3 12 12 5
100 100 92 79 43 0 0 0 0 0 3 0 0 0 5 5 0 1 0 0 0 0 0 0 0 0 0 0 0 0 0 0 0 0 0 1 19 5 42 8 5 5 10
100 100 89 100 37 0 0 0 0 0 0 0 0 0 0 0 0 0 0 0 0 0 0 0 0 0 0 0 0 0 0 0 0 1 0 0 0 0 5 44 62 5 14
100 100 100 82 0 0 0 0 0 0 0 0 0 0 0 0 0 20 1 4 0 0 0 0 0 0 0 0 0 5 98 90 60 5 5 0 0 0 4 19 5 14 15
100 100 100 100 5 0 0 2 0 0 0 0 0 0 0 0 0 26 30 0 0 0 0 0 0 0 0 1 5 5 5 22 24 3 0 0 0 5 5 75 80 36 49
100 100 100 32 24 5 0 3 48 3 0 0 0 3 4 7 0 0 5 27 36 14 0 3 1 0 16 26 97 98 8 21 5 5 3 1 5 5 17 100 97 53 1
100 100 70 9 60 37 0 7 5 5 1 0 0 2 6 10 0 0 0 0 0 0 0 0 1 8 58 100 100 100 100 31 16 6 18 5 3 57 16 31 3 11 41
100 100 19 1 5 80 5 10 91 84 37 6 2 0 9 68 2 0 0 19 11 53 6 43 98 100 100 100 100 100 100 100 100 83 88 7 40 84 100 100 32 36 42
100 100 94 80 5 5 5 5 5 89 100 100 95 35 36 77 100 99 80 6 78 79 16 100 100 100 100 100 100 100 89 100 100 100 100 100 77 100 96 16 30 34 53
100 88 84 100 99 32 9 6 8 0 3 45 100 100 100 100 100 100 100 86 85 64 3 30 93 100 100 100 100 100 100 100 100 100 100 65 98 98 100 100 100 100 98
100 97 100 100 100 100 92 12 14 17 2 22 100 100 100 100 100 100 100 6 6 5 12 34 64 100 100 100 100 100 100 100 100 100 100 99 100 88 82 97 99 100 100
100 100 100 100 100 100 99 100 53 54 9 46 54 79 100 100 100 100 100 100 90 67 14 6 5 89 100 100 100 100 100 100 100 100 100 82 21 24 0 7 57 30 92
100 100 89 100 99 92 100 100 49 89 83 100 66 99 100 100 100 100 100 100 100 99 99 60 6 64 100 100 100 100 100 100 100 100 100 100 63 90 24 9 65 28 100
100 96 100 100 100 100 99 94 100 100 86 100 100 100 100 100 100 100 100 100 100 87 92 100 48 36 100 100 100 100 100 100 100 100 100 73 20 97 50 84 60 59 31
100 100 99 100 100 100 100 100 100 100 100 100 100 100 100 100 100 100 100 100 100 100 76 100 97 100 100 100 99 82 100 100 100 100 100 100 100 100 100 45 5 3 5
100 100 100 100 100 100 100 100 100 100 100 100 100 100 100 100 100 100 100 100 100 100 100 100 100 100 100 100 84 100 100 95 100 100 100 100 100 100 91 6 8 11 34
100 100 100 100 100 100 100 100 100 100 100 100 100 100 100 100 100 100 100 100 100 100 99 100 100 100 100 96 100 100 100 100 100 100 96 60 100 100 60 11 72 92 8
100 100 100 100 100 100 100 100 100 100 100 100 100 100 100 100 100 100 100 100 100 100 100 100 100 100 100 100 100 100 100 100 81 5 26 100 98 37 95 98 100 100 70

GFSGL_prec_cloud_072.txt.gz
Cloud_Cover
0 0 0 0 0 0 0 0 0 0 0 0 0 4 1 0 0 0 0 0 0 0 0 0 0 0 0 0 0 0 0 0 0 0 0 0 0 0 0 0 0 0 0
0 0 0 0 0 0 0 0 0 0 0 0 0 0 0 0 0 0 0 0 0 0 0 0 0 0 0 0 0 0 0 0 0 0 0 0 0 0 0 0 0 0 0
0 0 0 0 0 0 0 0 0 0 0 0 0 0 0 0 0 0 0 0 0 0 0 0 0 0 0 0 0 0 0 0 0 0 0 0 0 0 0 0 1 5 3
92 13 4 0 0 0 0 0 0 0 0 0 0 0 0 0 0 0 0 0 0 0 0 0 0 0 0 0 0 0 0 0 0 0 0 1 0 0 0 0 0 1 5
96 4 42 17 0 0 0 0 0 0 0 0 0 0 0 0 0 0 0 0 0 0 0 0 0 0 0 0 0 0 0 0 0 0 0 0 3 0 0 0 8 0 0
100 89 100 1 0 0 0 0 0 0 0 0 0 0 0 0 0 0 0 0 0 0 0 0 0 0 0 0 0 0 0 0 0 0 0 1 0 0 0 4 4 4 3
100 100 100 57 0 0 0 0 0 0 0 0 0 0 0 4 1 0 0 0 0 1 1 2 0 0 0 0 0 0 0 2 1 0 0 0 0 0 0 0 4 5 5
100 100 100 100 100 62 91 10 0 0 0 0 0 0 0 3 0 0 0 0 2 5 4 0 0 0 0 0 0 0 0 0 0 0 0 0 1 4 2 0 5 5 22
100 100 100 71 100 100 100 100 44 0 0 0 0 0 0 0 0 0 0 0 0 2 0 0 0 0 0 0 0 0 0 0 2 28 5 3 0 2 7 5 7 32 6
100 100 100 100 100 100 100 100 100 14 0 0 0 0 0 0 0 0 7 3 0 0 0 0 0 0 0 0 0 0 0 2 6 5 5 3 36 4 7 17 6 28 100
100 100 100 100 100 100 95 66 100 20 0 0 0 0 0 0 0 0 10 0 0 0 0 0 0 0 0 0 0 0 1 76 16 5 5 4 2 7 2 5 15 16 27
100 100 100 100 100 19 90 22 100 76 4 0 0 0 0 0 0 12 15 41 0 0 0 0 0 0 0 10 24 0 10 41 5 5 5 5 14 9 5 5 0 15 7
100 100 100 100 100 95 100 98 100 100 2 0 0 0 0 0 0 47 32 26 10 0 0 0 0 0 0 17 0 3 90 76 24 32 35 66 73 56 76 40 17 62 91
100 100 100 100 100 100 100 100 100 99 1 0 0 0 0 0 0 0 4 46 63 48 0 0 0 0 2 2 14 48 74 85 44 100 78 9 98 100 100 100 100 100 100
100 100 100 100 100 100 100 100 100 72 6 2 0 0 0 0 0 0 0 0 0 18 0 10 20 5 9 83 53 76 61 99 93 100 100 100 100 100 100 87 52 100 100
100 100 100 100 100 99 70 100 100 98 52 2 0 1 0 0 0 0 2 93 88 89 72 70 60 36 14 95 100 90 100 100 100 89 100 100 89 100 100 100 98 100 100
100 100 100 100 100 100 99 100 100 100 100 100 82 66 43 26 100 78 52 65 100 98 14 22 38 34 14 6 94 65 100 100 100 100 100 100 100 100 100 100 100 100 100
100 100 100 100 100 100 74 100 100 32 100 79 96 87 98 94 99 100 100 98 93 100 50 45 51 64 80 26 69 99 65 91 100 100 100 100 100 100 100 100 100 100 100
100 100 100 100 100 100 100 100 100 100 100 100 100 100 100 100 100 100 100 18 0 2 11 23 69 79 100 100 68 50 34 44 98 99 100 100 100 100 100 100 100 100 100
100 94 96 100 100 100 61 82 100 100 100 100 61 28 100 100 100 100 100 30 28 20 18 89 100 24 100 100 100 100 48 15 70 100 100 100 100 100 100 100 100 100 100
98 100 99 100 100 100 100 100 100 80 72 69 26 59 100 77 61 64 100 99 100 99 90 95 44 29 6 100 100 100 100 100 100 100 100 100 100 100 100 100 100 100 100
87 100 100 100 100 100 100 100 100 100 100 99 99 100 100 100 100 100 100 100 100 100 100 88 86 53 52 45 82 71 98 77 78 94 98 100 100 100 100 100 100 100 100
95 100 100 100 100 100 100 100 100 100 100 100 100 100 100 100 100 100 100 100 100 100 100 94 52 29 24 12 69 100 51 7 39 34 100 100 100 100 100 100 100 100 100
100 100 100 100 100 100 100 100 100 100 100 100 100 100 100 100 100 100 100 100 100 100 100 100 100 100 100 78 76 94 19 79 100 41 100 100 100 100 100 100 100 100 100
100 100 100 100 100 100 94 100 100 100 100 100 100 100 100 100 100 100 100 100 100 100 100 100 100 100 100 100 100 98 100 98 100 100 94 100 100 100 100 98 47 78 100
100 100 100 100 100 100 100 100 100 100 100 100 100 100 100 100 100 100 100 100 100 100 100 100 100 100 100 100 100 100 100 100 100 100 100 100 100 71 63 94 100 100 98

GFSGL_prec_cloud_075.txt.gz
Cloud_Cover
0 0 0 0 0 0 0 0 0 0 0 8 0 0 0 0 0 0 0 0 0 0 0 0 0 0 0 0 0 0 0 0 0 0 0 0 0 0 0 0 3 4 4
0 0 0 0 0 0 0 0 0 0 0 0 0 0 0 0 0 0 0 0 0 0 0 0 0 0 0 0 0 0 0 5 4 5 4 0 0 0 0 5 5 5 5
0 0 0 0 0 0 0 0 0 0 0 0 0 0 0 0 0 0 0 0 0 0 0 0 0 0 0 0 0 0 0 0 5 5 3 4 5 5 5 5 5 5 5
0 0 0 0 0 0 0 0 0 0 0 0 0 0 0 0 0 0 0 0 0 0 0 0 0 0 2 0 0 0 0 0 0 3 3 5 5 5 4 5 5 5 75
0 3 100 76 48 0 0 0 0 0 0 0 0 0 0 0 0 0 0 0 0 0 0 0 0 0 0 0 0 0 0 0 2 7 9 4 5 5 1 5 10 5 1
84 56 37 100 100 36 0 0 0 0 0 0 0 0 0 0 0 0 0 0 0 0 0 0 5 5 3 0 0 0 0 0 0 4 75 11 2 5 5 4 2 5 25
12 93 100 100 100 100 92 1 0 0 0 0 0 0 0 0 0 0 0 0 0 0 1 14 6 0 0 0 0 2 0 0 2 52 70 96 64 32 0 0 0 8 7
30 61 86 100 100 100 100 100 0 0 0 0 0 0 0 0 0 0 0 0 0 0 3 4 0 0 0 0 0 0 0 0 0 67 79 99 14 4 4 4 0 2 15
100 100 78 100 100 100 100 100 100 100 9 0 0 0 0 0 0 0 1 0 0 0 0 0 0 0 0 1 0 0 0 3 53 73 8 5 5 5 1 2 3 28 0
100 63 100 100 100 100 100 100 100 100 99 100 83 0 0 0 0 0 14 0 0 0 0 0 0 0 0 0 0 0 0 0 9 41 8 10 27 6 4 2 0 14 34
100 100 100 100 100 100 100 100 100 100 100 100 92 4 0 0 0 0 0 0 0 0 0 0 0 0 0 1 24 0 0 20 35 40 54 14 5 5 2 16 7 13 42
100 100 100 100 99 100 100 100 98 91 100 100 100 100 42 0 0 2 23 29 0 0 0 0 0 0 0 6 24 0 3 24 58 99 60 75 54 5 4 5 9 20 28
100 100 100 100 100 100 100 100 100 33 100 100 100 100 89 44 0 58 12 19 19 1 0 0 0 0 0 16 1 5 36 98 99 99 43 32 64 45 6 5 5 6 35
100 100 100 100 100 100 100 100 100 100 100 100 100 69 96 94 0 0 22 57 76 60 1 5 0 1 3 0 5 16 5 52 77 100 94 99 94 72 71 89 85 89 100
100 100 96 100 100 100 98 100 96 99 94 100 100 100 100 100 0 0 0 0 1 20 7 40 75 77 40 28 1 5 5 43 99 100 100 95 56 100 100 100 100 100 100
100 100 100 100 96 100 100 100 100 100 100 100 100 100 100 100 36 46 66 97 100 99 95 91 100 100 100 52 41 12 12 23 41 99 100 100 100 100 100 100 100 100 100
100 100 100 100 100 100 100 100 100 100 100 100 100 100 100 97 100 100 100 100 100 100 37 94 100 100 100 93 52 33 25 7 10 40 57 100 100 100 100 100 100 100 100
100 100 100 100 100 100 100 100 100 100 100 100 100 100 100 100 100 100 100 100 100 100 100 100 100 100 99 78 44 46 30 65 23 36 100 100 100 100 100 100 100 100 100
100 100 100 100 100 100 100 100 100 100 100 100 99 100 100 100 100 100 100 100 99 100 100 100 100 100 84 79 42 38 33 100 50 74 100 100 100 98 100 100 100 100 100
100 100 100 100 100 100 100 100 100 100 100 98 100 100 100 100 100 98 100 100 100 100 100 100 100 100 90 95 86 85 84 99 100 100 100 74 49 64 100 92 100 100 100
100 100 100 91 100 100 100 100 100 100 100 100 100 100 100 85 96 99 100 100 100 100 100 96 100 100 100 100 100 33 52 54 35 8 74 100 98 99 70 100 100 100 100
100 100 100 100 100 100 100 100 100 100 100 100 100 100 100 100 100 100 100 100 100 100 100 100 100 100 100 100 100 100 55 98 100 100 100 100 53 66 62 54 100 100 100
100 100 100 100 100 100 100 100 100 100 100 100 100 100 100 100 100 100 100 100 100 100 100 100 100 100 100 100 98 100 100 100 100 86 100 50 32 26 20 11 20 60 100
100 100 100 100 100 100 100 100 100 100 100 100 100 100 100 100 100 100 100 100 100 100 100 100 100 100 100 99 100 71 69 87 85 88 59 95 89 69 83 61 86 5 65
100 100 100 100 100 100 100 100 100 100 100 100 100 100 100 100 100 100 100 100 100 100 100 100 100 100 100 100 100 100 100 100 100 100 100 100 100 100 100 100 100 100 94
100 100 100 100 100 100 100 100 100 100 100 100 100 100 100 100 100 100 100 100 100 100 100 100 100 100 100 100 100 100 100 100 100 100 100 100 90 100 100 100 100 100 99

GFSGL_prec_cloud_081.txt.gz
Cloud_Cover
64 0 3 42 0 0 0 0 0 0 0 0 0 0 0 1 0 12 1 5 0 0 0 0 0 0 0 0 0 0 0 0 0 0 0 0 0 0 0 0 0 4 13
100 88 44 100 100 19 0 0 0 0 0 0 0 0 0 0 0 0 0 0 0 0 0 0 0 0 0 0 0 0 0 0 0 0 0 0 0 0 0 0 0 0 5
99 100 100 100 100 99 15 0 0 0 0 0 0 0 0 0 0 0 0 3 0 0 0 0 0 0 0 1 0 0 0 0 2 1 0 0 0 0 0 0 0 1 5
14 14 90 100 100 100 100 28 0 0 0 0 0 0 0 0 0 0 0 0 0 0 0 0 0 0 4 3 0 0 0 0 5 5 0 0 0 0 0 0 0 0 0
95 5 1 0 66 72 100 100 33 0 0 0 0 0 0 0 0 0 0 0 0 0 0 0 0 0 1 0 0 0 0 0 3 5 0 0 0 0 0 0 0 0 0
100 53 39 5 0 0 2 92 87 1 0 0 0 0 0 0 0 0 0 0 0 0 0 0 0 0 9 1 0 0 0 0 5 5 5 5 1 0 0 3 2 5 5
100 100 100 100 98 19 0 0 0 0 0 0 0 0 0 0 0 0 0 0 0 0 0 0 0 0 3 0 22 25 34 2 9 5 35 5 4 0 2 5 23 85 53
100 100 100 100 100 99 75 11 0 0 0 0 0 0 0 0 0 0 0 0 0 0 0 0 0 5 0 0 0 0 0 0 3 5 47 23 5 4 2 4 4 75 74
100 100 100 99 100 95 100 100 99 21 0 0 0 0 0 0 0 0 7 0 0 0 0 3 0 0 0 0 0 0 0 0 3 19 13 5 12 5 29 1 5 5 5
100 100 100 100 100 92 87 87 71 76 28 7 0 0 0 0 0 0 9 0 0 0 0 0 0 0 0 1 0 0 0 0 0 3 99 40 55 5 39 7 4 5 5
40 100 100 100 94 90 100 100 98 80 87 83 78 78 94 45 11 0 0 0 0 0 0 0 0 0 2 28 26 0 0 4 0 0 5 11 8 5 1 0 0 4 1
77 42 100 100 100 99 100 100 56 100 100 90 64 85 100 100 99 5 0 52 0 0 0 0 0 0 27 36 52 0 0 69 0 0 3 3 5 5 5 0 0 2 0
100 98 94 42 100 97 100 100 100 100 100 100 100 100 100 100 100 95 5 26 18 0 0 0 0 5 18 69 76 0 73 4 0 0 0 2 5 5 3 5 5 4 30
4 100 100 100 92 77 100 100 100 100 100 100 99 100 100 100 92 100 100 100 99 100 4 7 0 9 10 14 24 34 0 0 0 0 0 0 1 0 5 4 3 0 0
18 44 94 100 91 91 62 100 100 100 100 100 100 100 86 100 92 29 43 100 100 100 100 38 30 64 67 83 60 17 15 14 21 0 0 2 0 0 2 5 47 93 89
72 12 5 43 81 100 50 97 95 100 100 100 100 95 100 100 90 61 85 99 98 100 100 100 52 49 100 100 100 100 99 72 24 4 33 32 5 5 5 5 6 5 16
96 99 36 4 47 5 100 100 100 100 100 100 100 100 100 100 100 100 100 100 100 100 100 94 60 99 100 100 100 100 99 100 100 100 100 100 48 26 7 5 12 56 6
96 48 67 81 71 42 100 100 100 100 100 100 100 100 100 100 100 100 100 100 98 100 100 100 100 99 97 84 79 94 97 98 100 100 100 100 100 100 81 37 27 67 100
100 73 91 100 100 100 100 100 100 100 95 95 100 89 90 100 100 100 100 100 83 100 100 98 100 100 89 80 74 82 100 100 100 100 100 100 100 100 86 99 100 100 100
100 100 100 100 100 100 100 100 100 100 100 100 100 100 100 100 100 100 100 100 100 86 100 100 100 92 90 61 74 100 100 100 100 100 100 100 100 100 100 100 100 100 100
100 100 100 100 100 100 100 100 100 100 100 100 99 100 100 100 100 100 100 100 100 100 100 100 100 100 99 88 100 100 100 100 100 100 100 100 100 100 100 100 100 100 100
100 100 99 100 100 100 100 100 100 100 100 100 100 100 100 100 100 100 100 100 100 100 100 100 100 100 100 100 100 100 100 100 100 100 100 100 100 100 100 100 100 100 100
100 100 100 100 100 100 100 100 100 100 100 100 100 100 100 100 100 100 100 100 100 100 100 100 100 100 100 100 100 100 100 100 100 100 100 100 100 100 100 100 100 100 100
100 100 100 100 100 100 100 100 100 100 100 100 100 100 100 100 100 100 100 100 100 100 100 100 100 100 100 100 100 100 100 100 100 100 100 100 100 100 100 100 100 100 100
100 100 100 100 100 100 100 100 100 100 100 100 100 100 100 100 100 100 100 100 100 100 100 100 100 100 100 100 100 100 100 100 100 100 100 100 100 100 100 100 100 100 100
100 100 100 100 100 100 100 100 100 100 100 100 100 100 100 100 100 100 100 100 100 100 100 100 100 100 100 100 100 100 100 100 100 100 100 100 100 100 100 100 100 100 100

GFSGL_prec_cloud_084.txt.gz
Cloud_Cover
0 1 4 1 0 0 0 0 0 0 0 0 0 7 6 9 0 0 0 1 5 0 0 0 0 0 0 0 0 0 5 5 5 0 0 0 0 0 0 0 0 0 0
0 9 27 3 24 8 0 0 0 0 0 0 0 25 5 62 19 0 0 2 0 0 0 0 0 0 0 3 1 0 23 48 5 5 1 0 0 0 0 0 0 1 5
5 23 73 48 24 12 2 3 0 0 0 0 0 0 5 27 99 100 3 0 9 1 3 0 0 0 0 5 6 0 5 8 5 5 0 0 0 0 0 0 5 0 0
98 41 4 21 4 2 93 0 13 0 0 0 0 0 0 2 5 11 24 2 0 5 13 5 0 0 0 2 0 0 0 5 5 1 0 0 0 5 4 6 5 0 5
100 81 24 24 18 49 0 86 10 0 0 0 0 0 0 0 2 1 1 0 54 1 0 0 0 0 0 0 0 0 4 5 5 6 1 5 8 19 26 5 4 2 0
74 65 100 95 75 30 15 14 14 36 0 0 0 0 0 0 0 0 0 9 4 0 0 0 0 0 0 2 0 0 0 5 5 6 5 5 5 18 98 100 84 5 9
100 100 99 100 100 100 77 67 50 8 0 0 0 0 0 0 0 0 0 0 0 0 0 0 0 0 0 0 50 24 29 4 16 38 6 5 5 18 100 100 97 14 100
100 100 100 97 100 100 95 89 98 57 29 8 0 0 0 0 0 0 0 0 0 0 0 0 0 0 0 0 0 0 0 0 4 5 5 48 6 5 5 98 100 55 94
100 100 100 100 100 100 100 100 60 98 100 79 23 22 9 0 0 0 4 0 0 0 0 0 0 0 0 0 0 0 0 0 0 5 5 10 5 15 45 6 56 29 70
2 81 100 100 100 100 100 98 97 95 63 39 99 70 44 5 0 0 12 0 0 0 0 0 0 0 0 0 0 0 0 0 0 0 5 10 50 5 37 9 5 30 57
0 0 14 88 100 100 100 100 96 98 95 27 66 38 83 46 26 2 0 0 0 0 0 0 0 0 0 0 0 0 0 4 0 0 0 0 2 0 5 0 0 0 0
0 0 0 0 23 100 100 95 100 95 98 67 61 80 90 43 30 7 0 74 1 0 0 0 0 0 0 0 43 0 0 66 0 0 0 0 0 0 0 0 0 0 0
0 0 0 0 0 1 100 100 93 100 100 64 24 86 96 90 87 100 100 80 22 6 0 0 0 0 0 65 42 0 67 2 0 0 0 0 0 0 0 0 0 0 0
0 0 0 0 0 22 15 91 100 92 97 100 66 32 97 99 90 84 96 99 100 100 15 1 0 1 25 16 23 35 1 0 0 0 0 0 0 0 0 0 0 0 5
0 0 0 0 0 1 96 11 71 100 100 100 82 78 78 78 99 100 100 99 96 97 51 100 91 11 1 13 5 1 0 0 0 0 1 0 0 0 0 0 0 0 0
3 0 0 0 0 0 6 100 72 4 14 77 100 94 54 93 99 100 100 100 100 100 98 100 68 43 6 32 27 22 0 0 2 0 3 5 4 2 5 4 0 0 0
100 49 0 0 0 0 0 4 100 83 18 5 88 100 100 98 100 100 100 100 100 100 100 100 100 26 38 71 63 98 99 41 33 8 11 66 98 44 75 42 6 5 1
100 100 44 0 0 0 0 5 3 5 5 5 6 68 98 100 100 100 100 100 100 96 100 100 100 100 51 72 57 90 90 100 87 81 84 96 100 100 100 98 73 87 97
100 100 100 84 31 21 6 0 2 2 2 5 5 100 100 84 100 100 100 100 100 98 100 100 100 100 100 91 76 42 29 96 85 90 86 100 100 100 100 100 100 100 100
99 83 42 98 100 98 86 76 50 40 58 35 21 45 76 100 88 100 93 100 100 100 100 100 90 100 100 97 50 61 98 100 100 98 88 90 100 100 100 99 100 100 100
100 100 100 100 100 100 100 100 100 100 100 35 43 33 93 100 95 100 100 100 100 100 98 100 100 100 100 62 44 99 100 100 100 100 100 100 94 100 100 100 100 100 100
100 100 100 100 100 100 100 100 100 72 63 100 41 71 98 100 100 100 100 100 100 100 100 100 100 100 100 100 100 100 100 100 100 100 100 100 100 100 100 100 100 100 100
100 100 100 100 100 100 100 100 100 100 92 100 100 99 93 100 100 100 100 100 100 100 100 100 100 100 100 100 100 100 100 100 100 100 100 100 100 100 100 100 100 100 100
100 100 100 100 100 100 100 100 100 100 100 97 100 100 100 100 100 100 100 100 100 100 100 100 100 100 100 100 100 100 100 100 100 100 100 100 100 100 100 100 100 100 100
100 100 100 100 100 100 100 100 100 100 100 100 100 100 100 100 100 100 100 100 100 100 100 100 100 100 100 100 100 100 100 100 100 100 100 100 100 100 100 100 100 100 100
100 100 100 100 100 100 100 100 100 100 100 100 100 100 100 100 100 100 100 100 100 100 100 100 100 100 100 100 100 100 100 100 100 100 100 100 100 100 100 100 100 100 100

GFSGL_prec_cloud_087.txt.gz
Cloud_Cover
1 11 12 32 13 5 0 2 0 0 0 5 85 86 70 44 18 6 5 93 1 0 0 36 11 0 2 13 15 5 0 0 0 0 0 0 0 0 0 0 0 1 0
1 2 4 11 6 3 1 1 3 0 0 0 0 18 100 74 71 100 70 0 5 2 0 0 0 0 0 5 1 5 0 0 0 0 0 0 0 0 0 0 0 4 0
8 20 2 10 11 2 0 14 1 0 0 0 0 4 98 98 100 100 100 75 18 11 3 0 0 0 0 5 0 4 0 19 14 1 0 1 5 4 0 0 0 5 5
100 90 79 10 15 9 31 13 13 0 0 0 0 0 0 0 12 60 59 19 41 16 15 4 0 0 0 0 0 0 0 0 0 0 4 3 5 3 1 3 9 5 27
25 100 99 61 10 22 43 26 42 14 0 0 0 0 0 0 0 0 4 2 2 100 66 29 0 0 0 0 0 5 0 0 0 0 0 0 5 5 5 10 93 16 8
100 54 31 98 100 100 76 22 28 1 1 1 0 0 0 0 0 0 0 0 3 58 58 0 0 3 0 0 0 0 3 2 0 0 4 5 5 5 5 39 100 77 37
61 93 54 75 100 100 100 98 42 49 22 2 0 0 0 0 0 0 0 0 0 2 2 0 0 0 0 0 0 0 1 5 5 0 5 5 26 66 15 7 65 90 51
100 100 98 56 68 63 81 100 100 100 100 95 10 2 3 0 0 0 0 0 0 0 0 0 0 0 0 6 0 0 0 4 5 5 4 5 5 7 12 35 26 24 71
63 100 100 100 87 45 100 100 57 46 42 14 93 63 4 0 0 0 0 0 0 0 0 0 0 0 0 0 0 0 0 0 5 5 2 4 4 5 14 4 5 5 5
0 0 2 91 100 100 100 60 76 75 64 12 5 27 0 0 0 1 5 0 0 0 0 0 0 0 0 0 0 0 0 0 0 0 5 5 24 0 2 8 5 6 4
0 0 0 1 64 99 97 100 100 91 90 95 100 15 3 12 1 8 2 31 8 0 0 0 0 0 0 0 0 0 0 4 0 0 0 0 0 0 0 0 0 4 4
0 0 0 0 0 0 87 83 100 100 94 98 100 100 100 98 27 21 27 74 2 3 0 0 1 7 0 0 0 0 0 61 0 0 0 0 0 0 0 0 0 0 0
0 0 0 0 0 0 0 2 81 100 90 77 100 87 100 100 99 86 92 100 41 13 0 0 0 0 1 65 18 0 56 2 0 0 0 0 0 0 0 0 0 0 0
0 0 0 0 0 0 0 0 0 11 99 100 99 96 59 90 100 100 100 100 100 99 100 95 8 0 65 20 20 29 0 0 0 0 0 0 0 0 0 0 0 0 0
0 0 0 0 0 0 0 0 0 0 12 53 73 98 100 90 99 96 100 100 100 100 100 100 100 84 4 0 1 0 26 28 12 0 0 0 0 0 0 0 0 0 0
45 0 0 0 0 0 0 0 0 0 0 0 68 64 100 100 100 85 100 100 100 100 100 100 100 97 100 15 17 1 4 91 28 0 0 0 0 0 0 0 0 0 0
80 54 21 0 0 0 0 0 0 0 0 0 0 3 100 100 100 100 100 100 100 100 100 100 100 100 100 100 100 96 100 100 84 70 1 0 0 4 0 0 0 0 0
96 25 85 100 41 1 0 0 0 0 0 0 6 32 6 70 100 100 100 100 89 92 98 100 100 100 100 100 100 100 100 100 40 0 2 2 0 5 23 33 11 6 22
100 100 96 54 90 69 35 41 13 0 0 0 0 0 50 6 68 100 100 98 100 100 53 92 100 100 100 100 100 100 100 100 100 66 30 5 3 7 94 92 96 84 91
45 99 98 100 90 88 100 95 34 7 0 0 0 0 0 4 8 1 1 6 100 100 100 98 100 85 100 100 100 99 96 100 100 95 92 100 9 6 46 80 100 100 100
66 96 81 40 100 100 100 100 100 90 21 0 0 0 88 3 3 1 32 91 100 100 100 100 100 100 76 100 100 100 100 100 100 100 100 100 100 81 100 100 100 100 100
43 99 100 100 100 100 100 100 100 100 99 54 2 0 4 0 0 20 96 100 100 100 100 100 100 100 100 100 100 100 100 100 100 100 100 100 100 100 100 100 100 100 100
100 100 100 100 100 100 100 100 100 100 100 100 100 84 86 50 69 98 100 100 100 100 100 100 100 100 100 100 100 100 100 100 100 100 100 100 100 100 100 100 100 100 100
99 100 100 100 100 100 100 100 100 100 100 100 100 100 100 100 100 100 100 100 100 100 100 100 100 100 100 100 100 100 100 100 100 100 100 100 100 100 100 100 100 100 100
100 100 100 100 100 100 100 100 100 100 100 100 100 100 100 100 100 100 100 100 100 100 100 100 100 100 100 100 100 100 100 100 100 100 100 100 100 100 100 100 100 100 100
100 95 100 100 100 100 100 100 100 100 100 100 100 100 100 100 100 100 100 100 100 100 100 100 100 100 100 100 100 100 100 100 100 100 100 100 100 100 100 100 100 100 100

GFSGL_prec_cloud_090.txt.gz
Cloud_Cover
100 60 0 0 0 0 0 0 0 2 0 98 100 100 100 12 4 17 99 34 5 0 0 19 2 0 1 6 4 59 52 0 0 0 0 0 0 0 0 0 0 0 0
100 88 0 0 0 0 0 0 0 0 0 0 50 100 100 6 21 100 100 100 35 0 0 0 0 0 5 5 0 1 12 0 0 0 0 0 0 0 0 0 4 5 1
97 100 90 8 0 0 0 0 0 0 0 0 0 0 0 4 0 99 100 100 94 30 0 0 0 0 0 3 4 0 0 0 7 55 38 0 0 0 0 2 5 4 16
100 100 100 29 3 0 0 0 1 0 0 0 0 0 0 0 0 3 19 92 99 15 5 39 0 0 0 0 0 0 0 0 0 0 0 0 0 18 0 3 5 0 3
100 100 100 99 80 78 100 100 0 0 0 0 0 0 0 0 0 0 0 0 1 4 45 100 26 17 0 0 0 0 5 3 0 1 4 0 4 12 5 5 2 5 5
100 100 100 64 100 100 60 3 30 4 0 0 2 0 0 0 0 0 0 0 0 0 2 87 51 0 78 58 0 2 3 5 0 0 5 5 5 43 86 55 5 5 5
100 100 100 100 100 100 100 29 19 70 1 0 0 2 1 0 0 0 0 0 0 0 0 0 0 1 0 11 1 0 0 2 0 0 3 5 5 21 16 54 5 10 71
81 89 100 98 100 76 17 31 24 31 28 5 5 4 0 0 0 0 0 0 0 0 0 0 0 0 0 0 2 1 0 0 0 4 2 1 5 5 5 5 5 9 14
0 10 54 93 100 98 23 18 92 90 34 62 12 0 0 0 0 1 13 0 0 0 0 0 0 0 0 0 0 0 0 0 0 0 5 0 0 5 6 5 5 5 8
0 0 0 0 0 34 5 46 33 92 30 49 48 5 6 0 0 2 10 0 0 0 0 0 0 0 0 0 0 0 0 0 0 0 0 0 0 0 0 0 0 0 2
0 0 0 0 0 0 5 5 14 89 85 21 56 5 5 14 16 4 12 0 0 0 0 0 0 0 0 0 0 0 0 0 0 0 0 0 0 0 0 0 0 0 1
0 0 0 0 0 0 0 4 5 11 99 100 78 89 43 13 84 97 75 82 31 55 18 0 0 4 42 6 16 2 0 0 0 0 0 0 0 0 0 0 0 0 0
0 0 0 0 0 0 0 0 0 4 5 79 100 100 99 100 63 95 100 100 94 57 51 98 56 4 18 21 0 0 39 0 0 0 0 0 0 0 0 0 0 0 0
0 0 0 0 0 0 0 0 0 0 0 5 5 12 86 100 64 90 100 100 100 100 100 78 89 99 96 66 24 0 0 0 0 0 0 0 0 0 0 0 0 4 15
3 0 0 0 0 0 0 0 0 0 0 0 0 2 37 86 77 86 100 100 100 100 100 100 100 100 100 3 2 0 0 0 0 0 0 0 0 0 0 1 0 0 3
84 15 16 0 0 0 0 0 0 0 0 0 0 0 0 1 88 96 88 100 100 100 100 100 100 100 100 100 14 36 20 11 0 0 0 0 0 0 0 0 0 3 0
100 100 100 17 4 0 0 0 0 0 0 0 0 0 27 0 0 24 100 100 100 100 100 100 100 94 98 100 100 100 96 94 5 4 17 0 19 0 0 0 0 0 0
4 40 100 100 100 98 12 0 0 0 0 0 0 1 12 3 38 100 100 97 64 50 93 91 84 100 100 100 100 100 100 81 56 100 92 45 100 100 41 98 78 24 3
1 12 58 96 99 99 100 83 26 0 0 0 0 0 0 0 0 85 100 4 14 5 15 12 53 71 100 100 81 100 99 47 55 42 100 100 100 100 92 62 58 98 96
0 0 2 10 10 60 96 62 97 97 60 0 0 0 0 0 0 0 6 0 0 7 73 97 78 79 100 100 100 61 42 96 84 13 13 98 96 100 100 100 100 87 58
2 5 5 90 69 88 100 100 70 97 100 100 32 0 2 10 1 0 0 0 0 95 100 100 100 100 100 100 100 100 76 30 100 100 22 96 100 100 100 100 100 100 100
5 5 5 12 12 53 83 100 100 100 75 52 100 100 23 51 99 100 57 32 54 100 100 100 100 100 100 100 100 100 100 100 97 100 100 65 100 100 100 100 100 100 100
5 5 20 45 90 96 100 100 100 100 100 100 98 100 100 32 89 100 79 73 100 100 100 100 100 100 100 100 100 100 100 100 100 100 100 92 100 100 100 100 100 100 100
5 6 45 61 61 38 66 100 100 100 100 100 97 100 98 60 100 100 100 100 100 94 98 100 100 100 100 100 100 100 100 100 100 100 100 100 100 100 100 100 100 100 100
5 5 86 100 100 99 99 100 100 100 100 100 100 100 100 100 100 100 100 100 100 100 100 100 100 100 100 100 100 100 100 100 100 100 98 100 100 100 100 100 100 100 100
28 47 8 31 100 100 100 100 100 100 100 100 100 100 100 100 100 100 100 100 100 100 100 100 100 100 100 100 100 100 100 100 100 100 100 100 100 100 100 100 100 100 100

GFSGL_prec_cloud_093.txt.gz
Cloud_Cover
100 100 100 100 94 0 0 0 0 0 0 4 14 98 85 100 59 5 3 25 9 24 2 0 0 0 0 0 0 0 0 0 0 0 0 0 0 0 0 0 0 1 2
100 100 100 100 100 70 8 0 0 0 0 0 0 2 99 100 51 5 5 5 9 5 0 0 0 0 0 0 0 0 0 0 0 0 0 0 0 0 0 0 4 1 0
100 100 100 100 100 100 100 100 95 21 4 1 0 0 0 0 2 5 51 11 82 23 1 4 3 0 0 0 0 0 0 0 0 0 0 0 0 0 4 1 5 5 5
100 100 100 100 100 100 100 100 100 100 83 4 5 1 0 0 0 0 4 77 95 41 3 7 13 1 0 0 0 0 0 0 0 0 0 0 0 0 4 1 5 10 54
100 100 100 100 100 100 100 100 100 100 100 17 3 5 2 0 0 0 0 0 0 0 0 6 96 39 0 0 0 2 0 0 0 0 0 0 0 0 0 1 5 5 5
100 100 100 100 100 100 100 100 100 100 100 94 5 8 5 5 0 0 0 0 0 0 0 0 0 9 0 34 2 0 0 0 0 0 0 0 0 0 0 0 2 5 2
100 100 100 100 100 100 100 100 100 100 100 44 9 0 1 0 0 0 0 0 0 0 0 0 0 0 0 0 0 0 4 4 0 0 0 0 0 0 0 2 0 5 5
100 100 100 100 100 100 100 100 100 100 99 100 95 1 0 0 0 3 4 2 0 0 0 0 0 0 0 0 0 0 1 4 2 15 3 5 0 0 0 0 0 5 5
100 100 100 100 100 100 99 100 100 100 100 85 22 15 8 3 17 2 0 0 4 0 0 0 0 0 0 0 0 0 0 0 2 5 4 3 5 4 0 0 2 0 4
98 100 100 100 100 100 100 100 100 100 98 100 35 0 30 10 39 33 35 1 0 1 5 15 0 0 0 0 0 0 0 0 0 0 0 0 0 0 0 0 0 0 0
0 0 0 8 66 88 77 66 94 28 91 100 99 68 34 22 20 97 70 12 10 3 5 2 0 5 0 0 5 0 0 0 0 0 0 0 0 0 0 0 0 0 0
0 0 0 0 0 0 0 0 0 1 5 31 97 100 52 77 99 97 100 100 99 94 56 61 28 95 100 99 13 0 0 0 0 0 0 0 0 0 0 0 0 0 0
0 0 0 0 0 0 0 0 0 0 0 0 2 67 55 73 56 100 69 43 99 94 98 100 99 100 100 65 85 19 0 0 0 0 0 0 0 0 0 0 0 0 0
0 0 0 0 0 0 0 0 0 0 0 0 0 0 2 5 5 95 87 6 95 100 100 100 100 99 100 100 76 9 0 0 0 0 0 0 0 0 0 0 0 1 1
0 0 0 0 0 0 0 0 0 0 0 0 0 0 0 0 0 0 56 65 5 60 100 100 96 100 100 100 100 20 0 3 1 0 0 0 0 0 0 0 0 8 100
0 0 0 0 0 0 0 0 0 0 0 0 0 0 0 0 0 0 0 88 100 100 100 99 100 100 64 89 29 81 98 73 5 1 9 1 0 0 0 0 0 5 12
0 0 0 0 0 0 0 0 0 0 0 0 0 0 0 0 0 0 0 100 100 100 100 100 100 60 51 18 28 5 89 99 100 99 72 6 10 8 32 0 0 1 2
0 0 0 0 0 0 0 0 0 0 0 0 0 0 0 0 0 0 10 96 9 91 100 99 92 38 42 99 100 96 79 68 39 34 18 68 92 100 82 100 100 100 100
5 2 0 0 0 0 0 0 5 0 0 0 0 0 0 0 0 0 97 59 0 0 8 11 91 100 100 100 100 98 66 57 100 100 34 80 91 87 100 100 100 100 100
41 5 3 0 0 3 4 2 0 4 42 85 1 0 0 0 0 0 0 0 40 99 70 24 1 75 100 100 100 100 100 100 97 100 100 100 98 33 100 100 100 96 100
65 96 14 5 5 0 3 5 4 11 10 5 82 100 54 0 0 0 0 0 40 96 39 27 43 90 90 99 100 100 100 100 100 100 100 100 66 66 100 100 100 100 71
0 0 0 0 0 0 5 5 5 5 5 36 37 70 100 98 40 10 10 14 85 62 100 100 100 40 98 100 100 100 100 100 100 100 100 100 100 100 54 99 100 100 100
0 0 0 0 0 4 14 26 32 43 22 36 100 95 100 100 100 82 3 16 80 100 100 100 25 35 83 100 100 100 100 100 100 100 100 100 100 100 100 77 98 95 100
0 0 0 0 5 5 29 100 100 100 100 100 100 100 100 100 100 100 100 100 100 98 92 74 72 76 96 100 100 100 100 100 100 100 100 100 100 100 100 100 100 100 100
0 0 0 1 6 7 6 49 100 100 100 100 100 100 100 100 100 100 100 100 100 100 100 84 60 78 98 100 100 100 100 100 100 100 100 100 100 100 100 100 100 100 100
2 0 0 3 5 13 7 53 100 100 100 100 100 100 100 100 100 100 100 100 100 100 100 100 100 100 100 100 100 100 100 100 100 100 100 100 100 100 100 100 100 100 100

GFSGL_prec_cloud_096.txt.gz
Cloud_Cover
100 100 100 100 100 100 100 100 100 100 99 73 12 15 100 70 98 60 5 5 24 51 8 79 100 15 0 0 0 0 0 0 0 0 0 4 0 0 2 63 50 5 7
100 100 100 100 100 100 100 100 100 100 100 100 11 5 5 53 72 27 2 5 11 82 6 5 44 61 1 0 2 1 0 0 0 0 0 0 0 0 5 11 5 5 5
100 100 100 100 100 100 100 100 100 100 100 100 91 38 75 62 27 4 4 4 7 85 60 3 31 22 0 4 2 5 0 0 0 0 0 0 0 0 5 0 4 5 5
100 100 100 100 100 100 100 100 100 100 100 100 100 100 99 100 5 2 0 5 5 21 5 0 1 30 23 0 5 5 5 1 0 0 0 0 0 0 0 3 5 5 5
100 100 100 100 100 100 100 100 97 98 100 100 100 100 100 96 71 88 4 3 2 3 0 0 0 0 34 0 1 3 4 2 0 0 0 0 0 0 0 4 5 4 5
100 100 100 100 100 100 100 100 95 100 95 100 97 100 100 100 5 48 9 5 5 5 5 0 0 0 0 0 0 2 3 0 0 0 0 0 0 0 0 0 0 0 0
100 100 100 100 100 100 100 100 100 100 100 100 100 100 100 100 100 13 100 15 17 8 10 0 0 0 0 0 0 0 4 4 0 0 0 0 0 0 0 0 0 0 0
100 100 100 100 100 100 100 100 100 100 100 100 100 100 100 100 100 99 6 5 5 38 37 0 3 1 0 0 0 0 0 2 5 0 0 0 0 0 0 0 0 0 5
100 100 100 100 100 100 100 100 100 100 100 100 100 100 100 100 100 100 96 6 4 5 9 0 5 6 1 0 0 0 0 0 0 2 1 0 0 0 0 0 0 2 0
0 0 100 100 100 100 100 100 100 100 100 100 100 100 100 100 100 100 100 98 35 11 95 38 1 4 79 58 2 0 0 0 0 0 0 1 15 0 2 0 0 12 0
97 0 72 100 81 100 100 100 100 100 100 100 100 100 100 100 100 100 100 48 90 100 98 66 27 99 100 97 63 6 0 2 0 0 5 5 3 0 0 0 0 0 0
100 25 0 98 100 86 100 100 100 100 100 100 100 100 100 100 100 100 100 95 66 98 69 28 28 100 100 100 90 64 32 25 11 0 0 0 0 0 0 0 0 0 0
0 0 0 0 44 100 99 100 100 100 100 100 100 100 100 100 100 100 24 5 5 5 54 97 99 100 100 84 100 100 81 33 18 2 0 0 0 0 0 0 0 0 0
0 0 0 0 0 0 1 54 85 84 100 100 100 100 100 100 69 11 0 5 5 5 12 16 30 70 70 75 79 16 18 99 47 3 0 0 0 0 0 0 0 0 0
0 0 0 0 0 0 0 0 0 0 0 1 20 28 50 24 0 0 0 0 3 52 100 23 17 9 12 24 14 12 12 93 86 100 39 17 3 10 0 0 0 0 0
0 0 0 0 0 0 0 0 0 0 0 0 0 0 0 0 0 0 0 2 100 100 72 37 31 17 98 39 35 54 17 33 5 93 100 42 37 21 41 5 38 1 0
0 0 0 0 0 0 0 0 0 0 0 0 0 0 0 0 0 0 0 93 100 100 94 4 44 4 100 100 94 66 98 99 100 100 100 100 6 48 64 69 15 5 5
0 0 0 0 0 0 0 0 0 0 0 0 0 0 0 0 0 0 75 12 0 30 81 61 27 20 96 100 85 97 100 71 100 100 100 89 87 54 83 81 77 70 78
0 0 0 0 0 0 0 0 0 0 0 0 0 0 0 0 0 0 71 0 0 0 0 27 74 100 100 93 38 36 100 87 92 100 100 100 99 92 100 100 96 87 65
0 0 0 0 0 0 0 0 0 0 0 0 0 0 0 0 0 0 0 0 0 0 4 99 100 100 99 100 98 100 92 88 100 100 100 100 100 100 94 99 66 100 100
2 0 4 1 0 0 0 0 0 5 5 5 5 4 5 5 2 3 2 1 18 72 42 11 99 98 95 99 62 100 100 100 100 100 100 100 100 100 100 100 100 100 100
4 5 4 5 5 3 1 0 5 57 68 60 47 37 21 5 6 5 50 100 100 53 53 85 94 100 100 100 97 56 91 100 100 100 100 100 100 100 100 100 100 100 100
0 0 0 0 0 0 0 2 5 5 41 100 100 100 100 100 95 48 36 100 100 100 92 100 100 100 100 63 67 97 100 100 100 100 100 100 100 100 100 100 100 100 100
5 5 5 1 0 0 0 0 1 6 94 100 98 100 100 100 100 95 36 100 100 100 100 100 100 100 100 98 100 100 100 100 99 100 100 100 100 100 100 100 100 100 100
4 0 0 0 0 0 1 3 7 5 26 100 100 86 98 100 100 100 100 100 100 100 100 100 100 100 100 100 100 100 100 100 100 100 100 100 100 99 100 100 100 100 100
20 5 5 2 0 5 11 13 23 3 16 100 100 100 100 100 100 100 100 100 100 100 100 100 100 100 100 100 100 100 100 100 100 100 98 100 100 100 100 100 100 100 100

GFSGL_prec_cloud_099.txt.gz
Cloud_Cover
100 100 100 100 100 100 100 100 100 100 100 100 79 80 90 58 100 91 6 8 100 66 3 3 5 4 0 0 0 0 0 0 0 0 0 0 0 0 1 79 31 5 10
97 37 94 100 99 95 99 100 100 100 100 100 100 100 100 100 56 51 97 5 17 99 61 2 5 5 3 0 0 0 0 0 0 0 0 0 0 0 5 46 5 5 6
100 100 79 100 100 82 98 100 100 100 100 100 100 100 100 100 75 58 25 43 20 91 78 83 0 5 5 4 5 0 0 0 0 0 0 0 0 4 0 4 4 5 5
100 100 100 100 100 100 100 97 100 100 100 100 100 100 100 100 100 64 41 28 26 100 42 81 92 19 18 4 4 5 0 0 3 0 0 0 0 0 0 0 0 0 0
100 100 100 100 100 100 100 100 100 92 100 100 100 100 100 100 100 100 78 100 17 98 100 79 22 94 30 4 0 2 24 0 0 0 0 0 0 0 0 0 3 0 0
100 100 100 100 100 100 100 100 100 100 100 100 100 100 100 100 100 100 100 88 67 89 92 49 95 10 31 4 0 1 2 12 5 5 5 3 0 0 0 0 0 0 0
100 100 100 100 100 100 100 100 100 100 98 51 99 100 100 100 100 100 100 100 100 80 99 48 96 94 5 8 5 0 4 3 19 5 5 5 4 0 0 0 0 0 0
100 100 100 100 100 100 100 100 100 100 100 100 92 100 100 100 100 100 100 100 100 97 96 5 44 100 89 5 7 4 0 4 0 4 5 5 2 0 0 0 0 0 6
100 100 100 100 100 100 100 100 100 100 100 100 100 100 100 100 100 100 100 100 100 100 97 58 63 98 71 99 6 5 5 4 0 1 0 0 3 0 0 0 0 13 2
100 100 100 100 100 100 100 100 100 100 100 100 100 100 100 100 100 100 100 100 93 100 99 100 100 95 100 100 58 98 12 5 5 0 0 4 22 1 1 0 0 21 4
100 100 100 100 100 100 100 100 100 100 100 100 100 100 100 100 100 100 100 100 100 98 100 100 100 100 100 100 100 91 48 100 62 22 0 0 0 0 0 2 0 0 0
100 100 100 100 100 100 100 100 100 100 100 100 100 100 100 100 100 100 100 100 97 99 98 100 100 100 100 100 96 99 100 100 100 100 94 12 0 0 0 0 0 0 0
100 100 100 100 100 100 97 99 100 100 100 100 100 100 100 100 100 100 100 100 99 100 97 48 100 100 100 75 99 100 100 92 47 82 100 100 5 0 0 0 0 0 0
78 100 100 100 100 100 100 100 98 100 100 100 100 100 100 100 100 100 100 100 77 100 100 44 99 63 99 92 62 16 24 33 39 65 96 58 7 10 6 4 3 6 36
5 49 100 90 76 86 98 100 84 39 100 100 100 100 100 100 100 98 100 100 100 100 100 100 100 100 100 46 28 20 17 20 40 41 53 93 66 55 94 58 10 1 27
4 1 24 99 100 100 98 23 25 68 99 99 100 100 100 100 84 81 100 100 100 100 100 100 100 100 87 70 100 99 95 85 100 100 100 92 96 80 91 65 82 49 63
5 2 0 2 43 46 73 75 86 19 10 6 48 33 100 100 100 90 55 45 14 82 28 44 47 45 68 96 55 100 100 100 94 46 6 18 93 100 100 92 47 100 100
4 5 1 0 0 0 0 0 0 0 0 0 0 0 0 0 0 1 0 13 0 0 3 18 54 100 100 100 100 100 100 83 17 57 47 79 100 100 100 100 100 100 100
0 0 0 0 0 0 0 0 0 0 0 0 0 0 0 0 0 0 0 0 0 0 0 1 2 8 59 87 100 100 100 100 100 100 57 15 14 95 100 100 100 100 99
0 0 0 0 0 0 0 0 0 0 0 0 0 1 3 4 4 4 2 1 0 0 0 18 74 100 96 94 91 100 100 77 87 100 100 100 98 26 36 98 100 100 100
0 0 0 0 0 0 0 0 0 0 0 2 4 5 5 5 5 5 20 24 15 9 9 88 100 25 34 97 100 100 100 100 97 100 100 100 100 100 100 100 100 100 100
0 0 0 0 0 0 0 0 0 0 0 1 5 5 5 5 5 5 62 100 95 32 8 8 13 98 92 100 100 100 100 100 100 100 100 100 100 100 100 100 100 100 100
0 0 0 0 0 0 0 0 0 0 0 2 5 5 5 5 11 59 75 62 100 100 58 100 100 93 72 98 100 100 100 100 100 100 100 100 100 100 100 100 100 100 100
0 0 0 0 0 0 0 0 0 1 0 5 5 5 42 69 54 34 40 65 63 42 87 100 100 93 97 100 100 100 100 100 100 100 100 100 100 100 100 100 100 100 100
2 0 0 0 0 0 0 3 11 11 7 0 5 7 97 100 100 100 100 100 100 97 100 100 100 100 100 100 100 100 100 100 100 100 100 100 100 100 100 100 100 100 100
87 23 5 1 0 0 5 9 8 5 14 10 4 5 66 89 100 100 100 100 100 100 100 100 100 100 100 100 100 100 100 100 100 100 100 100 100 100 100 100 100 100 100

GFSGL_prec_cloud_102.txt.gz
Cloud_Cover
4 82 100 58 99 100 94 100 97 100 100 100 100 100 90 34 96 24 5 5 35 69 50 30 5 6 79 5 4 0 0 0 0 0 0 0 0 0 0 0 5 5 8
70 54 43 99 100 99 98 98 91 100 100 100 100 100 100 100 73 86 86 5 93 31 6 34 28 10 3 66 69 5 2 1 4 0 0 0 0 0 0 0 0 5 68
74 99 98 97 100 100 86 83 100 93 100 100 100 41 100 54 100 100 65 100 100 24 59 89 6 61 72 10 70 25 14 5 5 5 5 0 0 0 0 1 0 13 37
100 99 100 100 94 100 100 58 100 80 81 81 100 48 99 100 38 70 100 99 90 38 77 40 25 56 72 5 12 98 60 51 62 22 31 17 0 0 0 0 0 1 5
100 92 99 100 100 83 100 81 27 100 98 86 90 100 100 100 91 100 98 100 42 75 77 5 1 2 5 80 4 9 87 80 78 91 52 6 5 0 0 0 0 0 3
100 100 100 100 100 40 87 81 54 100 100 100 76 100 100 83 100 96 100 100 100 100 100 100 70 5 5 5 5 2 5 78 99 74 67 60 5 0 0 0 0 0 0
100 100 100 100 100 99 98 89 100 76 100 45 91 18 100 98 100 100 100 100 100 100 100 100 100 76 44 30 54 5 15 5 16 99 83 39 5 5 1 0 0 0 0
100 100 100 100 100 100 100 100 100 100 100 90 89 100 85 75 100 100 100 100 100 100 100 100 100 100 67 32 6 6 5 5 5 5 62 37 9 5 2 0 0 0 0
100 100 100 100 75 100 100 100 100 100 100 100 99 100 84 81 100 100 87 100 100 100 99 100 100 100 100 100 66 34 15 5 5 8 5 5 2 5 8 0 1 31 0
100 100 100 100 100 100 100 100 100 100 100 100 100 100 100 94 44 98 100 100 100 100 100 96 100 100 100 100 100 100 98 42 22 5 18 5 6 0 16 2 0 2 7
100 100 100 100 100 100 100 100 100 100 100 100 100 100 100 100 97 99 100 100 81 81 14 9 37 97 99 100 100 100 99 99 56 28 10 5 5 5 2 0 0 0 1
100 100 100 100 100 100 100 100 100 100 100 100 100 100 100 100 100 100 100 100 100 100 84 88 98 100 100 100 100 100 100 100 17 0 3 5 0 3 5 2 0 0 0
100 100 100 100 100 100 97 100 100 100 100 100 100 100 100 100 100 100 100 100 100 100 100 100 62 21 37 77 94 100 99 40 96 70 16 10 37 34 29 25 5 5 0
90 100 100 100 100 100 99 100 100 100 100 100 100 100 100 100 100 100 100 100 100 100 100 94 57 8 67 65 50 72 100 95 100 99 99 88 87 100 84 48 58 14 55
90 96 100 100 100 100 98 100 100 100 100 100 100 100 100 100 100 100 100 100 100 98 100 100 100 100 98 64 63 6 20 62 83 92 100 100 56 6 5 60 36 27 58
3 16 7 5 7 5 100 100 100 100 100 100 100 100 100 100 100 100 100 100 100 100 100 100 94 87 100 100 100 100 78 100 96 100 100 100 35 1 61 42 60 58 45
0 0 0 0 0 0 6 95 100 100 18 100 100 100 100 100 100 100 100 100 100 100 100 100 100 99 100 100 100 98 61 40 100 100 59 51 15 0 0 0 7 100 46
5 1 0 0 0 0 0 0 0 11 87 5 7 94 100 100 100 100 100 100 100 100 100 100 100 100 100 100 100 99 100 97 51 36 58 93 100 82 51 21 0 0 32
2 0 0 0 0 0 0 0 0 0 0 0 0 4 12 65 100 100 100 100 100 100 100 100 100 100 61 70 100 100 100 100 100 97 60 100 100 100 100 100 93 45 17
79 18 4 1 0 0 0 0 0 0 0 0 0 0 4 4 5 10 28 88 92 90 100 47 22 36 71 66 92 95 92 86 100 100 100 100 100 100 100 100 100 100 100
100 80 99 57 4 2 0 0 0 0 0 0 0 0 5 5 5 5 5 15 31 47 100 100 91 98 88 57 85 78 100 100 100 100 100 100 100 100 100 100 100 100 100
40 45 22 14 19 5 3 0 0 0 0 0 0 0 4 5 5 5 18 28 34 53 82 94 65 89 93 89 100 93 60 42 68 100 100 100 100 100 100 100 100 100 100
2 2 3 3 13 3 0 0 1 0 0 0 0 0 0 5 5 8 53 98 100 100 100 100 100 89 86 100 100 100 100 100 99 100 100 100 100 100 100 100 100 100 100
79 64 26 5 5 5 4 0 0 0 0 0 0 0 0 5 5 7 48 87 100 100 100 100 100 100 100 100 100 100 100 100 100 100 100 100 100 100 100 100 100 100 100
55 72 70 34 5 5 5 0 0 0 0 0 0 0 0 1 5 5 5 43 100 100 100 100 100 100 100 100 100 100 100 83 100 100 100 100 100 100 100 100 100 100 100
81 34 12 5 5 5 5 5 5 0 0 0 0 0 0 0 0 5 19 35 89 100 100 100 100 100 100 100 100 100 100 100 100 100 100 100 100 100 100 100 100 100 100

GFSGL_prec_cloud_105.txt.gz
Cloud_Cover
84 0 7 29 10 33 27 16 13 6 49 100 91 100 100 69 69 76 95 6 26 18 11 5 5 22 51 5 5 5 5 5 5 0 0 0 1 4 5 48 100 100 100
15 90 5 91 10 99 100 47 74 5 82 98 100 100 99 30 17 10 9 6 100 24 8 8 5 6 10 85 5 5 18 5 5 37 3 0 0 0 3 15 37 100 90
23 80 99 21 95 87 100 84 70 24 72 41 42 100 100 100 97 85 55 20 5 84 62 14 5 5 29 64 65 37 6 84 96 23 5 0 0 0 1 3 74 34 29
85 79 93 98 63 100 100 98 100 18 10 100 20 6 96 100 87 87 79 50 5 7 74 5 33 5 8 30 57 67 100 27 64 100 97 13 0 0 0 0 1 3 4
100 96 95 100 98 42 100 100 67 100 15 43 91 5 5 89 100 100 100 100 91 45 7 82 5 5 7 3 35 60 79 100 82 45 94 99 13 0 0 0 0 0 0
100 100 100 100 100 100 100 100 69 96 98 22 70 93 95 71 100 100 100 100 100 100 5 5 5 3 24 9 0 3 24 7 45 100 85 86 100 22 0 0 0 0 0
100 100 100 100 100 100 100 100 100 100 99 70 52 47 96 59 100 100 100 22 77 96 84 23 6 10 20 16 5 1 62 14 26 15 25 9 87 65 78 7 1 9 0
100 100 100 100 100 100 100 99 100 100 100 46 60 97 68 90 65 97 100 44 72 100 100 100 100 100 100 90 51 18 4 0 5 7 6 9 8 17 35 36 61 39 17
100 100 100 100 100 98 100 67 100 100 100 100 100 100 100 78 100 63 11 80 7 74 100 100 100 100 100 100 61 48 65 68 62 22 22 10 11 6 48 4 20 61 38
100 100 100 100 100 100 100 100 88 99 100 100 98 100 93 84 100 100 89 58 99 53 56 97 100 100 100 57 54 20 34 46 98 99 13 43 51 39 34 18 7 57 47
100 100 100 100 100 100 100 100 99 85 99 100 97 100 100 100 100 100 100 98 92 17 56 51 98 99 90 100 98 50 46 93 97 100 64 0 0 0 20 72 99 82 56
100 100 100 100 100 55 100 100 100 100 96 100 94 100 98 100 100 100 100 100 86 88 67 97 100 100 72 95 94 100 100 100 100 100 88 81 0 11 48 66 81 93 98
96 100 100 100 100 91 93 100 100 100 100 100 100 100 100 100 100 100 100 100 100 100 100 100 100 99 90 60 54 100 28 8 7 73 74 94 68 17 10 22 18 17 65
99 100 100 100 100 100 100 100 100 100 100 100 100 100 100 100 100 100 100 100 100 100 100 100 100 100 100 100 98 94 60 12 5 5 19 7 4 5 5 5 5 1 0
45 100 100 100 100 100 100 100 100 100 100 100 100 100 100 100 100 100 100 100 100 100 100 100 100 100 94 99 100 100 100 100 77 7 12 5 5 4 5 5 5 0 4
2 53 92 100 100 100 100 100 100 100 100 100 100 100 100 100 100 70 98 100 100 100 100 100 100 100 100 100 100 100 100 100 100 86 42 12 1 0 0 1 4 5 7
78 100 82 100 7 43 100 100 100 100 100 100 100 100 100 100 100 100 100 59 100 100 100 100 100 100 100 100 100 100 100 100 100 99 99 84 100 77 8 5 4 1 5
93 100 100 98 84 4 16 100 100 100 100 78 70 94 99 100 100 100 100 100 88 100 100 100 100 100 100 100 100 100 100 100 92 100 100 100 100 100 100 89 100 99 100
23 23 33 36 5 5 0 0 34 12 21 60 0 0 0 0 35 100 98 96 5 6 57 95 79 92 87 82 100 100 100 100 100 100 100 100 100 100 100 100 100 100 100
19 21 13 5 5 5 5 1 0 0 0 0 0 0 0 0 0 0 0 0 0 8 5 15 6 13 5 28 13 66 88 100 100 100 100 100 100 100 100 100 100 100 100
100 99 100 66 6 5 4 1 0 0 0 0 0 0 0 0 0 0 1 5 5 3 3 58 12 5 5 6 8 11 4 13 49 93 99 100 100 100 100 100 100 100 100
100 100 100 97 41 25 8 5 5 4 1 0 0 0 0 0 0 3 5 5 3 9 27 80 93 100 100 100 100 100 100 98 98 93 100 79 41 69 82 100 100 100 100
100 95 45 87 69 19 68 80 59 5 1 0 0 0 0 0 0 0 5 5 5 20 83 100 100 100 97 98 100 100 100 100 100 100 100 100 100 100 98 100 100 100 100
19 62 99 100 96 14 7 5 5 5 5 3 0 0 0 0 0 0 5 5 5 5 21 60 99 100 100 100 100 100 100 100 100 100 100 100 100 100 100 100 100 100 100
70 10 32 9 8 28 61 40 5 5 5 5 3 0 0 0 0 0 5 5 5 5 10 64 60 83 100 100 100 100 100 100 100 100 100 100 100 100 100 100 100 100 100
88 87 94 49 53 5 15 21 5 5 5 5 4 4 0 0 0 0 1 5 5 5 29 95 87 99 100 100 100 100 100 100 100 100 100 100 100 100 100 100 100 100 100

GFSGL_prec_cloud_108.txt.gz
Cloud_Cover
6 5 4 4 5 1 5 20 100 84 97 100 100 100 66 30 34 6 5 5 6 3 5 3 5 4 18 2 0 0 0 0 0 0 0 1 5 5 5 50 100 100 69
2 58 0 5 3 5 3 67 9 78 92 100 79 100 100 100 100 94 33 37 19 15 12 8 2 5 5 28 14 1 0 4 0 0 0 0 3 11 5 8 5 5 0
27 3 35 2 3 0 0 31 65 56 5 84 84 21 80 100 100 100 33 20 12 19 82 6 36 16 12 5 52 57 5 5 5 4 3 5 5 2 5 1 5 5 2
92 65 34 10 6 27 11 5 5 28 32 5 35 100 84 91 95 64 56 23 5 13 56 98 70 5 37 9 9 12 87 55 13 5 5 5 5 6 1 0 0 5 13
95 100 40 25 44 62 32 28 8 5 34 7 5 39 100 96 85 100 50 99 83 80 17 23 50 5 1 14 40 70 6 74 75 90 5 5 7 0 0 0 0 0 5
100 84 100 100 64 88 90 65 46 17 14 13 6 10 41 83 94 96 55 12 97 84 35 100 42 24 27 4 0 2 89 92 10 68 89 35 3 5 0 0 0 2 3
100 100 100 100 100 100 100 100 51 58 41 42 86 100 99 84 94 100 59 93 22 15 35 90 100 99 100 27 28 29 69 8 64 7 5 34 89 58 24 11 4 5 5
100 100 100 100 100 100 100 100 100 100 99 71 100 84 100 72 68 7 8 48 81 99 81 97 88 60 60 41 20 34 53 65 69 44 56 57 68 37 44 8 18 22 63
100 100 100 100 100 100 100 100 100 65 99 100 96 92 95 80 99 86 23 16 40 72 77 1 6 25 41 44 91 70 21 32 77 35 47 19 2 6 86 41 13 20 9
100 100 100 96 100 100 100 100 100 99 100 100 100 89 80 76 76 33 100 80 5 5 5 5 8 5 8 75 5 96 95 17 1 1 0 8 48 38 36 10 57 36 29
100 100 100 100 100 100 100 100 100 100 100 100 100 90 97 100 75 58 41 88 95 53 67 87 69 32 99 44 95 3 7 31 4 5 3 23 93 100 100 91 27 77 72
100 100 100 91 100 100 100 100 100 100 99 100 100 95 92 99 98 100 100 100 100 98 66 97 99 100 79 65 61 92 100 90 27 49 69 12 62 91 37 4 10 22 32
100 100 100 88 82 100 99 100 100 100 100 100 100 100 100 100 100 100 100 100 100 100 100 84 100 99 100 97 100 98 94 91 100 98 100 40 99 100 6 5 5 4 1
92 100 100 100 100 100 100 100 100 100 100 100 100 100 100 100 100 100 100 100 100 100 100 100 81 95 100 100 92 68 74 100 99 72 89 82 100 81 60 43 16 5 5
5 51 100 100 100 86 67 88 100 100 100 100 97 97 100 100 100 100 100 100 100 100 100 100 100 100 100 100 100 100 64 75 63 63 83 80 91 72 49 60 50 85 21
63 55 47 87 100 100 100 100 100 100 100 33 91 97 17 41 42 100 100 100 100 100 100 100 100 100 100 100 100 100 100 100 100 100 100 21 9 57 100 40 27 74 97
5 5 5 3 3 86 47 100 100 100 100 100 96 94 100 100 73 5 94 100 100 37 94 100 100 100 100 100 100 100 100 100 100 100 100 99 88 99 100 100 99 74 14
38 11 10 9 39 79 20 10 96 96 100 100 60 50 84 100 100 100 100 100 100 100 100 100 100 93 100 100 100 100 100 100 100 100 100 100 100 100 87 93 64 27 41
100 100 100 93 72 62 93 85 56 95 100 78 6 19 0 99 96 100 100 100 100 100 76 100 100 100 100 100 99 100 100 100 100 100 100 100 100 100 100 100 100 100 70
100 100 100 100 100 100 100 100 78 14 4 11 15 0 0 0 19 76 100 81 67 56 5 51 100 100 100 100 100 100 92 34 100 100 100 100 100 100 100 100 100 100 100
100 100 100 65 39 73 7 78 72 5 0 1 1 14 0 0 0 0 0 0 1 0 1 0 5 8 5 5 72 97 5 5 5 5 95 100 100 97 88 97 100 100 100
100 100 100 100 97 36 36 66 32 10 5 4 0 0 0 0 0 0 0 0 0 0 0 2 3 1 4 4 4 4 9 30 61 76 73 100 100 100 96 78 72 85 99
100 100 97 100 100 100 100 98 91 98 90 86 54 43 19 2 0 0 0 0 4 5 5 1 2 0 7 34 60 72 86 96 100 100 100 100 100 100 100 100 100 96 90
100 100 100 100 100 100 100 100 100 88 5 5 26 16 11 6 14 8 3 1 5 5 5 5 5 6 31 48 74 97 100 100 100 100 100 100 100 100 100 100 100 100 100
93 100 100 100 100 100 100 94 77 86 6 5 5 5 5 5 5 5 5 4 5 5 5 5 5 5 5 2 14 76 91 51 100 100 100 100 100 100 100 100 100 100 100
100 100 100 91 84 88 70 5 5 5 5 5 5 5 5 5 5 5 5 5 5 5 5 5 5 3 5 4 8 28 73 67 93 99 100 100 100 100 100 100 100 100 100

GFSGL_prec_cloud_111.txt.gz
Cloud_Cover
74 83 7 2 2 4 3 5 27 100 100 100 100 100 100 100 87 66 92 98 12 4 4 9 6 5 5 0 28 4 9 1 0 1 5 5 22 81 5 15 75 5 5
38 97 71 89 6 0 0 2 8 29 98 100 100 98 100 100 100 97 100 99 100 76 73 5 0 3 42 5 5 2 0 0 0 0 3 8 5 17 5 5 10 6 5
39 57 57 100 99 42 0 4 6 53 26 32 77 87 91 78 100 100 100 100 92 60 100 100 50 16 8 4 8 5 32 84 90 73 0 1 8 33 5 15 32 5 5
100 98 90 36 83 97 79 0 5 24 15 77 84 50 89 100 96 92 38 96 100 95 99 100 95 90 84 50 28 20 52 32 84 21 45 16 17 99 5 7 1 0 5
100 92 100 100 18 96 29 12 2 51 38 5 56 75 25 100 100 100 92 89 72 100 61 100 43 58 95 7 5 9 8 15 37 69 62 18 8 0 0 0 3 5 4
94 100 100 100 100 98 34 39 19 18 15 43 6 49 60 97 71 95 96 100 100 97 78 100 69 98 89 13 53 5 44 5 4 5 68 9 5 6 3 1 0 3 5
57 83 96 91 70 89 64 99 98 66 79 77 51 75 60 79 77 47 46 4 25 11 22 100 100 100 36 22 100 23 67 46 40 8 16 69 12 100 100 73 17 9 8
84 96 93 100 100 100 100 100 100 98 100 97 100 93 5 21 29 50 19 43 90 80 72 76 100 91 31 5 0 29 58 35 89 23 51 34 33 13 6 28 9 27 28
100 100 100 100 100 100 100 100 100 100 100 100 100 99 93 76 22 53 50 88 56 49 5 5 7 14 30 11 5 4 2 38 86 67 99 2 0 0 24 6 74 100 100
100 100 100 100 100 100 88 100 100 100 100 100 100 100 100 95 86 81 69 53 62 90 100 29 5 5 5 3 1 5 5 0 3 38 5 44 37 91 79 67 94 36 8
100 100 100 100 100 100 100 100 92 100 100 100 100 100 100 100 100 99 94 94 97 85 68 98 89 26 19 5 51 4 1 18 2 1 6 63 61 95 100 90 51 24 5
100 100 100 100 100 100 100 100 93 100 100 100 100 100 100 98 89 66 90 100 91 100 97 99 99 95 88 74 65 49 13 42 6 9 6 88 97 79 37 98 83 59 8
100 100 100 100 100 100 100 100 99 100 100 85 100 100 100 97 83 98 100 95 100 100 100 100 100 100 100 99 91 98 71 89 97 63 16 7 5 5 22 5 8 96 81
100 100 100 100 100 100 100 100 99 98 92 100 100 100 90 100 100 100 97 99 100 100 100 100 94 100 100 100 100 100 84 100 98 93 42 92 100 55 40 42 73 53 40
100 100 100 81 88 100 100 100 100 83 98 100 100 99 100 100 100 100 97 100 90 40 68 47 100 100 100 100 100 100 100 100 100 97 97 75 74 44 64 5 26 33 17
100 92 41 82 40 76 27 100 100 100 100 100 100 100 99 80 99 99 100 100 100 100 92 60 100 99 93 100 100 100 100 100 100 100 100 100 100 100 98 76 36 99 100
100 50 70 5 5 5 5 5 2 7 94 100 100 100 100 100 100 83 64 21 100 100 100 100 100 100 100 100 100 100 100 100 100 100 100 100 100 100 100 100 100 61 100
78 78 81 70 5 16 57 5 5 5 24 100 100 93 100 100 100 100 100 84 98 100 93 100 100 100 47 14 41 61 82 100 100 100 97 100 100 100 100 100 100 100 97
100 100 100 93 99 71 53 11 5 5 17 91 96 78 31 43 100 100 100 100 100 100 100 100 100 82 19 9 90 84 71 33 43 49 98 100 100 100 100 100 100 100 100
98 100 100 100 100 98 89 76 98 94 76 12 12 25 68 5 5 28 63 14 41 70 91 100 100 100 100 57 5 54 93 100 100 100 44 50 100 75 73 100 100 100 100
100 100 100 100 100 100 100 100 100 100 92 100 100 96 76 41 59 14 1 0 0 0 0 0 0 0 0 5 11 0 3 2 0 5 85 82 43 86 100 100 100 100 100
100 100 100 100 100 100 100 100 100 100 100 86 34 54 82 89 90 86 6 5 0 0 0 0 0 0 0 0 4 4 5 5 5 0 4 5 8 10 13 33 25 19 40
100 100 100 100 100 100 100 100 100 100 100 100 100 99 100 90 54 35 5 5 30 6 5 5 4 4 0 0 0 0 3 3 5 21 46 72 92 80 56 61 91 98 97
100 100 100 100 100 100 100 100 100 100 100 100 100 100 100 100 100 99 61 51 5 5 5 5 5 5 5 5 5 8 22 12 13 60 100 99 100 100 100 100 100 100 98
100 100 100 100 100 100 100 100 100 100 100 100 100 100 100 100 100 100 100 83 87 94 16 5 5 5 5 5 5 16 46 4 6 34 75 100 100 100 100 100 100 100 100
100 100 100 100 100 100 100 100 100 100 96 100 100 100 93 98 100 100 100 100 100 99 50 22 24 21 14 5 8 58 0 0 2 11 27 49 97 100 100 100 100 100 100

GFSGL_prec_cloud_114.txt.gz
Cloud_Cover
20 0 0 0 0 0 0 5 5 57 94 86 6 19 83 85 99 100 67 96 96 4 0 13 29 5 4 0 0 6 73 65 6 7 5 5 5 40 100 5 0 0 5
0 0 3 0 0 0 0 1 64 5 46 33 65 35 91 7 100 79 34 29 100 100 40 4 1 0 5 48 7 5 71 32 83 75 44 24 60 57 96 19 34 0 7
95 22 0 22 1 7 0 0 0 9 99 74 86 5 11 46 41 52 88 5 74 64 100 50 99 74 26 4 4 5 5 4 36 12 0 0 3 100 18 47 0 0 1
68 0 4 28 10 95 52 22 0 0 1 5 5 20 38 59 96 76 39 90 45 99 100 96 12 100 57 3 5 5 4 3 5 5 7 56 52 40 3 0 0 0 0
100 66 74 26 94 100 99 100 61 0 0 0 7 38 40 66 40 75 100 100 100 61 99 98 84 83 55 63 29 2 0 1 5 5 5 46 18 6 0 0 0 0 0
100 100 78 5 6 89 100 100 100 100 100 100 100 46 97 6 36 44 88 100 100 100 100 18 6 100 78 97 30 5 44 5 5 6 1 65 5 64 97 100 56 5 8
57 90 39 39 43 97 69 100 100 100 100 100 100 47 12 4 0 5 5 6 21 22 43 6 17 48 62 60 51 17 5 24 74 11 5 36 54 80 5 21 73 100 24
30 17 54 100 98 100 100 100 100 100 98 100 100 97 26 6 54 8 20 18 3 58 26 25 5 5 12 74 11 7 11 5 2 12 41 3 5 5 7 6 11 100 100
88 93 74 78 66 97 100 100 100 100 100 100 100 93 98 85 97 92 91 5 8 14 5 6 5 5 5 58 32 5 4 5 5 5 3 6 12 11 57 6 28 86 86
100 100 94 65 95 84 72 100 100 100 100 100 100 100 100 100 100 67 98 58 46 63 81 97 56 5 5 5 5 5 5 5 0 0 5 5 32 98 60 48 5 40 100
100 100 100 100 100 100 100 97 100 77 91 100 100 100 100 100 100 100 100 100 100 77 98 98 43 94 68 72 22 5 5 6 10 9 5 34 5 54 7 4 1 2 0
100 100 100 100 100 100 100 100 99 86 94 100 100 100 98 100 100 100 100 100 100 98 100 98 98 58 100 99 79 53 43 75 88 29 39 5 10 5 5 5 5 56 5
100 100 100 100 100 100 100 100 100 100 100 100 100 100 95 100 100 98 100 100 100 88 100 100 100 100 100 100 90 99 100 95 96 100 88 93 100 99 64 8 18 49 11
100 100 100 100 100 100 100 100 100 100 100 100 100 100 89 48 64 5 5 87 100 100 100 100 98 99 100 100 100 100 46 62 15 38 100 96 100 100 100 100 43 10 5
100 100 100 100 100 100 100 100 100 100 98 100 100 100 100 100 100 61 12 6 5 49 100 100 100 100 100 100 97 100 100 47 69 73 38 67 99 82 75 90 98 100 98
100 100 100 100 100 100 100 100 100 100 100 100 100 100 100 100 100 100 9 77 53 76 33 100 100 100 100 100 100 100 100 100 99 55 5 40 5 96 100 100 94 75 98
96 60 65 100 86 96 100 100 100 28 91 100 100 100 100 100 100 100 100 77 100 100 59 100 66 100 92 100 100 100 100 100 100 100 100 100 99 93 100 99 77 100 37
100 94 100 100 100 87 73 72 91 26 56 73 89 38 35 71 61 14 87 97 100 100 99 49 100 100 100 56 32 8 29 80 100 100 100 100 100 100 100 100 100 100 100
82 74 87 75 72 95 100 100 88 90 87 60 75 97 97 5 5 35 70 31 30 91 44 85 94 97 100 88 94 100 90 97 100 100 96 62 76 99 100 100 89 32 7
98 100 100 100 100 99 100 86 96 100 100 100 96 100 98 60 8 30 15 5 5 9 16 8 6 0 24 91 100 59 26 100 100 99 57 15 81 87 71 71 95 100 100
100 100 100 100 100 94 97 100 93 100 100 100 100 100 100 90 100 100 100 76 13 58 78 17 5 4 2 0 0 0 0 0 0 0 99 100 97 96 92 96 99 99 88
100 100 100 100 100 100 100 100 100 100 97 100 100 100 100 100 100 100 100 61 72 100 100 76 34 27 10 5 5 5 0 0 0 0 2 5 5 5 5 5 5 5 5
100 100 100 100 100 100 100 92 100 100 100 100 100 100 100 95 100 100 100 100 100 96 100 61 6 5 5 32 14 4 5 4 0 0 1 4 5 5 5 51 97 100 100
100 100 100 100 100 100 100 100 100 100 100 100 100 100 100 100 100 100 100 100 100 100 100 100 98 95 58 47 11 5 5 5 5 3 5 5 21 98 100 100 100 100 100
56 98 100 100 100 100 100 100 100 99 100 99 100 100 100 100 100 100 100 100 100 100 100 100 100 100 100 100 100 95 89 63 36 43 7 8 23 80 100 100 100 100 100
98 97 100 100 100 100 100 100 100 100 100 100 100 100 100 98 100 100 100 100 100 100 100 100 100 100 100 91 22 42 100 100 100 93 21 5 15 11 63 100 100 100 100

GFSGL_prec_cloud_117.txt.gz
Cloud_Cover
70 1 0 0 0 0 0 4 5 34 64 84 100 96 84 52 14 83 6 23 78 6 37 49 2 0 0 12 64 11 6 5 3 10 5 2 8 0 5 71 21 5 3
76 100 2 0 0 0 0 0 0 4 5 6 8 5 9 58 33 5 19 98 100 100 97 75 9 3 0 2 3 5 5 21 11 4 2 5 5 34 47 80 31 0 0
100 100 100 20 0 0 0 0 0 0 5 83 39 67 84 60 49 72 100 100 100 100 100 100 100 100 76 13 5 5 3 5 5 25 30 7 0 0 0 21 4 1 0
100 100 100 100 6 4 18 0 5 5 4 51 73 8 75 92 9 53 34 100 100 100 100 100 100 100 100 96 7 8 5 3 3 0 0 3 3 0 1 0 0 1 3
100 100 100 100 100 46 17 80 61 98 100 69 21 12 100 74 78 75 48 100 100 100 100 100 100 100 100 95 47 4 4 5 6 5 4 6 14 6 17 13 4 0 0
100 100 100 100 100 90 29 22 98 100 100 100 100 92 10 100 45 64 49 24 100 100 100 100 100 100 100 100 99 81 43 5 3 43 5 37 92 53 5 23 52 100 52
100 100 100 100 87 54 46 38 92 86 100 100 100 62 5 56 55 0 4 20 88 80 100 100 98 99 54 62 5 5 24 34 20 14 12 14 14 6 19 5 5 62 99
100 100 100 82 95 99 55 98 96 78 100 100 100 100 100 58 14 5 13 8 83 74 98 96 79 38 3 3 5 4 21 5 5 0 0 4 12 1 0 67 61 24 26
100 95 85 79 81 98 100 100 100 72 99 100 100 100 100 100 97 34 16 5 10 5 12 73 61 6 8 5 4 1 0 1 5 5 3 0 2 1 0 4 0 0 0
100 100 99 92 100 100 100 100 91 100 100 100 100 99 100 100 100 100 89 100 56 66 91 9 5 6 14 5 50 5 5 5 5 3 6 88 8 5 3 0 0 0 0
100 100 100 100 100 100 100 98 100 94 93 99 100 100 100 100 100 100 100 100 100 100 100 100 79 77 89 100 92 98 86 9 5 5 5 5 5 5 5 5 2 5 5
100 100 100 100 100 100 100 100 100 99 56 9 44 11 42 80 99 100 95 100 100 100 100 100 86 99 100 100 79 100 97 52 53 72 20 13 7 5 29 5 5 5 5
100 100 100 100 100 100 100 100 100 100 99 92 94 9 39 94 74 100 100 96 92 100 100 99 89 14 19 100 100 100 100 100 97 90 61 32 6 68 5 5 11 53 18
100 100 100 100 100 100 100 100 100 96 100 100 100 53 80 99 100 99 99 94 100 97 97 100 96 100 100 100 100 100 100 100 100 100 91 6 22 25 5 35 13 37 82
100 100 100 100 100 100 100 100 100 100 100 100 100 77 98 88 100 100 70 93 100 100 85 22 98 100 100 79 98 100 100 100 70 48 95 100 72 48 73 72 60 24 5
98 100 100 100 100 100 100 100 100 100 100 100 99 100 100 100 99 98 100 100 89 26 99 98 99 100 100 100 72 97 44 11 75 100 97 100 94 100 54 64 84 92 60
100 100 100 100 100 100 100 100 100 100 100 100 100 100 100 100 100 100 100 100 100 100 100 96 100 100 100 100 100 100 100 84 4 4 7 89 100 100 100 100 100 100 100
73 92 100 99 94 97 85 95 99 100 100 100 100 100 100 100 100 34 91 100 100 100 100 100 100 100 91 85 54 64 85 100 100 32 5 5 14 47 45 4 93 100 88
18 19 90 88 87 65 81 82 92 100 98 97 100 100 100 97 69 75 33 53 100 100 100 53 92 100 79 61 98 22 14 20 39 6 16 54 52 3 5 16 76 100 100
63 84 90 97 96 49 100 42 86 100 28 98 100 81 73 100 95 100 100 86 73 43 98 74 21 7 5 5 5 5 5 5 30 4 0 0 0 0 0 1 11 7 5
8 48 100 100 100 85 97 99 100 100 100 100 100 100 100 56 98 100 90 25 67 97 100 100 100 82 88 68 24 50 18 5 5 9 3 0 0 0 4 5 5 5 7
72 97 100 100 100 100 100 100 100 100 100 100 100 100 99 97 96 100 100 88 71 78 80 70 99 100 100 88 78 72 28 5 4 51 44 9 0 0 5 5 12 75 100
21 28 100 100 100 100 100 100 100 100 100 100 100 100 100 100 100 100 100 100 100 100 100 100 99 100 100 100 98 90 77 86 79 88 93 84 62 6 5 5 71 100 100
100 100 64 82 94 100 100 100 100 100 100 100 100 100 100 100 100 100 100 100 100 100 100 100 100 100 100 100 94 100 100 94 96 67 81 69 88 30 29 60 92 100 100
100 100 100 98 77 43 100 100 100 100 100 100 100 100 100 100 100 100 100 100 100 100 100 100 100 100 100 100 100 100 100 100 100 100 100 100 100 100 97 87 91 100 100
54 82 100 100 98 74 100 96 100 100 100 100 100 100 100 100 100 100 100 100 100 100 99 88 96 100 100 90 100 100 100 100 91 100 100 100 97 16 22 5 37 100 100

GFSGL_prec_cloud_120.txt.gz
Cloud_Cover
97 85 18 2 0 3 3 5 5 6 51 100 91 49 100 99 100 68 9 66 100 91 10 10 5 5 5 5 4 8 5 5 1 5 5 4 11 0 6 0 2 6 5
100 98 68 54 3 0 0 2 0 4 5 5 85 98 73 90 100 85 100 100 96 99 100 100 99 10 5 17 4 0 5 10 11 5 3 2 5 5 92 4 75 4 2
100 100 100 100 100 29 5 5 5 5 4 12 39 37 56 70 60 86 96 100 100 100 100 100 100 100 96 95 83 5 3 5 5 4 3 5 5 0 0 3 4 4 5
100 100 100 96 100 100 44 4 53 21 17 57 9 15 100 100 100 100 94 100 100 100 100 100 100 100 100 100 92 7 1 2 4 5 5 9 28 22 5 16 19 5 5
100 100 100 100 100 100 100 84 100 100 99 100 99 72 89 89 83 100 100 100 100 100 100 100 100 100 100 91 97 6 28 67 82 96 78 7 6 6 58 40 18 98 77
100 100 100 100 100 100 100 100 100 74 90 100 82 100 100 100 88 98 100 100 55 44 52 100 99 100 100 100 100 35 44 94 55 59 61 22 5 5 4 13 27 33 47
100 100 100 100 100 100 100 100 100 95 100 99 99 100 100 100 100 100 100 89 46 6 44 85 88 100 100 100 100 70 77 45 76 16 5 5 5 5 4 4 0 8 43
100 100 100 100 100 100 100 100 100 100 80 76 100 100 100 100 100 100 99 67 88 23 12 88 68 85 69 69 79 65 15 19 5 5 5 9 5 5 5 5 5 10 7
100 100 100 100 100 100 100 100 100 100 100 100 79 98 100 100 100 100 100 96 100 100 8 9 79 99 100 92 78 18 5 8 5 85 89 86 9 5 5 5 5 8 65
100 100 100 100 100 100 100 100 100 100 100 100 100 100 100 100 100 100 100 100 100 100 100 100 81 100 100 100 70 12 5 6 13 58 92 92 25 5 5 5 5 5 5
100 100 100 100 100 100 100 100 100 100 100 98 100 100 100 100 100 100 100 100 100 100 100 100 100 100 100 100 84 93 92 72 51 5 98 59 53 18 18 5 10 5 58
100 100 100 100 100 100 100 100 100 84 84 62 18 79 100 100 100 100 100 100 100 100 100 100 100 100 100 100 91 72 100 100 89 73 46 34 89 21 56 7 5 66 24
100 100 100 100 100 100 100 100 100 96 99 64 99 68 74 100 94 96 95 100 100 100 100 100 100 100 99 100 100 100 99 81 35 100 38 37 10 6 5 9 6 5 5
100 100 100 100 100 100 100 100 91 100 100 100 100 85 100 100 92 71 100 100 95 91 85 99 100 100 100 100 100 100 100 100 98 100 84 46 32 7 10 37 58 6 4
100 100 100 100 100 100 100 100 100 100 100 100 92 91 97 100 100 73 57 76 95 100 100 100 100 100 98 98 100 100 100 100 100 57 69 39 99 100 100 100 99 84 8
100 100 100 100 100 100 100 100 100 100 100 100 100 100 100 64 90 85 100 91 100 100 100 100 100 100 100 100 95 100 100 98 91 99 100 95 73 100 100 100 99 81 100
100 100 100 40 100 100 100 100 100 100 100 100 100 100 100 100 100 100 100 95 100 100 100 100 100 100 100 100 100 100 100 100 100 100 100 95 68 55 99 100 83 100 82
83 100 100 100 95 100 99 48 100 92 100 100 100 100 100 100 99 100 100 100 100 100 100 100 100 100 100 100 100 100 100 100 100 100 100 100 100 78 86 96 100 87 96
9 10 50 100 98 100 100 100 70 78 72 79 100 100 100 100 100 100 100 100 100 100 100 100 100 100 100 100 100 100 100 100 100 100 100 100 39 43 7 13 6 6 59
75 34 41 35 18 89 25 38 74 65 100 100 100 100 100 100 100 100 100 100 100 100 100 99 100 100 70 72 82 100 99 58 19 83 100 94 40 5 3 2 4 5 5
100 100 100 100 97 14 7 8 7 68 56 98 89 100 100 100 100 100 100 100 100 100 80 89 100 100 100 100 98 99 98 54 19 44 81 67 6 5 5 5 5 5 5
100 100 100 100 83 76 79 82 60 31 53 7 69 85 95 99 100 100 100 100 100 100 100 100 100 100 100 100 100 100 100 98 88 99 100 92 37 41 18 9 11 5 5
100 100 100 100 100 98 98 96 94 100 100 94 87 100 72 90 100 100 100 100 100 100 100 100 100 100 100 100 100 100 99 99 99 98 99 61 28 23 48 44 18 30 31
0 5 13 44 95 77 46 52 24 15 100 100 100 100 100 100 100 100 100 100 100 100 100 100 100 100 100 100 100 100 100 100 100 100 100 100 100 100 97 72 84 99 97
5 5 5 5 5 5 72 100 92 97 73 65 99 100 100 100 100 100 100 100 100 100 100 100 100 100 100 100 100 100 100 100 100 100 100 100 100 100 100 97 71 7 5
36 13 5 5 6 94 92 88 68 83 98 91 96 100 100 100 100 100 100 100 100 100 100 100 100 100 100 100 100 100 100 100 100 100 100 100 100 100 97 55 68 53 52

GFSGL_prec_cloud_123.txt.gz
Cloud_Cover
5 5 5 21 2 0 0 1 3 5 35 33 100 97 26 13 91 100 95 59 80 5 9 62 4 1 0 0 0 0 0 4 0 1 5 2 5 6 5 32 5 14 30
81 98 100 100 65 5 3 4 5 6 5 5 15 45 94 53 93 100 100 100 100 100 99 78 83 99 58 4 5 87 5 5 1 5 4 5 46 65 5 8 1 5 5
73 32 98 100 100 100 100 9 5 5 5 4 52 97 100 100 100 100 100 100 100 100 100 100 100 58 70 57 79 92 22 22 2 0 3 5 5 22 12 5 48 8 5
10 11 20 69 100 100 100 100 47 52 44 100 100 99 100 96 100 100 100 100 100 100 98 100 100 100 100 100 100 100 86 100 95 87 37 6 2 3 1 25 69 100 79
28 100 77 100 100 100 98 100 100 68 90 99 100 100 100 100 100 100 100 100 100 99 100 100 86 74 100 100 100 100 100 79 100 99 97 86 16 73 5 16 9 9 6
79 91 100 100 100 100 100 100 100 100 96 79 92 66 100 100 100 100 100 100 100 71 100 100 96 100 100 100 88 100 100 91 94 100 98 98 73 90 22 5 10 6 65
100 100 95 100 100 100 100 78 100 74 100 100 100 75 100 100 100 96 100 100 100 100 100 100 90 49 69 56 100 94 100 100 100 70 91 13 9 16 62 56 5 34 5
100 100 100 100 100 100 100 100 100 98 100 100 99 100 100 100 100 100 100 100 100 83 92 100 85 100 52 37 38 97 100 81 45 58 33 49 5 25 5 14 32 95 28
100 100 100 100 100 100 100 100 100 100 100 100 100 99 90 100 100 100 98 100 100 89 89 87 97 100 89 39 79 53 20 76 86 80 77 46 81 39 49 36 8 5 9
100 100 100 100 100 100 100 100 100 100 100 100 100 100 100 84 100 100 100 100 100 100 100 100 100 97 64 84 98 26 15 32 65 43 82 78 48 16 5 28 50 32 9
100 100 100 100 100 100 100 100 100 100 100 100 100 100 100 100 100 100 100 100 100 100 100 100 100 100 100 100 95 83 86 95 97 78 79 88 80 61 70 63 58 71 66
100 100 100 100 100 100 100 100 100 100 100 100 100 100 100 100 100 100 100 100 100 100 100 100 100 100 100 100 94 98 91 74 77 42 99 84 66 58 11 5 22 5 5
100 100 100 100 100 100 100 100 100 100 100 100 100 100 100 100 100 100 100 100 100 100 100 100 100 100 100 100 100 100 100 81 63 55 97 100 64 49 21 73 33 94 92
100 100 100 100 100 100 100 100 100 100 100 100 100 99 100 100 100 100 100 100 100 100 100 100 74 86 100 100 100 100 100 100 66 6 7 20 46 92 100 100 89 82 97
100 100 100 100 100 100 100 100 100 100 100 100 100 100 100 100 100 100 100 100 100 100 100 96 84 100 76 100 100 100 100 100 100 100 32 96 60 81 99 100 93 56 16
100 100 100 100 100 100 100 100 100 100 100 100 100 100 100 100 100 90 89 100 100 100 100 94 95 93 50 98 100 95 99 100 98 100 100 100 97 100 100 100 72 100 100
100 100 100 100 100 100 100 100 100 100 100 100 100 100 100 100 100 100 100 100 100 100 99 99 39 95 100 99 100 100 100 91 88 100 100 100 100 100 100 100 100 100 100
100 100 100 100 100 100 100 100 100 100 100 100 100 100 100 100 100 100 100 100 100 100 100 100 100 100 100 100 100 100 100 100 100 100 100 100 96 99 100 100 93 70 99
81 97 90 92 100 100 100 100 100 100 100 100 100 100 100 100 100 100 100 100 100 100 100 100 100 100 100 100 100 100 100 100 100 100 100 100 78 100 100 100 79 56 20
100 100 100 100 100 100 100 100 100 100 100 100 100 100 100 100 100 100 100 100 100 100 100 90 100 100 100 100 100 100 85 96 100 100 100 100 72 98 100 87 48 5 71
95 64 39 100 100 100 100 100 100 100 100 99 100 100 100 100 100 100 100 100 100 100 100 100 100 100 100 100 100 99 100 100 100 100 100 100 98 90 98 100 98 74 47
19 83 100 99 97 73 71 100 91 97 100 100 100 100 100 100 100 100 100 100 100 100 100 100 100 100 100 100 100 100 100 100 100 100 100 90 90 100 100 99 84 79 72
5 5 6 84 100 100 74 65 91 100 100 98 100 100 100 100 100 100 100 100 100 100 100 100 100 100 96 100 100 100 100 100 100 100 100 100 100 100 100 100 100 96 98
5 5 5 5 17 67 98 100 100 98 100 99 100 99 92 100 100 100 100 100 100 100 100 100 100 100 100 100 100 100 100 100 100 100 100 100 100 100 100 100 100 100 100
81 87 95 67 43 7 5 5 5 1 2 5 46 98 100 87 16 11 79 48 29 96 100 100 100 100 100 100 100 100 100 100 100 100 100 100 100 100 100 100 100 100 100
5 5 5 18 80 5 6 5 5 5 6 5 14 27 5 5 22 44 65 85 80 93 94 100 100 100 100 100 100 100 100 100 100 100 100 100 100 100 100 100 100 91 100

GFSGL_prec_cloud_126.txt.gz
Cloud_Cover
63 9 8 5 1 2 0 3 3 5 5 25 56 53 5 43 5 2 4 10 10 10 8 5 4 0 0 0 1 0 0 0 0 5 5 5 6 5 5 5 10 5 5
5 86 87 100 21 2 5 1 8 43 8 5 14 100 95 100 26 5 4 6 13 100 100 100 100 100 94 33 5 3 2 0 0 0 0 0 5 0 0 1 19 16 12
19 56 38 65 100 100 100 71 8 43 62 86 67 60 100 100 100 92 95 60 85 82 64 71 51 100 100 100 100 21 25 98 64 1 1 0 0 0 0 1 45 45 7
42 24 17 7 8 37 100 100 100 27 6 7 76 84 53 62 70 86 100 62 96 75 45 63 72 99 98 100 100 93 71 34 44 56 45 51 30 10 3 0 3 0 13
44 5 5 5 7 47 100 100 100 100 100 84 72 32 100 100 100 100 90 82 85 99 100 100 97 96 92 58 22 78 96 100 42 99 77 53 6 16 82 44 6 32 1
100 100 99 98 8 89 70 100 100 94 100 100 100 80 22 98 37 73 100 92 40 100 99 100 100 94 92 78 91 100 100 61 80 99 100 69 6 8 5 5 5 4 4
100 100 100 75 29 39 38 87 82 100 100 100 93 100 100 100 99 47 92 92 100 100 100 100 99 98 88 90 94 100 100 100 93 100 20 14 5 29 9 5 8 5 5
100 100 100 100 100 96 97 65 63 99 100 100 77 100 100 100 100 78 86 100 96 100 100 100 100 100 91 13 78 97 100 100 73 100 68 40 29 5 5 5 5 5 8
100 100 100 100 100 100 100 96 100 100 100 100 99 42 92 100 100 100 100 100 100 98 99 98 94 99 62 14 76 97 82 97 93 96 100 94 68 28 48 62 9 72 83
100 100 100 100 100 100 100 100 100 100 100 100 100 100 100 96 100 100 100 100 100 100 100 100 96 71 88 92 100 97 80 99 81 86 64 87 81 83 76 12 60 99 98
100 100 100 100 100 100 100 100 100 100 100 100 100 100 100 100 100 100 100 100 100 100 100 100 100 100 100 100 100 100 100 100 99 99 93 50 79 92 98 98 92 77 63
100 100 100 100 100 100 100 100 100 100 100 99 100 100 100 100 100 100 100 100 100 100 100 100 100 100 100 100 100 100 100 100 95 100 100 87 75 100 100 86 36 17 10
100 100 100 100 100 100 100 100 100 100 100 100 92 88 100 100 100 100 100 100 100 100 100 100 100 100 100 100 100 100 100 100 50 88 99 88 100 100 91 61 89 93 81
100 100 100 100 100 100 100 100 100 100 100 100 100 100 100 100 100 100 100 100 100 100 100 100 100 100 100 100 96 100 85 49 16 91 97 93 96 93 100 100 100 95 100
100 100 100 100 100 100 100 100 100 100 100 100 100 100 100 100 100 100 100 100 100 100 100 100 100 100 100 100 100 97 24 57 8 17 88 94 100 98 98 100 100 100 100
100 100 100 100 100 100 100 100 100 100 100 100 100 100 100 100 100 99 99 100 100 100 100 100 100 100 100 100 100 98 85 67 86 64 100 90 40 100 100 100 100 91 93
100 100 100 100 100 100 100 100 100 100 100 100 100 100 100 100 100 100 100 100 100 100 100 100 100 100 100 99 81 100 28 47 50 100 97 100 100 100 100 100 100 100 100
100 100 100 100 100 100 100 100 100 100 100 100 100 100 100 100 100 100 100 100 100 100 100 100 100 100 100 100 100 100 100 91 100 100 100 94 100 90 39 40 67 67 7
100 100 100 100 100 100 100 100 100 100 100 100 100 100 100 100 100 100 100 100 100 100 100 100 100 100 100 100 100 100 100 100 100 100 97 69 82 94 94 66 92 49 11
100 100 100 100 100 100 100 100 100 100 100 100 100 100 100 100 100 100 100 100 100 100 100 100 100 100 100 100 100 100 100 100 99 100 99 97 100 100 100 94 100 100 95
100 100 100 100 100 100 100 100 100 100 100 100 100 100 100 100 100 100 100 100 100 100 100 100 100 100 100 100 100 100 100 100 100 100 100 100 100 100 100 100 100 100 100
16 100 100 100 100 100 100 100 100 100 100 100 100 100 100 100 100 100 100 100 100 100 100 100 100 100 100 100 100 100 100 100 100 100 100 100 100 100 100 100 100 100 99
0 0 3 18 54 100 100 100 100 100 100 100 100 100 100 100 100 100 100 100 100 100 100 100 100 100 100 100 100 100 100 100 100 100 100 100 100 100 100 100 100 100 100
0 0 0 0 0 0 0 0 23 100 100 100 100 100 78 91 72 46 79 98 98 88 91 100 100 100 100 100 100 100 100 100 100 100 100 100 100 100 100 100 100 100 100
0 0 0 0 0 0 0 0 0 0 0 0 0 0 0 2 0 3 5 18 66 15 17 83 87 76 28 52 31 27 85 99 97 100 94 100 100 100 100 100 100 100 100
2 2 3 22 43 11 5 5 5 5 5 5 5 5 5 5 5 7 13 25 82 92 86 91 82 80 84 88 96 88 51 41 61 99 86 84 44 62 86 90 90 81 44